<?xml version="1.0" encoding="UTF-8" standalone="no" ?>
<gpx xmlns="http://www.topografix.com/GPX/1/1" xmlns:xsi="http://www.w3.org/2001/XMLSchema-instance" xsi:schemaLocation="http://www.topografix.com/GPX/1/1 http://www.topografix.com/GPX/1/1/gpx.xsd" version="1.1" creator="VisuGPX - https://www.visugpx.com">
  <metadata>
    <name>La Bironnaise 2012 (42 kms)</name>
  </metadata>
  <trk>
    <name><![CDATA[La Bironnaise 2012 (45 kms)]]></name>
    <extensions>
      <line xmlns="http://www.topografix.com/GPX/gpx_style/0/2">
        <color>0000FF</color>
        <width>4</width>
      </line>
    </extensions>
    <trkseg>
      <trkpt lat="44.6426" lon="0.88266">
        <ele>191</ele>
        <time>2012-06-03T06:08:17Z</time>
      </trkpt>
      <trkpt lat="44.64287" lon="0.88281">
        <ele>191</ele>
        <time>2012-06-03T06:08:24Z</time>
      </trkpt>
      <trkpt lat="44.64305" lon="0.88294">
        <ele>191</ele>
        <time>2012-06-03T06:08:29Z</time>
      </trkpt>
      <trkpt lat="44.64327" lon="0.88311">
        <ele>191</ele>
        <time>2012-06-03T06:08:35Z</time>
      </trkpt>
      <trkpt lat="44.64344" lon="0.88323">
        <ele>191</ele>
        <time>2012-06-03T06:08:40Z</time>
      </trkpt>
      <trkpt lat="44.64363" lon="0.88336">
        <ele>195</ele>
        <time>2012-06-03T06:08:45Z</time>
      </trkpt>
      <trkpt lat="44.64381" lon="0.88348">
        <ele>198</ele>
        <time>2012-06-03T06:08:51Z</time>
      </trkpt>
      <trkpt lat="44.64402" lon="0.8836">
        <ele>200</ele>
        <time>2012-06-03T06:08:56Z</time>
      </trkpt>
      <trkpt lat="44.64433" lon="0.88379">
        <ele>201</ele>
        <time>2012-06-03T06:09:02Z</time>
      </trkpt>
      <trkpt lat="44.64458" lon="0.88398">
        <ele>201</ele>
        <time>2012-06-03T06:09:07Z</time>
      </trkpt>
      <trkpt lat="44.64477" lon="0.88419">
        <ele>201</ele>
        <time>2012-06-03T06:09:12Z</time>
      </trkpt>
      <trkpt lat="44.64496" lon="0.88444">
        <ele>203</ele>
        <time>2012-06-03T06:09:17Z</time>
      </trkpt>
      <trkpt lat="44.64523" lon="0.88475">
        <ele>203</ele>
        <time>2012-06-03T06:09:22Z</time>
      </trkpt>
      <trkpt lat="44.6455" lon="0.885">
        <ele>204</ele>
        <time>2012-06-03T06:09:27Z</time>
      </trkpt>
      <trkpt lat="44.64581" lon="0.88515">
        <ele>205</ele>
        <time>2012-06-03T06:09:32Z</time>
      </trkpt>
      <trkpt lat="44.64628" lon="0.88526">
        <ele>202</ele>
        <time>2012-06-03T06:09:38Z</time>
      </trkpt>
      <trkpt lat="44.6467" lon="0.88533">
        <ele>197</ele>
        <time>2012-06-03T06:09:43Z</time>
      </trkpt>
      <trkpt lat="44.64716" lon="0.88543">
        <ele>192</ele>
        <time>2012-06-03T06:09:48Z</time>
      </trkpt>
      <trkpt lat="44.64777" lon="0.88551">
        <ele>189</ele>
        <time>2012-06-03T06:09:53Z</time>
      </trkpt>
      <trkpt lat="44.64827" lon="0.8856">
        <ele>185</ele>
        <time>2012-06-03T06:09:59Z</time>
      </trkpt>
      <trkpt lat="44.64888" lon="0.88547">
        <ele>179</ele>
        <time>2012-06-03T06:10:04Z</time>
      </trkpt>
      <trkpt lat="44.64939" lon="0.88544">
        <ele>175</ele>
        <time>2012-06-03T06:10:10Z</time>
      </trkpt>
      <trkpt lat="44.64989" lon="0.88552">
        <ele>172</ele>
        <time>2012-06-03T06:10:16Z</time>
      </trkpt>
      <trkpt lat="44.65019" lon="0.88559">
        <ele>171</ele>
        <time>2012-06-03T06:10:21Z</time>
      </trkpt>
      <trkpt lat="44.65042" lon="0.88561">
        <ele>171</ele>
        <time>2012-06-03T06:10:26Z</time>
      </trkpt>
      <trkpt lat="44.6506" lon="0.88566">
        <ele>171</ele>
        <time>2012-06-03T06:10:31Z</time>
      </trkpt>
      <trkpt lat="44.65077" lon="0.88571">
        <ele>173</ele>
        <time>2012-06-03T06:10:36Z</time>
      </trkpt>
      <trkpt lat="44.65092" lon="0.88577">
        <ele>178</ele>
        <time>2012-06-03T06:10:41Z</time>
      </trkpt>
      <trkpt lat="44.65107" lon="0.88583">
        <ele>183</ele>
        <time>2012-06-03T06:10:46Z</time>
      </trkpt>
      <trkpt lat="44.65122" lon="0.88588">
        <ele>189</ele>
        <time>2012-06-03T06:10:52Z</time>
      </trkpt>
      <trkpt lat="44.65138" lon="0.88598">
        <ele>194</ele>
        <time>2012-06-03T06:10:57Z</time>
      </trkpt>
      <trkpt lat="44.65154" lon="0.88606">
        <ele>197</ele>
        <time>2012-06-03T06:11:02Z</time>
      </trkpt>
      <trkpt lat="44.65171" lon="0.88612">
        <ele>198</ele>
        <time>2012-06-03T06:11:07Z</time>
      </trkpt>
      <trkpt lat="44.65188" lon="0.88613">
        <ele>198</ele>
        <time>2012-06-03T06:11:12Z</time>
      </trkpt>
      <trkpt lat="44.65205" lon="0.88608">
        <ele>200</ele>
        <time>2012-06-03T06:11:17Z</time>
      </trkpt>
      <trkpt lat="44.65222" lon="0.88596">
        <ele>200</ele>
        <time>2012-06-03T06:11:23Z</time>
      </trkpt>
      <trkpt lat="44.65233" lon="0.88602">
        <ele>200</ele>
        <time>2012-06-03T06:11:28Z</time>
      </trkpt>
      <trkpt lat="44.65245" lon="0.88625">
        <ele>200</ele>
        <time>2012-06-03T06:11:34Z</time>
      </trkpt>
      <trkpt lat="44.65243" lon="0.88646">
        <ele>200</ele>
        <time>2012-06-03T06:11:39Z</time>
      </trkpt>
      <trkpt lat="44.65238" lon="0.88672">
        <ele>200</ele>
        <time>2012-06-03T06:11:44Z</time>
      </trkpt>
      <trkpt lat="44.65233" lon="0.887">
        <ele>199</ele>
        <time>2012-06-03T06:11:49Z</time>
      </trkpt>
      <trkpt lat="44.65229" lon="0.88727">
        <ele>199</ele>
        <time>2012-06-03T06:11:54Z</time>
      </trkpt>
      <trkpt lat="44.65223" lon="0.88753">
        <ele>198</ele>
        <time>2012-06-03T06:11:59Z</time>
      </trkpt>
      <trkpt lat="44.65218" lon="0.8878">
        <ele>196</ele>
        <time>2012-06-03T06:12:04Z</time>
      </trkpt>
      <trkpt lat="44.65212" lon="0.88809">
        <ele>193</ele>
        <time>2012-06-03T06:12:09Z</time>
      </trkpt>
      <trkpt lat="44.65206" lon="0.88838">
        <ele>192</ele>
        <time>2012-06-03T06:12:14Z</time>
      </trkpt>
      <trkpt lat="44.652" lon="0.88864">
        <ele>191</ele>
        <time>2012-06-03T06:12:19Z</time>
      </trkpt>
      <trkpt lat="44.65195" lon="0.88888">
        <ele>191</ele>
        <time>2012-06-03T06:12:24Z</time>
      </trkpt>
      <trkpt lat="44.65188" lon="0.88918">
        <ele>191</ele>
        <time>2012-06-03T06:12:30Z</time>
      </trkpt>
      <trkpt lat="44.65184" lon="0.88943">
        <ele>191</ele>
        <time>2012-06-03T06:12:35Z</time>
      </trkpt>
      <trkpt lat="44.65176" lon="0.88984">
        <ele>191</ele>
        <time>2012-06-03T06:12:41Z</time>
      </trkpt>
      <trkpt lat="44.65168" lon="0.89006">
        <ele>191</ele>
        <time>2012-06-03T06:12:46Z</time>
      </trkpt>
      <trkpt lat="44.65155" lon="0.89008">
        <ele>191</ele>
        <time>2012-06-03T06:12:51Z</time>
      </trkpt>
      <trkpt lat="44.65139" lon="0.89008">
        <ele>191</ele>
        <time>2012-06-03T06:12:56Z</time>
      </trkpt>
      <trkpt lat="44.65123" lon="0.89008">
        <ele>193</ele>
        <time>2012-06-03T06:13:01Z</time>
      </trkpt>
      <trkpt lat="44.65105" lon="0.89004">
        <ele>193</ele>
        <time>2012-06-03T06:13:06Z</time>
      </trkpt>
      <trkpt lat="44.65087" lon="0.89004">
        <ele>193</ele>
        <time>2012-06-03T06:13:11Z</time>
      </trkpt>
      <trkpt lat="44.65074" lon="0.89021">
        <ele>193</ele>
        <time>2012-06-03T06:13:16Z</time>
      </trkpt>
      <trkpt lat="44.6506" lon="0.89039">
        <ele>193</ele>
        <time>2012-06-03T06:13:21Z</time>
      </trkpt>
      <trkpt lat="44.65049" lon="0.89067">
        <ele>193</ele>
        <time>2012-06-03T06:13:26Z</time>
      </trkpt>
      <trkpt lat="44.65039" lon="0.89096">
        <ele>195</ele>
        <time>2012-06-03T06:13:31Z</time>
      </trkpt>
      <trkpt lat="44.65026" lon="0.89133">
        <ele>199</ele>
        <time>2012-06-03T06:13:36Z</time>
      </trkpt>
      <trkpt lat="44.65016" lon="0.89168">
        <ele>200</ele>
        <time>2012-06-03T06:13:41Z</time>
      </trkpt>
      <trkpt lat="44.6501" lon="0.89194">
        <ele>200</ele>
        <time>2012-06-03T06:13:46Z</time>
      </trkpt>
      <trkpt lat="44.64988" lon="0.89201">
        <ele>200</ele>
        <time>2012-06-03T06:13:51Z</time>
      </trkpt>
      <trkpt lat="44.64965" lon="0.89197">
        <ele>199</ele>
        <time>2012-06-03T06:13:56Z</time>
      </trkpt>
      <trkpt lat="44.64943" lon="0.89201">
        <ele>197</ele>
        <time>2012-06-03T06:14:01Z</time>
      </trkpt>
      <trkpt lat="44.64932" lon="0.89228">
        <ele>197</ele>
        <time>2012-06-03T06:14:06Z</time>
      </trkpt>
      <trkpt lat="44.6493" lon="0.89256">
        <ele>197</ele>
        <time>2012-06-03T06:14:11Z</time>
      </trkpt>
      <trkpt lat="44.64933" lon="0.89281">
        <ele>197</ele>
        <time>2012-06-03T06:14:16Z</time>
      </trkpt>
      <trkpt lat="44.64956" lon="0.8929">
        <ele>199</ele>
        <time>2012-06-03T06:14:21Z</time>
      </trkpt>
      <trkpt lat="44.6497" lon="0.89305">
        <ele>203</ele>
        <time>2012-06-03T06:14:26Z</time>
      </trkpt>
      <trkpt lat="44.64968" lon="0.89311">
        <ele>203</ele>
        <time>2012-06-03T06:14:32Z</time>
      </trkpt>
      <trkpt lat="44.6496" lon="0.89328">
        <ele>203</ele>
        <time>2012-06-03T06:14:37Z</time>
      </trkpt>
      <trkpt lat="44.64952" lon="0.89341">
        <ele>203</ele>
        <time>2012-06-03T06:14:42Z</time>
      </trkpt>
      <trkpt lat="44.64945" lon="0.89357">
        <ele>203</ele>
        <time>2012-06-03T06:14:47Z</time>
      </trkpt>
      <trkpt lat="44.64942" lon="0.89367">
        <ele>204</ele>
        <time>2012-06-03T06:14:52Z</time>
      </trkpt>
      <trkpt lat="44.64941" lon="0.89376">
        <ele>204</ele>
        <time>2012-06-03T06:14:57Z</time>
      </trkpt>
      <trkpt lat="44.64936" lon="0.89386">
        <ele>207</ele>
        <time>2012-06-03T06:15:02Z</time>
      </trkpt>
      <trkpt lat="44.6493" lon="0.89391">
        <ele>208</ele>
        <time>2012-06-03T06:15:07Z</time>
      </trkpt>
      <trkpt lat="44.64927" lon="0.89394">
        <ele>213</ele>
        <time>2012-06-03T06:15:12Z</time>
      </trkpt>
      <trkpt lat="44.64923" lon="0.89409">
        <ele>213</ele>
        <time>2012-06-03T06:15:18Z</time>
      </trkpt>
      <trkpt lat="44.64915" lon="0.8943">
        <ele>213</ele>
        <time>2012-06-03T06:15:24Z</time>
      </trkpt>
      <trkpt lat="44.64908" lon="0.89447">
        <ele>213</ele>
        <time>2012-06-03T06:15:29Z</time>
      </trkpt>
      <trkpt lat="44.64895" lon="0.89466">
        <ele>213</ele>
        <time>2012-06-03T06:15:34Z</time>
      </trkpt>
      <trkpt lat="44.64882" lon="0.89483">
        <ele>213</ele>
        <time>2012-06-03T06:15:39Z</time>
      </trkpt>
      <trkpt lat="44.64871" lon="0.895">
        <ele>217</ele>
        <time>2012-06-03T06:15:44Z</time>
      </trkpt>
      <trkpt lat="44.64865" lon="0.89517">
        <ele>218</ele>
        <time>2012-06-03T06:15:49Z</time>
      </trkpt>
      <trkpt lat="44.64861" lon="0.89531">
        <ele>218</ele>
        <time>2012-06-03T06:15:54Z</time>
      </trkpt>
      <trkpt lat="44.64859" lon="0.89547">
        <ele>218</ele>
        <time>2012-06-03T06:15:59Z</time>
      </trkpt>
      <trkpt lat="44.64858" lon="0.89565">
        <ele>220</ele>
        <time>2012-06-03T06:16:04Z</time>
      </trkpt>
      <trkpt lat="44.6486" lon="0.89583">
        <ele>220</ele>
        <time>2012-06-03T06:16:09Z</time>
      </trkpt>
      <trkpt lat="44.64862" lon="0.89605">
        <ele>220</ele>
        <time>2012-06-03T06:16:14Z</time>
      </trkpt>
      <trkpt lat="44.64864" lon="0.89626">
        <ele>220</ele>
        <time>2012-06-03T06:16:19Z</time>
      </trkpt>
      <trkpt lat="44.64864" lon="0.89654">
        <ele>219</ele>
        <time>2012-06-03T06:16:24Z</time>
      </trkpt>
      <trkpt lat="44.64864" lon="0.89679">
        <ele>219</ele>
        <time>2012-06-03T06:16:29Z</time>
      </trkpt>
      <trkpt lat="44.64859" lon="0.89687">
        <ele>219</ele>
        <time>2012-06-03T06:16:34Z</time>
      </trkpt>
      <trkpt lat="44.64855" lon="0.89699">
        <ele>219</ele>
        <time>2012-06-03T06:16:39Z</time>
      </trkpt>
      <trkpt lat="44.64848" lon="0.89718">
        <ele>219</ele>
        <time>2012-06-03T06:16:44Z</time>
      </trkpt>
      <trkpt lat="44.64839" lon="0.89738">
        <ele>219</ele>
        <time>2012-06-03T06:16:49Z</time>
      </trkpt>
      <trkpt lat="44.6483" lon="0.89762">
        <ele>219</ele>
        <time>2012-06-03T06:16:54Z</time>
      </trkpt>
      <trkpt lat="44.6482" lon="0.89785">
        <ele>219</ele>
        <time>2012-06-03T06:16:59Z</time>
      </trkpt>
      <trkpt lat="44.64809" lon="0.89816">
        <ele>219</ele>
        <time>2012-06-03T06:17:05Z</time>
      </trkpt>
      <trkpt lat="44.64796" lon="0.89842">
        <ele>219</ele>
        <time>2012-06-03T06:17:10Z</time>
      </trkpt>
      <trkpt lat="44.64783" lon="0.89869">
        <ele>221</ele>
        <time>2012-06-03T06:17:15Z</time>
      </trkpt>
      <trkpt lat="44.64769" lon="0.89894">
        <ele>225</ele>
        <time>2012-06-03T06:17:20Z</time>
      </trkpt>
      <trkpt lat="44.64756" lon="0.89922">
        <ele>228</ele>
        <time>2012-06-03T06:17:26Z</time>
      </trkpt>
      <trkpt lat="44.64747" lon="0.89947">
        <ele>230</ele>
        <time>2012-06-03T06:17:31Z</time>
      </trkpt>
      <trkpt lat="44.6474" lon="0.89973">
        <ele>231</ele>
        <time>2012-06-03T06:17:36Z</time>
      </trkpt>
      <trkpt lat="44.64737" lon="0.90003">
        <ele>231</ele>
        <time>2012-06-03T06:17:42Z</time>
      </trkpt>
      <trkpt lat="44.64748" lon="0.90018">
        <ele>231</ele>
        <time>2012-06-03T06:17:47Z</time>
      </trkpt>
      <trkpt lat="44.64772" lon="0.90023">
        <ele>229</ele>
        <time>2012-06-03T06:17:52Z</time>
      </trkpt>
      <trkpt lat="44.64801" lon="0.90025">
        <ele>224</ele>
        <time>2012-06-03T06:17:57Z</time>
      </trkpt>
      <trkpt lat="44.64836" lon="0.90026">
        <ele>219</ele>
        <time>2012-06-03T06:18:02Z</time>
      </trkpt>
      <trkpt lat="44.64884" lon="0.90027">
        <ele>213</ele>
        <time>2012-06-03T06:18:08Z</time>
      </trkpt>
      <trkpt lat="44.64922" lon="0.90034">
        <ele>210</ele>
        <time>2012-06-03T06:18:13Z</time>
      </trkpt>
      <trkpt lat="44.6495" lon="0.90041">
        <ele>210</ele>
        <time>2012-06-03T06:18:18Z</time>
      </trkpt>
      <trkpt lat="44.6498" lon="0.90044">
        <ele>207</ele>
        <time>2012-06-03T06:18:24Z</time>
      </trkpt>
      <trkpt lat="44.65011" lon="0.9003">
        <ele>205</ele>
        <time>2012-06-03T06:18:30Z</time>
      </trkpt>
      <trkpt lat="44.65031" lon="0.90006">
        <ele>203</ele>
        <time>2012-06-03T06:18:35Z</time>
      </trkpt>
      <trkpt lat="44.65053" lon="0.89982">
        <ele>202</ele>
        <time>2012-06-03T06:18:40Z</time>
      </trkpt>
      <trkpt lat="44.65067" lon="0.89973">
        <ele>201</ele>
        <time>2012-06-03T06:18:45Z</time>
      </trkpt>
      <trkpt lat="44.65075" lon="0.89983">
        <ele>202</ele>
        <time>2012-06-03T06:18:50Z</time>
      </trkpt>
      <trkpt lat="44.65086" lon="0.90008">
        <ele>207</ele>
        <time>2012-06-03T06:18:55Z</time>
      </trkpt>
      <trkpt lat="44.65103" lon="0.90035">
        <ele>211</ele>
        <time>2012-06-03T06:19:00Z</time>
      </trkpt>
      <trkpt lat="44.65115" lon="0.90061">
        <ele>216</ele>
        <time>2012-06-03T06:19:05Z</time>
      </trkpt>
      <trkpt lat="44.65125" lon="0.90078">
        <ele>216</ele>
        <time>2012-06-03T06:19:10Z</time>
      </trkpt>
      <trkpt lat="44.6514" lon="0.90085">
        <ele>216</ele>
        <time>2012-06-03T06:19:15Z</time>
      </trkpt>
      <trkpt lat="44.65168" lon="0.90093">
        <ele>216</ele>
        <time>2012-06-03T06:19:20Z</time>
      </trkpt>
      <trkpt lat="44.65192" lon="0.90101">
        <ele>217</ele>
        <time>2012-06-03T06:19:25Z</time>
      </trkpt>
      <trkpt lat="44.65223" lon="0.90107">
        <ele>217</ele>
        <time>2012-06-03T06:19:30Z</time>
      </trkpt>
      <trkpt lat="44.6525" lon="0.90118">
        <ele>215</ele>
        <time>2012-06-03T06:19:35Z</time>
      </trkpt>
      <trkpt lat="44.65274" lon="0.90124">
        <ele>214</ele>
        <time>2012-06-03T06:19:40Z</time>
      </trkpt>
      <trkpt lat="44.65298" lon="0.90129">
        <ele>214</ele>
        <time>2012-06-03T06:19:45Z</time>
      </trkpt>
      <trkpt lat="44.65327" lon="0.90127">
        <ele>209</ele>
        <time>2012-06-03T06:19:50Z</time>
      </trkpt>
      <trkpt lat="44.65356" lon="0.90115">
        <ele>204</ele>
        <time>2012-06-03T06:19:55Z</time>
      </trkpt>
      <trkpt lat="44.65386" lon="0.90101">
        <ele>199</ele>
        <time>2012-06-03T06:20:00Z</time>
      </trkpt>
      <trkpt lat="44.65416" lon="0.90083">
        <ele>197</ele>
        <time>2012-06-03T06:20:05Z</time>
      </trkpt>
      <trkpt lat="44.65443" lon="0.9007">
        <ele>196</ele>
        <time>2012-06-03T06:20:10Z</time>
      </trkpt>
      <trkpt lat="44.65469" lon="0.90058">
        <ele>196</ele>
        <time>2012-06-03T06:20:15Z</time>
      </trkpt>
      <trkpt lat="44.65492" lon="0.90048">
        <ele>196</ele>
        <time>2012-06-03T06:20:20Z</time>
      </trkpt>
      <trkpt lat="44.6553" lon="0.90028">
        <ele>196</ele>
        <time>2012-06-03T06:20:25Z</time>
      </trkpt>
      <trkpt lat="44.65562" lon="0.90016">
        <ele>196</ele>
        <time>2012-06-03T06:20:30Z</time>
      </trkpt>
      <trkpt lat="44.65589" lon="0.90007">
        <ele>196</ele>
        <time>2012-06-03T06:20:35Z</time>
      </trkpt>
      <trkpt lat="44.65615" lon="0.89993">
        <ele>196</ele>
        <time>2012-06-03T06:20:40Z</time>
      </trkpt>
      <trkpt lat="44.65646" lon="0.89974">
        <ele>193</ele>
        <time>2012-06-03T06:20:45Z</time>
      </trkpt>
      <trkpt lat="44.65673" lon="0.89963">
        <ele>188</ele>
        <time>2012-06-03T06:20:50Z</time>
      </trkpt>
      <trkpt lat="44.65699" lon="0.89949">
        <ele>184</ele>
        <time>2012-06-03T06:20:55Z</time>
      </trkpt>
      <trkpt lat="44.65723" lon="0.89936">
        <ele>180</ele>
        <time>2012-06-03T06:21:00Z</time>
      </trkpt>
      <trkpt lat="44.65744" lon="0.89933">
        <ele>178</ele>
        <time>2012-06-03T06:21:05Z</time>
      </trkpt>
      <trkpt lat="44.65768" lon="0.89921">
        <ele>177</ele>
        <time>2012-06-03T06:21:10Z</time>
      </trkpt>
      <trkpt lat="44.65789" lon="0.8992">
        <ele>177</ele>
        <time>2012-06-03T06:21:15Z</time>
      </trkpt>
      <trkpt lat="44.65804" lon="0.89934">
        <ele>175</ele>
        <time>2012-06-03T06:21:20Z</time>
      </trkpt>
      <trkpt lat="44.65807" lon="0.89963">
        <ele>174</ele>
        <time>2012-06-03T06:21:25Z</time>
      </trkpt>
      <trkpt lat="44.65827" lon="0.89986">
        <ele>169</ele>
        <time>2012-06-03T06:21:30Z</time>
      </trkpt>
      <trkpt lat="44.65846" lon="0.89991">
        <ele>167</ele>
        <time>2012-06-03T06:21:36Z</time>
      </trkpt>
      <trkpt lat="44.65858" lon="0.89992">
        <ele>167</ele>
        <time>2012-06-03T06:21:41Z</time>
      </trkpt>
      <trkpt lat="44.65879" lon="0.89988">
        <ele>167</ele>
        <time>2012-06-03T06:21:46Z</time>
      </trkpt>
      <trkpt lat="44.65892" lon="0.89989">
        <ele>167</ele>
        <time>2012-06-03T06:21:52Z</time>
      </trkpt>
      <trkpt lat="44.65903" lon="0.8999">
        <ele>169</ele>
        <time>2012-06-03T06:21:57Z</time>
      </trkpt>
      <trkpt lat="44.65912" lon="0.89991">
        <ele>175</ele>
        <time>2012-06-03T06:22:03Z</time>
      </trkpt>
      <trkpt lat="44.65919" lon="0.89991">
        <ele>176</ele>
        <time>2012-06-03T06:22:09Z</time>
      </trkpt>
      <trkpt lat="44.65927" lon="0.8999">
        <ele>178</ele>
        <time>2012-06-03T06:22:14Z</time>
      </trkpt>
      <trkpt lat="44.65936" lon="0.89988">
        <ele>180</ele>
        <time>2012-06-03T06:22:19Z</time>
      </trkpt>
      <trkpt lat="44.65944" lon="0.89986">
        <ele>180</ele>
        <time>2012-06-03T06:22:24Z</time>
      </trkpt>
      <trkpt lat="44.65951" lon="0.89987">
        <ele>180</ele>
        <time>2012-06-03T06:22:29Z</time>
      </trkpt>
      <trkpt lat="44.65956" lon="0.89988">
        <ele>180</ele>
        <time>2012-06-03T06:22:34Z</time>
      </trkpt>
      <trkpt lat="44.6596" lon="0.8999">
        <ele>182</ele>
        <time>2012-06-03T06:22:40Z</time>
      </trkpt>
      <trkpt lat="44.65967" lon="0.89989">
        <ele>183</ele>
        <time>2012-06-03T06:22:45Z</time>
      </trkpt>
      <trkpt lat="44.65973" lon="0.89989">
        <ele>183</ele>
        <time>2012-06-03T06:22:50Z</time>
      </trkpt>
      <trkpt lat="44.65975" lon="0.89988">
        <ele>183</ele>
        <time>2012-06-03T06:22:57Z</time>
      </trkpt>
      <trkpt lat="44.65983" lon="0.89989">
        <ele>186</ele>
        <time>2012-06-03T06:23:02Z</time>
      </trkpt>
      <trkpt lat="44.65993" lon="0.8999">
        <ele>189</ele>
        <time>2012-06-03T06:23:07Z</time>
      </trkpt>
      <trkpt lat="44.66" lon="0.89991">
        <ele>191</ele>
        <time>2012-06-03T06:23:12Z</time>
      </trkpt>
      <trkpt lat="44.66007" lon="0.89989">
        <ele>191</ele>
        <time>2012-06-03T06:23:17Z</time>
      </trkpt>
      <trkpt lat="44.66015" lon="0.8999">
        <ele>193</ele>
        <time>2012-06-03T06:23:22Z</time>
      </trkpt>
      <trkpt lat="44.66023" lon="0.89988">
        <ele>194</ele>
        <time>2012-06-03T06:23:27Z</time>
      </trkpt>
      <trkpt lat="44.66031" lon="0.89988">
        <ele>194</ele>
        <time>2012-06-03T06:23:32Z</time>
      </trkpt>
      <trkpt lat="44.6604" lon="0.89989">
        <ele>194</ele>
        <time>2012-06-03T06:23:37Z</time>
      </trkpt>
      <trkpt lat="44.66049" lon="0.89992">
        <ele>195</ele>
        <time>2012-06-03T06:23:42Z</time>
      </trkpt>
      <trkpt lat="44.66063" lon="0.89996">
        <ele>199</ele>
        <time>2012-06-03T06:23:47Z</time>
      </trkpt>
      <trkpt lat="44.66077" lon="0.89999">
        <ele>200</ele>
        <time>2012-06-03T06:23:52Z</time>
      </trkpt>
      <trkpt lat="44.66092" lon="0.89999">
        <ele>201</ele>
        <time>2012-06-03T06:23:57Z</time>
      </trkpt>
      <trkpt lat="44.66108" lon="0.90004">
        <ele>203</ele>
        <time>2012-06-03T06:24:02Z</time>
      </trkpt>
      <trkpt lat="44.66129" lon="0.90009">
        <ele>204</ele>
        <time>2012-06-03T06:24:07Z</time>
      </trkpt>
      <trkpt lat="44.6615" lon="0.90015">
        <ele>208</ele>
        <time>2012-06-03T06:24:12Z</time>
      </trkpt>
      <trkpt lat="44.66174" lon="0.90026">
        <ele>209</ele>
        <time>2012-06-03T06:24:17Z</time>
      </trkpt>
      <trkpt lat="44.66194" lon="0.90041">
        <ele>209</ele>
        <time>2012-06-03T06:24:22Z</time>
      </trkpt>
      <trkpt lat="44.66222" lon="0.90053">
        <ele>209</ele>
        <time>2012-06-03T06:24:27Z</time>
      </trkpt>
      <trkpt lat="44.66243" lon="0.90059">
        <ele>209</ele>
        <time>2012-06-03T06:24:32Z</time>
      </trkpt>
      <trkpt lat="44.66248" lon="0.90063">
        <ele>205</ele>
        <time>2012-06-03T06:24:37Z</time>
      </trkpt>
      <trkpt lat="44.66251" lon="0.90068">
        <ele>199</ele>
        <time>2012-06-03T06:24:43Z</time>
      </trkpt>
      <trkpt lat="44.66255" lon="0.90071">
        <ele>195</ele>
        <time>2012-06-03T06:24:48Z</time>
      </trkpt>
      <trkpt lat="44.66257" lon="0.90074">
        <ele>195</ele>
        <time>2012-06-03T06:24:53Z</time>
      </trkpt>
      <trkpt lat="44.6626" lon="0.90074">
        <ele>195</ele>
        <time>2012-06-03T06:24:58Z</time>
      </trkpt>
      <trkpt lat="44.66269" lon="0.90072">
        <ele>195</ele>
        <time>2012-06-03T06:25:03Z</time>
      </trkpt>
      <trkpt lat="44.66282" lon="0.90073">
        <ele>195</ele>
        <time>2012-06-03T06:25:08Z</time>
      </trkpt>
      <trkpt lat="44.66292" lon="0.90076">
        <ele>196</ele>
        <time>2012-06-03T06:25:13Z</time>
      </trkpt>
      <trkpt lat="44.66306" lon="0.90077">
        <ele>196</ele>
        <time>2012-06-03T06:25:18Z</time>
      </trkpt>
      <trkpt lat="44.66323" lon="0.90075">
        <ele>196</ele>
        <time>2012-06-03T06:25:23Z</time>
      </trkpt>
      <trkpt lat="44.66336" lon="0.90073">
        <ele>196</ele>
        <time>2012-06-03T06:25:28Z</time>
      </trkpt>
      <trkpt lat="44.66353" lon="0.90067">
        <ele>196</ele>
        <time>2012-06-03T06:25:33Z</time>
      </trkpt>
      <trkpt lat="44.66364" lon="0.90064">
        <ele>196</ele>
        <time>2012-06-03T06:25:38Z</time>
      </trkpt>
      <trkpt lat="44.66371" lon="0.90064">
        <ele>196</ele>
        <time>2012-06-03T06:25:43Z</time>
      </trkpt>
      <trkpt lat="44.66381" lon="0.90061">
        <ele>199</ele>
        <time>2012-06-03T06:25:48Z</time>
      </trkpt>
      <trkpt lat="44.66394" lon="0.90059">
        <ele>200</ele>
        <time>2012-06-03T06:25:53Z</time>
      </trkpt>
      <trkpt lat="44.66406" lon="0.90057">
        <ele>200</ele>
        <time>2012-06-03T06:25:58Z</time>
      </trkpt>
      <trkpt lat="44.66422" lon="0.90049">
        <ele>201</ele>
        <time>2012-06-03T06:26:03Z</time>
      </trkpt>
      <trkpt lat="44.66431" lon="0.90044">
        <ele>201</ele>
        <time>2012-06-03T06:26:08Z</time>
      </trkpt>
      <trkpt lat="44.66442" lon="0.90038">
        <ele>201</ele>
        <time>2012-06-03T06:26:13Z</time>
      </trkpt>
      <trkpt lat="44.66452" lon="0.90033">
        <ele>201</ele>
        <time>2012-06-03T06:26:18Z</time>
      </trkpt>
      <trkpt lat="44.66463" lon="0.90028">
        <ele>201</ele>
        <time>2012-06-03T06:26:23Z</time>
      </trkpt>
      <trkpt lat="44.66476" lon="0.90021">
        <ele>200</ele>
        <time>2012-06-03T06:26:28Z</time>
      </trkpt>
      <trkpt lat="44.66493" lon="0.90012">
        <ele>198</ele>
        <time>2012-06-03T06:26:33Z</time>
      </trkpt>
      <trkpt lat="44.66511" lon="0.90005">
        <ele>198</ele>
        <time>2012-06-03T06:26:38Z</time>
      </trkpt>
      <trkpt lat="44.66529" lon="0.89999">
        <ele>197</ele>
        <time>2012-06-03T06:26:43Z</time>
      </trkpt>
      <trkpt lat="44.66547" lon="0.89991">
        <ele>196</ele>
        <time>2012-06-03T06:26:48Z</time>
      </trkpt>
      <trkpt lat="44.66564" lon="0.89985">
        <ele>196</ele>
        <time>2012-06-03T06:26:53Z</time>
      </trkpt>
      <trkpt lat="44.66586" lon="0.89974">
        <ele>196</ele>
        <time>2012-06-03T06:26:58Z</time>
      </trkpt>
      <trkpt lat="44.66607" lon="0.89964">
        <ele>195</ele>
        <time>2012-06-03T06:27:03Z</time>
      </trkpt>
      <trkpt lat="44.66628" lon="0.89951">
        <ele>194</ele>
        <time>2012-06-03T06:27:08Z</time>
      </trkpt>
      <trkpt lat="44.66648" lon="0.8994">
        <ele>194</ele>
        <time>2012-06-03T06:27:13Z</time>
      </trkpt>
      <trkpt lat="44.66668" lon="0.89929">
        <ele>194</ele>
        <time>2012-06-03T06:27:18Z</time>
      </trkpt>
      <trkpt lat="44.66687" lon="0.89916">
        <ele>194</ele>
        <time>2012-06-03T06:27:23Z</time>
      </trkpt>
      <trkpt lat="44.66705" lon="0.89906">
        <ele>195</ele>
        <time>2012-06-03T06:27:28Z</time>
      </trkpt>
      <trkpt lat="44.66732" lon="0.89899">
        <ele>198</ele>
        <time>2012-06-03T06:27:33Z</time>
      </trkpt>
      <trkpt lat="44.66764" lon="0.89885">
        <ele>198</ele>
        <time>2012-06-03T06:27:38Z</time>
      </trkpt>
      <trkpt lat="44.66788" lon="0.89874">
        <ele>197</ele>
        <time>2012-06-03T06:27:43Z</time>
      </trkpt>
      <trkpt lat="44.66815" lon="0.89887">
        <ele>193</ele>
        <time>2012-06-03T06:27:48Z</time>
      </trkpt>
      <trkpt lat="44.66843" lon="0.89896">
        <ele>190</ele>
        <time>2012-06-03T06:27:53Z</time>
      </trkpt>
      <trkpt lat="44.6687" lon="0.89906">
        <ele>188</ele>
        <time>2012-06-03T06:27:58Z</time>
      </trkpt>
      <trkpt lat="44.66901" lon="0.8991">
        <ele>186</ele>
        <time>2012-06-03T06:28:03Z</time>
      </trkpt>
      <trkpt lat="44.66929" lon="0.89895">
        <ele>184</ele>
        <time>2012-06-03T06:28:08Z</time>
      </trkpt>
      <trkpt lat="44.6695" lon="0.89859">
        <ele>182</ele>
        <time>2012-06-03T06:28:13Z</time>
      </trkpt>
      <trkpt lat="44.66971" lon="0.89819">
        <ele>181</ele>
        <time>2012-06-03T06:28:18Z</time>
      </trkpt>
      <trkpt lat="44.66986" lon="0.89776">
        <ele>180</ele>
        <time>2012-06-03T06:28:23Z</time>
      </trkpt>
      <trkpt lat="44.67004" lon="0.89735">
        <ele>177</ele>
        <time>2012-06-03T06:28:28Z</time>
      </trkpt>
      <trkpt lat="44.67018" lon="0.89696">
        <ele>176</ele>
        <time>2012-06-03T06:28:33Z</time>
      </trkpt>
      <trkpt lat="44.67036" lon="0.89669">
        <ele>176</ele>
        <time>2012-06-03T06:28:38Z</time>
      </trkpt>
      <trkpt lat="44.67056" lon="0.89645">
        <ele>176</ele>
        <time>2012-06-03T06:28:43Z</time>
      </trkpt>
      <trkpt lat="44.67083" lon="0.89612">
        <ele>176</ele>
        <time>2012-06-03T06:28:48Z</time>
      </trkpt>
      <trkpt lat="44.6711" lon="0.89587">
        <ele>176</ele>
        <time>2012-06-03T06:28:53Z</time>
      </trkpt>
      <trkpt lat="44.67136" lon="0.89555">
        <ele>176</ele>
        <time>2012-06-03T06:28:58Z</time>
      </trkpt>
      <trkpt lat="44.6716" lon="0.89521">
        <ele>173</ele>
        <time>2012-06-03T06:29:03Z</time>
      </trkpt>
      <trkpt lat="44.67183" lon="0.89489">
        <ele>172</ele>
        <time>2012-06-03T06:29:08Z</time>
      </trkpt>
      <trkpt lat="44.67195" lon="0.89466">
        <ele>171</ele>
        <time>2012-06-03T06:29:13Z</time>
      </trkpt>
      <trkpt lat="44.67207" lon="0.89434">
        <ele>171</ele>
        <time>2012-06-03T06:29:18Z</time>
      </trkpt>
      <trkpt lat="44.67218" lon="0.89398">
        <ele>170</ele>
        <time>2012-06-03T06:29:23Z</time>
      </trkpt>
      <trkpt lat="44.67231" lon="0.89363">
        <ele>170</ele>
        <time>2012-06-03T06:29:28Z</time>
      </trkpt>
      <trkpt lat="44.67247" lon="0.89327">
        <ele>168</ele>
        <time>2012-06-03T06:29:33Z</time>
      </trkpt>
      <trkpt lat="44.67262" lon="0.89286">
        <ele>165</ele>
        <time>2012-06-03T06:29:38Z</time>
      </trkpt>
      <trkpt lat="44.67274" lon="0.89263">
        <ele>162</ele>
        <time>2012-06-03T06:29:43Z</time>
      </trkpt>
      <trkpt lat="44.67281" lon="0.89244">
        <ele>162</ele>
        <time>2012-06-03T06:29:48Z</time>
      </trkpt>
      <trkpt lat="44.67295" lon="0.89218">
        <ele>162</ele>
        <time>2012-06-03T06:29:53Z</time>
      </trkpt>
      <trkpt lat="44.67313" lon="0.8919">
        <ele>158</ele>
        <time>2012-06-03T06:29:58Z</time>
      </trkpt>
      <trkpt lat="44.67332" lon="0.89169">
        <ele>154</ele>
        <time>2012-06-03T06:30:03Z</time>
      </trkpt>
      <trkpt lat="44.6735" lon="0.89146">
        <ele>150</ele>
        <time>2012-06-03T06:30:08Z</time>
      </trkpt>
      <trkpt lat="44.67379" lon="0.89127">
        <ele>145</ele>
        <time>2012-06-03T06:30:13Z</time>
      </trkpt>
      <trkpt lat="44.67401" lon="0.89105">
        <ele>141</ele>
        <time>2012-06-03T06:30:18Z</time>
      </trkpt>
      <trkpt lat="44.67413" lon="0.89111">
        <ele>136</ele>
        <time>2012-06-03T06:30:23Z</time>
      </trkpt>
      <trkpt lat="44.6742" lon="0.89126">
        <ele>134</ele>
        <time>2012-06-03T06:30:28Z</time>
      </trkpt>
      <trkpt lat="44.6743" lon="0.89146">
        <ele>134</ele>
        <time>2012-06-03T06:30:33Z</time>
      </trkpt>
      <trkpt lat="44.67443" lon="0.8917">
        <ele>134</ele>
        <time>2012-06-03T06:30:39Z</time>
      </trkpt>
      <trkpt lat="44.67456" lon="0.89188">
        <ele>134</ele>
        <time>2012-06-03T06:30:44Z</time>
      </trkpt>
      <trkpt lat="44.67471" lon="0.89198">
        <ele>134</ele>
        <time>2012-06-03T06:30:49Z</time>
      </trkpt>
      <trkpt lat="44.67487" lon="0.89204">
        <ele>134</ele>
        <time>2012-06-03T06:30:54Z</time>
      </trkpt>
      <trkpt lat="44.67505" lon="0.89208">
        <ele>134</ele>
        <time>2012-06-03T06:30:59Z</time>
      </trkpt>
      <trkpt lat="44.67522" lon="0.89209">
        <ele>134</ele>
        <time>2012-06-03T06:31:04Z</time>
      </trkpt>
      <trkpt lat="44.67538" lon="0.89209">
        <ele>134</ele>
        <time>2012-06-03T06:31:09Z</time>
      </trkpt>
      <trkpt lat="44.67556" lon="0.89211">
        <ele>134</ele>
        <time>2012-06-03T06:31:14Z</time>
      </trkpt>
      <trkpt lat="44.67572" lon="0.89215">
        <ele>134</ele>
        <time>2012-06-03T06:31:19Z</time>
      </trkpt>
      <trkpt lat="44.67585" lon="0.89221">
        <ele>134</ele>
        <time>2012-06-03T06:31:24Z</time>
      </trkpt>
      <trkpt lat="44.67597" lon="0.89228">
        <ele>136</ele>
        <time>2012-06-03T06:31:29Z</time>
      </trkpt>
      <trkpt lat="44.67607" lon="0.89236">
        <ele>138</ele>
        <time>2012-06-03T06:31:34Z</time>
      </trkpt>
      <trkpt lat="44.67617" lon="0.89244">
        <ele>140</ele>
        <time>2012-06-03T06:31:39Z</time>
      </trkpt>
      <trkpt lat="44.67629" lon="0.89249">
        <ele>141</ele>
        <time>2012-06-03T06:31:44Z</time>
      </trkpt>
      <trkpt lat="44.67637" lon="0.89257">
        <ele>143</ele>
        <time>2012-06-03T06:31:49Z</time>
      </trkpt>
      <trkpt lat="44.67645" lon="0.89264">
        <ele>145</ele>
        <time>2012-06-03T06:31:54Z</time>
      </trkpt>
      <trkpt lat="44.67651" lon="0.89273">
        <ele>148</ele>
        <time>2012-06-03T06:31:59Z</time>
      </trkpt>
      <trkpt lat="44.67659" lon="0.89282">
        <ele>150</ele>
        <time>2012-06-03T06:32:04Z</time>
      </trkpt>
      <trkpt lat="44.67665" lon="0.89291">
        <ele>151</ele>
        <time>2012-06-03T06:32:09Z</time>
      </trkpt>
      <trkpt lat="44.67674" lon="0.89298">
        <ele>151</ele>
        <time>2012-06-03T06:32:14Z</time>
      </trkpt>
      <trkpt lat="44.67681" lon="0.89306">
        <ele>151</ele>
        <time>2012-06-03T06:32:19Z</time>
      </trkpt>
      <trkpt lat="44.67689" lon="0.89315">
        <ele>152</ele>
        <time>2012-06-03T06:32:24Z</time>
      </trkpt>
      <trkpt lat="44.67697" lon="0.89325">
        <ele>154</ele>
        <time>2012-06-03T06:32:29Z</time>
      </trkpt>
      <trkpt lat="44.67706" lon="0.89334">
        <ele>154</ele>
        <time>2012-06-03T06:32:34Z</time>
      </trkpt>
      <trkpt lat="44.67714" lon="0.89344">
        <ele>157</ele>
        <time>2012-06-03T06:32:39Z</time>
      </trkpt>
      <trkpt lat="44.67722" lon="0.89352">
        <ele>157</ele>
        <time>2012-06-03T06:32:44Z</time>
      </trkpt>
      <trkpt lat="44.6773" lon="0.8936">
        <ele>161</ele>
        <time>2012-06-03T06:32:49Z</time>
      </trkpt>
      <trkpt lat="44.67737" lon="0.89367">
        <ele>164</ele>
        <time>2012-06-03T06:32:54Z</time>
      </trkpt>
      <trkpt lat="44.67745" lon="0.89374">
        <ele>167</ele>
        <time>2012-06-03T06:32:59Z</time>
      </trkpt>
      <trkpt lat="44.67753" lon="0.89383">
        <ele>167</ele>
        <time>2012-06-03T06:33:04Z</time>
      </trkpt>
      <trkpt lat="44.67762" lon="0.89393">
        <ele>167</ele>
        <time>2012-06-03T06:33:09Z</time>
      </trkpt>
      <trkpt lat="44.67771" lon="0.894">
        <ele>167</ele>
        <time>2012-06-03T06:33:14Z</time>
      </trkpt>
      <trkpt lat="44.67781" lon="0.89408">
        <ele>168</ele>
        <time>2012-06-03T06:33:19Z</time>
      </trkpt>
      <trkpt lat="44.67791" lon="0.89416">
        <ele>169</ele>
        <time>2012-06-03T06:33:24Z</time>
      </trkpt>
      <trkpt lat="44.678" lon="0.89422">
        <ele>171</ele>
        <time>2012-06-03T06:33:29Z</time>
      </trkpt>
      <trkpt lat="44.67811" lon="0.89426">
        <ele>172</ele>
        <time>2012-06-03T06:33:34Z</time>
      </trkpt>
      <trkpt lat="44.67824" lon="0.89428">
        <ele>172</ele>
        <time>2012-06-03T06:33:39Z</time>
      </trkpt>
      <trkpt lat="44.67838" lon="0.89428">
        <ele>172</ele>
        <time>2012-06-03T06:33:44Z</time>
      </trkpt>
      <trkpt lat="44.67849" lon="0.89431">
        <ele>172</ele>
        <time>2012-06-03T06:33:49Z</time>
      </trkpt>
      <trkpt lat="44.67853" lon="0.89444">
        <ele>174</ele>
        <time>2012-06-03T06:33:54Z</time>
      </trkpt>
      <trkpt lat="44.67855" lon="0.89464">
        <ele>177</ele>
        <time>2012-06-03T06:33:59Z</time>
      </trkpt>
      <trkpt lat="44.6786" lon="0.89483">
        <ele>180</ele>
        <time>2012-06-03T06:34:04Z</time>
      </trkpt>
      <trkpt lat="44.67875" lon="0.89485">
        <ele>182</ele>
        <time>2012-06-03T06:34:09Z</time>
      </trkpt>
      <trkpt lat="44.67894" lon="0.89481">
        <ele>185</ele>
        <time>2012-06-03T06:34:14Z</time>
      </trkpt>
      <trkpt lat="44.67909" lon="0.89479">
        <ele>186</ele>
        <time>2012-06-03T06:34:19Z</time>
      </trkpt>
      <trkpt lat="44.67928" lon="0.89476">
        <ele>189</ele>
        <time>2012-06-03T06:34:24Z</time>
      </trkpt>
      <trkpt lat="44.67947" lon="0.89473">
        <ele>192</ele>
        <time>2012-06-03T06:34:29Z</time>
      </trkpt>
      <trkpt lat="44.67963" lon="0.89474">
        <ele>193</ele>
        <time>2012-06-03T06:34:34Z</time>
      </trkpt>
      <trkpt lat="44.67981" lon="0.89475">
        <ele>194</ele>
        <time>2012-06-03T06:34:39Z</time>
      </trkpt>
      <trkpt lat="44.67996" lon="0.8947">
        <ele>194</ele>
        <time>2012-06-03T06:34:44Z</time>
      </trkpt>
      <trkpt lat="44.68016" lon="0.89462">
        <ele>194</ele>
        <time>2012-06-03T06:34:49Z</time>
      </trkpt>
      <trkpt lat="44.68041" lon="0.89459">
        <ele>195</ele>
        <time>2012-06-03T06:34:57Z</time>
      </trkpt>
      <trkpt lat="44.6806" lon="0.89459">
        <ele>198</ele>
        <time>2012-06-03T06:35:02Z</time>
      </trkpt>
      <trkpt lat="44.68081" lon="0.89458">
        <ele>198</ele>
        <time>2012-06-03T06:35:07Z</time>
      </trkpt>
      <trkpt lat="44.68096" lon="0.89458">
        <ele>198</ele>
        <time>2012-06-03T06:35:12Z</time>
      </trkpt>
      <trkpt lat="44.68115" lon="0.89458">
        <ele>197</ele>
        <time>2012-06-03T06:35:17Z</time>
      </trkpt>
      <trkpt lat="44.68138" lon="0.89453">
        <ele>197</ele>
        <time>2012-06-03T06:35:22Z</time>
      </trkpt>
      <trkpt lat="44.6816" lon="0.89447">
        <ele>197</ele>
        <time>2012-06-03T06:35:27Z</time>
      </trkpt>
      <trkpt lat="44.68181" lon="0.89443">
        <ele>196</ele>
        <time>2012-06-03T06:35:32Z</time>
      </trkpt>
      <trkpt lat="44.68198" lon="0.89441">
        <ele>195</ele>
        <time>2012-06-03T06:35:37Z</time>
      </trkpt>
      <trkpt lat="44.68214" lon="0.89434">
        <ele>195</ele>
        <time>2012-06-03T06:35:42Z</time>
      </trkpt>
      <trkpt lat="44.68235" lon="0.89429">
        <ele>195</ele>
        <time>2012-06-03T06:35:47Z</time>
      </trkpt>
      <trkpt lat="44.68251" lon="0.89429">
        <ele>195</ele>
        <time>2012-06-03T06:35:52Z</time>
      </trkpt>
      <trkpt lat="44.68269" lon="0.89427">
        <ele>194</ele>
        <time>2012-06-03T06:35:57Z</time>
      </trkpt>
      <trkpt lat="44.68292" lon="0.89424">
        <ele>194</ele>
        <time>2012-06-03T06:36:02Z</time>
      </trkpt>
      <trkpt lat="44.68315" lon="0.89424">
        <ele>193</ele>
        <time>2012-06-03T06:36:07Z</time>
      </trkpt>
      <trkpt lat="44.68338" lon="0.89432">
        <ele>192</ele>
        <time>2012-06-03T06:36:12Z</time>
      </trkpt>
      <trkpt lat="44.68358" lon="0.89451">
        <ele>192</ele>
        <time>2012-06-03T06:36:17Z</time>
      </trkpt>
      <trkpt lat="44.68377" lon="0.89472">
        <ele>191</ele>
        <time>2012-06-03T06:36:22Z</time>
      </trkpt>
      <trkpt lat="44.68397" lon="0.89493">
        <ele>191</ele>
        <time>2012-06-03T06:36:27Z</time>
      </trkpt>
      <trkpt lat="44.68417" lon="0.89514">
        <ele>191</ele>
        <time>2012-06-03T06:36:32Z</time>
      </trkpt>
      <trkpt lat="44.68438" lon="0.89535">
        <ele>191</ele>
        <time>2012-06-03T06:36:37Z</time>
      </trkpt>
      <trkpt lat="44.68459" lon="0.89555">
        <ele>191</ele>
        <time>2012-06-03T06:36:42Z</time>
      </trkpt>
      <trkpt lat="44.68479" lon="0.89576">
        <ele>191</ele>
        <time>2012-06-03T06:36:47Z</time>
      </trkpt>
      <trkpt lat="44.685" lon="0.89597">
        <ele>191</ele>
        <time>2012-06-03T06:36:52Z</time>
      </trkpt>
      <trkpt lat="44.68521" lon="0.89617">
        <ele>191</ele>
        <time>2012-06-03T06:36:57Z</time>
      </trkpt>
      <trkpt lat="44.68541" lon="0.89639">
        <ele>191</ele>
        <time>2012-06-03T06:37:02Z</time>
      </trkpt>
      <trkpt lat="44.68562" lon="0.89657">
        <ele>191</ele>
        <time>2012-06-03T06:37:07Z</time>
      </trkpt>
      <trkpt lat="44.68581" lon="0.89675">
        <ele>192</ele>
        <time>2012-06-03T06:37:12Z</time>
      </trkpt>
      <trkpt lat="44.68599" lon="0.89694">
        <ele>194</ele>
        <time>2012-06-03T06:37:17Z</time>
      </trkpt>
      <trkpt lat="44.68619" lon="0.89714">
        <ele>196</ele>
        <time>2012-06-03T06:37:22Z</time>
      </trkpt>
      <trkpt lat="44.68637" lon="0.89732">
        <ele>198</ele>
        <time>2012-06-03T06:37:27Z</time>
      </trkpt>
      <trkpt lat="44.68656" lon="0.8975">
        <ele>203</ele>
        <time>2012-06-03T06:37:32Z</time>
      </trkpt>
      <trkpt lat="44.68675" lon="0.89769">
        <ele>206</ele>
        <time>2012-06-03T06:37:37Z</time>
      </trkpt>
      <trkpt lat="44.68692" lon="0.89789">
        <ele>206</ele>
        <time>2012-06-03T06:37:42Z</time>
      </trkpt>
      <trkpt lat="44.68711" lon="0.89808">
        <ele>207</ele>
        <time>2012-06-03T06:37:47Z</time>
      </trkpt>
      <trkpt lat="44.68727" lon="0.89824">
        <ele>208</ele>
        <time>2012-06-03T06:37:52Z</time>
      </trkpt>
      <trkpt lat="44.68743" lon="0.89839">
        <ele>208</ele>
        <time>2012-06-03T06:37:57Z</time>
      </trkpt>
      <trkpt lat="44.68762" lon="0.89853">
        <ele>208</ele>
        <time>2012-06-03T06:38:02Z</time>
      </trkpt>
      <trkpt lat="44.68776" lon="0.89865">
        <ele>208</ele>
        <time>2012-06-03T06:38:07Z</time>
      </trkpt>
      <trkpt lat="44.68771" lon="0.89901">
        <ele>208</ele>
        <time>2012-06-03T06:38:12Z</time>
      </trkpt>
      <trkpt lat="44.68764" lon="0.89949">
        <ele>208</ele>
        <time>2012-06-03T06:38:17Z</time>
      </trkpt>
      <trkpt lat="44.68758" lon="0.9">
        <ele>208</ele>
        <time>2012-06-03T06:38:22Z</time>
      </trkpt>
      <trkpt lat="44.68753" lon="0.90037">
        <ele>206</ele>
        <time>2012-06-03T06:38:27Z</time>
      </trkpt>
      <trkpt lat="44.68748" lon="0.90068">
        <ele>203</ele>
        <time>2012-06-03T06:38:32Z</time>
      </trkpt>
      <trkpt lat="44.68745" lon="0.90099">
        <ele>202</ele>
        <time>2012-06-03T06:38:37Z</time>
      </trkpt>
      <trkpt lat="44.68739" lon="0.90129">
        <ele>201</ele>
        <time>2012-06-03T06:38:42Z</time>
      </trkpt>
      <trkpt lat="44.68734" lon="0.90157">
        <ele>200</ele>
        <time>2012-06-03T06:38:47Z</time>
      </trkpt>
      <trkpt lat="44.68729" lon="0.90179">
        <ele>200</ele>
        <time>2012-06-03T06:38:52Z</time>
      </trkpt>
      <trkpt lat="44.68724" lon="0.90203">
        <ele>199</ele>
        <time>2012-06-03T06:38:57Z</time>
      </trkpt>
      <trkpt lat="44.68718" lon="0.9023">
        <ele>199</ele>
        <time>2012-06-03T06:39:02Z</time>
      </trkpt>
      <trkpt lat="44.68712" lon="0.90258">
        <ele>199</ele>
        <time>2012-06-03T06:39:07Z</time>
      </trkpt>
      <trkpt lat="44.68708" lon="0.90286">
        <ele>198</ele>
        <time>2012-06-03T06:39:12Z</time>
      </trkpt>
      <trkpt lat="44.68704" lon="0.90311">
        <ele>198</ele>
        <time>2012-06-03T06:39:17Z</time>
      </trkpt>
      <trkpt lat="44.68702" lon="0.90333">
        <ele>198</ele>
        <time>2012-06-03T06:39:22Z</time>
      </trkpt>
      <trkpt lat="44.68714" lon="0.90351">
        <ele>198</ele>
        <time>2012-06-03T06:39:27Z</time>
      </trkpt>
      <trkpt lat="44.68728" lon="0.90372">
        <ele>198</ele>
        <time>2012-06-03T06:39:32Z</time>
      </trkpt>
      <trkpt lat="44.68744" lon="0.90394">
        <ele>198</ele>
        <time>2012-06-03T06:39:37Z</time>
      </trkpt>
      <trkpt lat="44.68759" lon="0.90415">
        <ele>198</ele>
        <time>2012-06-03T06:39:42Z</time>
      </trkpt>
      <trkpt lat="44.68775" lon="0.90437">
        <ele>198</ele>
        <time>2012-06-03T06:39:47Z</time>
      </trkpt>
      <trkpt lat="44.6879" lon="0.90459">
        <ele>198</ele>
        <time>2012-06-03T06:39:52Z</time>
      </trkpt>
      <trkpt lat="44.68805" lon="0.90482">
        <ele>197</ele>
        <time>2012-06-03T06:39:57Z</time>
      </trkpt>
      <trkpt lat="44.68821" lon="0.90505">
        <ele>197</ele>
        <time>2012-06-03T06:40:02Z</time>
      </trkpt>
      <trkpt lat="44.68837" lon="0.90529">
        <ele>197</ele>
        <time>2012-06-03T06:40:07Z</time>
      </trkpt>
      <trkpt lat="44.68853" lon="0.90552">
        <ele>197</ele>
        <time>2012-06-03T06:40:12Z</time>
      </trkpt>
      <trkpt lat="44.68864" lon="0.90576">
        <ele>197</ele>
        <time>2012-06-03T06:40:17Z</time>
      </trkpt>
      <trkpt lat="44.68857" lon="0.90608">
        <ele>197</ele>
        <time>2012-06-03T06:40:22Z</time>
      </trkpt>
      <trkpt lat="44.6885" lon="0.90643">
        <ele>197</ele>
        <time>2012-06-03T06:40:27Z</time>
      </trkpt>
      <trkpt lat="44.68843" lon="0.90684">
        <ele>197</ele>
        <time>2012-06-03T06:40:32Z</time>
      </trkpt>
      <trkpt lat="44.68836" lon="0.90722">
        <ele>197</ele>
        <time>2012-06-03T06:40:37Z</time>
      </trkpt>
      <trkpt lat="44.68826" lon="0.90763">
        <ele>197</ele>
        <time>2012-06-03T06:40:42Z</time>
      </trkpt>
      <trkpt lat="44.68814" lon="0.90804">
        <ele>196</ele>
        <time>2012-06-03T06:40:47Z</time>
      </trkpt>
      <trkpt lat="44.68814" lon="0.90843">
        <ele>193</ele>
        <time>2012-06-03T06:40:52Z</time>
      </trkpt>
      <trkpt lat="44.6883" lon="0.90883">
        <ele>188</ele>
        <time>2012-06-03T06:40:57Z</time>
      </trkpt>
      <trkpt lat="44.68859" lon="0.90939">
        <ele>187</ele>
        <time>2012-06-03T06:41:02Z</time>
      </trkpt>
      <trkpt lat="44.68884" lon="0.90992">
        <ele>187</ele>
        <time>2012-06-03T06:41:07Z</time>
      </trkpt>
      <trkpt lat="44.6889" lon="0.91037">
        <ele>185</ele>
        <time>2012-06-03T06:41:12Z</time>
      </trkpt>
      <trkpt lat="44.68882" lon="0.91068">
        <ele>181</ele>
        <time>2012-06-03T06:41:17Z</time>
      </trkpt>
      <trkpt lat="44.6888" lon="0.91089">
        <ele>180</ele>
        <time>2012-06-03T06:41:22Z</time>
      </trkpt>
      <trkpt lat="44.68879" lon="0.91112">
        <ele>178</ele>
        <time>2012-06-03T06:41:27Z</time>
      </trkpt>
      <trkpt lat="44.6888" lon="0.91131">
        <ele>178</ele>
        <time>2012-06-03T06:41:32Z</time>
      </trkpt>
      <trkpt lat="44.68878" lon="0.9115">
        <ele>178</ele>
        <time>2012-06-03T06:41:37Z</time>
      </trkpt>
      <trkpt lat="44.6888" lon="0.91173">
        <ele>182</ele>
        <time>2012-06-03T06:41:42Z</time>
      </trkpt>
      <trkpt lat="44.68883" lon="0.91195">
        <ele>182</ele>
        <time>2012-06-03T06:41:47Z</time>
      </trkpt>
      <trkpt lat="44.68881" lon="0.91219">
        <ele>185</ele>
        <time>2012-06-03T06:41:52Z</time>
      </trkpt>
      <trkpt lat="44.68887" lon="0.91239">
        <ele>190</ele>
        <time>2012-06-03T06:41:57Z</time>
      </trkpt>
      <trkpt lat="44.68897" lon="0.91257">
        <ele>192</ele>
        <time>2012-06-03T06:42:02Z</time>
      </trkpt>
      <trkpt lat="44.68903" lon="0.91272">
        <ele>192</ele>
        <time>2012-06-03T06:42:07Z</time>
      </trkpt>
      <trkpt lat="44.68905" lon="0.91293">
        <ele>197</ele>
        <time>2012-06-03T06:42:12Z</time>
      </trkpt>
      <trkpt lat="44.68909" lon="0.91314">
        <ele>202</ele>
        <time>2012-06-03T06:42:17Z</time>
      </trkpt>
      <trkpt lat="44.68906" lon="0.91335">
        <ele>205</ele>
        <time>2012-06-03T06:42:22Z</time>
      </trkpt>
      <trkpt lat="44.68897" lon="0.91361">
        <ele>207</ele>
        <time>2012-06-03T06:42:27Z</time>
      </trkpt>
      <trkpt lat="44.68891" lon="0.91386">
        <ele>211</ele>
        <time>2012-06-03T06:42:32Z</time>
      </trkpt>
      <trkpt lat="44.68883" lon="0.91411">
        <ele>212</ele>
        <time>2012-06-03T06:42:37Z</time>
      </trkpt>
      <trkpt lat="44.68877" lon="0.91434">
        <ele>213</ele>
        <time>2012-06-03T06:42:42Z</time>
      </trkpt>
      <trkpt lat="44.68872" lon="0.91459">
        <ele>213</ele>
        <time>2012-06-03T06:42:47Z</time>
      </trkpt>
      <trkpt lat="44.68868" lon="0.91483">
        <ele>212</ele>
        <time>2012-06-03T06:42:52Z</time>
      </trkpt>
      <trkpt lat="44.6885" lon="0.91484">
        <ele>206</ele>
        <time>2012-06-03T06:42:58Z</time>
      </trkpt>
      <trkpt lat="44.68829" lon="0.91478">
        <ele>206</ele>
        <time>2012-06-03T06:43:03Z</time>
      </trkpt>
      <trkpt lat="44.68804" lon="0.91472">
        <ele>206</ele>
        <time>2012-06-03T06:43:09Z</time>
      </trkpt>
      <trkpt lat="44.68782" lon="0.91466">
        <ele>206</ele>
        <time>2012-06-03T06:43:14Z</time>
      </trkpt>
      <trkpt lat="44.68762" lon="0.9146">
        <ele>206</ele>
        <time>2012-06-03T06:43:19Z</time>
      </trkpt>
      <trkpt lat="44.68743" lon="0.91454">
        <ele>206</ele>
        <time>2012-06-03T06:43:24Z</time>
      </trkpt>
      <trkpt lat="44.6872" lon="0.91445">
        <ele>206</ele>
        <time>2012-06-03T06:43:30Z</time>
      </trkpt>
      <trkpt lat="44.68698" lon="0.91439">
        <ele>206</ele>
        <time>2012-06-03T06:43:35Z</time>
      </trkpt>
      <trkpt lat="44.68677" lon="0.91437">
        <ele>206</ele>
        <time>2012-06-03T06:43:40Z</time>
      </trkpt>
      <trkpt lat="44.68659" lon="0.91444">
        <ele>206</ele>
        <time>2012-06-03T06:43:45Z</time>
      </trkpt>
      <trkpt lat="44.68644" lon="0.91462">
        <ele>206</ele>
        <time>2012-06-03T06:43:50Z</time>
      </trkpt>
      <trkpt lat="44.68639" lon="0.91488">
        <ele>206</ele>
        <time>2012-06-03T06:43:55Z</time>
      </trkpt>
      <trkpt lat="44.6864" lon="0.91512">
        <ele>206</ele>
        <time>2012-06-03T06:44:00Z</time>
      </trkpt>
      <trkpt lat="44.68638" lon="0.91534">
        <ele>206</ele>
        <time>2012-06-03T06:44:05Z</time>
      </trkpt>
      <trkpt lat="44.68638" lon="0.91555">
        <ele>209</ele>
        <time>2012-06-03T06:44:10Z</time>
      </trkpt>
      <trkpt lat="44.68638" lon="0.91578">
        <ele>209</ele>
        <time>2012-06-03T06:44:15Z</time>
      </trkpt>
      <trkpt lat="44.68632" lon="0.91596">
        <ele>209</ele>
        <time>2012-06-03T06:44:20Z</time>
      </trkpt>
      <trkpt lat="44.68621" lon="0.91611">
        <ele>209</ele>
        <time>2012-06-03T06:44:25Z</time>
      </trkpt>
      <trkpt lat="44.68609" lon="0.91631">
        <ele>209</ele>
        <time>2012-06-03T06:44:31Z</time>
      </trkpt>
      <trkpt lat="44.68599" lon="0.91647">
        <ele>209</ele>
        <time>2012-06-03T06:44:36Z</time>
      </trkpt>
      <trkpt lat="44.68587" lon="0.91667">
        <ele>209</ele>
        <time>2012-06-03T06:44:41Z</time>
      </trkpt>
      <trkpt lat="44.68575" lon="0.91699">
        <ele>209</ele>
        <time>2012-06-03T06:44:46Z</time>
      </trkpt>
      <trkpt lat="44.68568" lon="0.91739">
        <ele>209</ele>
        <time>2012-06-03T06:44:51Z</time>
      </trkpt>
      <trkpt lat="44.68559" lon="0.91781">
        <ele>208</ele>
        <time>2012-06-03T06:44:56Z</time>
      </trkpt>
      <trkpt lat="44.6855" lon="0.91819">
        <ele>207</ele>
        <time>2012-06-03T06:45:01Z</time>
      </trkpt>
      <trkpt lat="44.68547" lon="0.91852">
        <ele>203</ele>
        <time>2012-06-03T06:45:06Z</time>
      </trkpt>
      <trkpt lat="44.68533" lon="0.91867">
        <ele>201</ele>
        <time>2012-06-03T06:45:11Z</time>
      </trkpt>
      <trkpt lat="44.68511" lon="0.9187">
        <ele>201</ele>
        <time>2012-06-03T06:45:16Z</time>
      </trkpt>
      <trkpt lat="44.68489" lon="0.91872">
        <ele>201</ele>
        <time>2012-06-03T06:45:21Z</time>
      </trkpt>
      <trkpt lat="44.68467" lon="0.91874">
        <ele>201</ele>
        <time>2012-06-03T06:45:26Z</time>
      </trkpt>
      <trkpt lat="44.68446" lon="0.91876">
        <ele>201</ele>
        <time>2012-06-03T06:45:31Z</time>
      </trkpt>
      <trkpt lat="44.6843" lon="0.91879">
        <ele>201</ele>
        <time>2012-06-03T06:45:36Z</time>
      </trkpt>
      <trkpt lat="44.68427" lon="0.91899">
        <ele>201</ele>
        <time>2012-06-03T06:45:41Z</time>
      </trkpt>
      <trkpt lat="44.68426" lon="0.91921">
        <ele>201</ele>
        <time>2012-06-03T06:45:46Z</time>
      </trkpt>
      <trkpt lat="44.68424" lon="0.91942">
        <ele>201</ele>
        <time>2012-06-03T06:45:51Z</time>
      </trkpt>
      <trkpt lat="44.6842" lon="0.91964">
        <ele>200</ele>
        <time>2012-06-03T06:45:56Z</time>
      </trkpt>
      <trkpt lat="44.68408" lon="0.91973">
        <ele>200</ele>
        <time>2012-06-03T06:46:01Z</time>
      </trkpt>
      <trkpt lat="44.68389" lon="0.91978">
        <ele>200</ele>
        <time>2012-06-03T06:46:06Z</time>
      </trkpt>
      <trkpt lat="44.68374" lon="0.92005">
        <ele>200</ele>
        <time>2012-06-03T06:46:12Z</time>
      </trkpt>
      <trkpt lat="44.68356" lon="0.9201">
        <ele>200</ele>
        <time>2012-06-03T06:46:17Z</time>
      </trkpt>
      <trkpt lat="44.68334" lon="0.92012">
        <ele>200</ele>
        <time>2012-06-03T06:46:22Z</time>
      </trkpt>
      <trkpt lat="44.68309" lon="0.92015">
        <ele>200</ele>
        <time>2012-06-03T06:46:27Z</time>
      </trkpt>
      <trkpt lat="44.68285" lon="0.92018">
        <ele>200</ele>
        <time>2012-06-03T06:46:32Z</time>
      </trkpt>
      <trkpt lat="44.68261" lon="0.92022">
        <ele>200</ele>
        <time>2012-06-03T06:46:37Z</time>
      </trkpt>
      <trkpt lat="44.6824" lon="0.92031">
        <ele>200</ele>
        <time>2012-06-03T06:46:42Z</time>
      </trkpt>
      <trkpt lat="44.68219" lon="0.92043">
        <ele>200</ele>
        <time>2012-06-03T06:46:47Z</time>
      </trkpt>
      <trkpt lat="44.68198" lon="0.92053">
        <ele>200</ele>
        <time>2012-06-03T06:46:52Z</time>
      </trkpt>
      <trkpt lat="44.68174" lon="0.92062">
        <ele>200</ele>
        <time>2012-06-03T06:46:57Z</time>
      </trkpt>
      <trkpt lat="44.6815" lon="0.92052">
        <ele>198</ele>
        <time>2012-06-03T06:47:02Z</time>
      </trkpt>
      <trkpt lat="44.68123" lon="0.92038">
        <ele>198</ele>
        <time>2012-06-03T06:47:07Z</time>
      </trkpt>
      <trkpt lat="44.68108" lon="0.92043">
        <ele>198</ele>
        <time>2012-06-03T06:47:12Z</time>
      </trkpt>
      <trkpt lat="44.68103" lon="0.92065">
        <ele>198</ele>
        <time>2012-06-03T06:47:17Z</time>
      </trkpt>
      <trkpt lat="44.68103" lon="0.92092">
        <ele>196</ele>
        <time>2012-06-03T06:47:22Z</time>
      </trkpt>
      <trkpt lat="44.68103" lon="0.92121">
        <ele>194</ele>
        <time>2012-06-03T06:47:27Z</time>
      </trkpt>
      <trkpt lat="44.68106" lon="0.9215">
        <ele>193</ele>
        <time>2012-06-03T06:47:32Z</time>
      </trkpt>
      <trkpt lat="44.68114" lon="0.92176">
        <ele>193</ele>
        <time>2012-06-03T06:47:37Z</time>
      </trkpt>
      <trkpt lat="44.68131" lon="0.92194">
        <ele>193</ele>
        <time>2012-06-03T06:47:42Z</time>
      </trkpt>
      <trkpt lat="44.68141" lon="0.92222">
        <ele>193</ele>
        <time>2012-06-03T06:47:47Z</time>
      </trkpt>
      <trkpt lat="44.68141" lon="0.92258">
        <ele>193</ele>
        <time>2012-06-03T06:47:52Z</time>
      </trkpt>
      <trkpt lat="44.68141" lon="0.92292">
        <ele>193</ele>
        <time>2012-06-03T06:47:57Z</time>
      </trkpt>
      <trkpt lat="44.68141" lon="0.92325">
        <ele>190</ele>
        <time>2012-06-03T06:48:02Z</time>
      </trkpt>
      <trkpt lat="44.68154" lon="0.92339">
        <ele>189</ele>
        <time>2012-06-03T06:48:07Z</time>
      </trkpt>
      <trkpt lat="44.68165" lon="0.9236">
        <ele>189</ele>
        <time>2012-06-03T06:48:12Z</time>
      </trkpt>
      <trkpt lat="44.6818" lon="0.92385">
        <ele>189</ele>
        <time>2012-06-03T06:48:17Z</time>
      </trkpt>
      <trkpt lat="44.68197" lon="0.92415">
        <ele>189</ele>
        <time>2012-06-03T06:48:22Z</time>
      </trkpt>
      <trkpt lat="44.68219" lon="0.92456">
        <ele>189</ele>
        <time>2012-06-03T06:48:27Z</time>
      </trkpt>
      <trkpt lat="44.68235" lon="0.92496">
        <ele>189</ele>
        <time>2012-06-03T06:48:32Z</time>
      </trkpt>
      <trkpt lat="44.68249" lon="0.92539">
        <ele>189</ele>
        <time>2012-06-03T06:48:37Z</time>
      </trkpt>
      <trkpt lat="44.68263" lon="0.92586">
        <ele>189</ele>
        <time>2012-06-03T06:48:42Z</time>
      </trkpt>
      <trkpt lat="44.6826" lon="0.92636">
        <ele>189</ele>
        <time>2012-06-03T06:48:47Z</time>
      </trkpt>
      <trkpt lat="44.68267" lon="0.927">
        <ele>184</ele>
        <time>2012-06-03T06:48:53Z</time>
      </trkpt>
      <trkpt lat="44.68273" lon="0.92753">
        <ele>179</ele>
        <time>2012-06-03T06:48:58Z</time>
      </trkpt>
      <trkpt lat="44.6828" lon="0.92806">
        <ele>174</ele>
        <time>2012-06-03T06:49:03Z</time>
      </trkpt>
      <trkpt lat="44.68288" lon="0.92843">
        <ele>171</ele>
        <time>2012-06-03T06:49:08Z</time>
      </trkpt>
      <trkpt lat="44.68294" lon="0.9287">
        <ele>170</ele>
        <time>2012-06-03T06:49:13Z</time>
      </trkpt>
      <trkpt lat="44.68298" lon="0.92891">
        <ele>170</ele>
        <time>2012-06-03T06:49:18Z</time>
      </trkpt>
      <trkpt lat="44.68301" lon="0.92908">
        <ele>170</ele>
        <time>2012-06-03T06:49:23Z</time>
      </trkpt>
      <trkpt lat="44.68303" lon="0.92922">
        <ele>172</ele>
        <time>2012-06-03T06:49:28Z</time>
      </trkpt>
      <trkpt lat="44.68305" lon="0.92933">
        <ele>176</ele>
        <time>2012-06-03T06:49:33Z</time>
      </trkpt>
      <trkpt lat="44.68306" lon="0.92944">
        <ele>179</ele>
        <time>2012-06-03T06:49:38Z</time>
      </trkpt>
      <trkpt lat="44.68309" lon="0.92957">
        <ele>179</ele>
        <time>2012-06-03T06:49:43Z</time>
      </trkpt>
      <trkpt lat="44.68311" lon="0.92971">
        <ele>179</ele>
        <time>2012-06-03T06:49:48Z</time>
      </trkpt>
      <trkpt lat="44.68314" lon="0.92983">
        <ele>179</ele>
        <time>2012-06-03T06:49:53Z</time>
      </trkpt>
      <trkpt lat="44.68322" lon="0.92987">
        <ele>180</ele>
        <time>2012-06-03T06:49:58Z</time>
      </trkpt>
      <trkpt lat="44.6833" lon="0.92991">
        <ele>181</ele>
        <time>2012-06-03T06:50:03Z</time>
      </trkpt>
      <trkpt lat="44.68338" lon="0.92995">
        <ele>181</ele>
        <time>2012-06-03T06:50:08Z</time>
      </trkpt>
      <trkpt lat="44.68347" lon="0.93">
        <ele>181</ele>
        <time>2012-06-03T06:50:13Z</time>
      </trkpt>
      <trkpt lat="44.68356" lon="0.93005">
        <ele>181</ele>
        <time>2012-06-03T06:50:18Z</time>
      </trkpt>
      <trkpt lat="44.68368" lon="0.93008">
        <ele>183</ele>
        <time>2012-06-03T06:50:23Z</time>
      </trkpt>
      <trkpt lat="44.68378" lon="0.93012">
        <ele>184</ele>
        <time>2012-06-03T06:50:28Z</time>
      </trkpt>
      <trkpt lat="44.68388" lon="0.93015">
        <ele>185</ele>
        <time>2012-06-03T06:50:33Z</time>
      </trkpt>
      <trkpt lat="44.68398" lon="0.93019">
        <ele>185</ele>
        <time>2012-06-03T06:50:38Z</time>
      </trkpt>
      <trkpt lat="44.68407" lon="0.93023">
        <ele>186</ele>
        <time>2012-06-03T06:50:43Z</time>
      </trkpt>
      <trkpt lat="44.68414" lon="0.93027">
        <ele>187</ele>
        <time>2012-06-03T06:50:49Z</time>
      </trkpt>
      <trkpt lat="44.68423" lon="0.93031">
        <ele>187</ele>
        <time>2012-06-03T06:50:54Z</time>
      </trkpt>
      <trkpt lat="44.68434" lon="0.93035">
        <ele>188</ele>
        <time>2012-06-03T06:50:59Z</time>
      </trkpt>
      <trkpt lat="44.68445" lon="0.93039">
        <ele>190</ele>
        <time>2012-06-03T06:51:04Z</time>
      </trkpt>
      <trkpt lat="44.68455" lon="0.93045">
        <ele>192</ele>
        <time>2012-06-03T06:51:09Z</time>
      </trkpt>
      <trkpt lat="44.68466" lon="0.93049">
        <ele>192</ele>
        <time>2012-06-03T06:51:14Z</time>
      </trkpt>
      <trkpt lat="44.68478" lon="0.93053">
        <ele>193</ele>
        <time>2012-06-03T06:51:19Z</time>
      </trkpt>
      <trkpt lat="44.6849" lon="0.93059">
        <ele>194</ele>
        <time>2012-06-03T06:51:24Z</time>
      </trkpt>
      <trkpt lat="44.68502" lon="0.93063">
        <ele>194</ele>
        <time>2012-06-03T06:51:29Z</time>
      </trkpt>
      <trkpt lat="44.68512" lon="0.93067">
        <ele>195</ele>
        <time>2012-06-03T06:51:34Z</time>
      </trkpt>
      <trkpt lat="44.68522" lon="0.93072">
        <ele>196</ele>
        <time>2012-06-03T06:51:39Z</time>
      </trkpt>
      <trkpt lat="44.68532" lon="0.93077">
        <ele>197</ele>
        <time>2012-06-03T06:51:44Z</time>
      </trkpt>
      <trkpt lat="44.68543" lon="0.93081">
        <ele>198</ele>
        <time>2012-06-03T06:51:49Z</time>
      </trkpt>
      <trkpt lat="44.68552" lon="0.93086">
        <ele>199</ele>
        <time>2012-06-03T06:51:54Z</time>
      </trkpt>
      <trkpt lat="44.68562" lon="0.93091">
        <ele>200</ele>
        <time>2012-06-03T06:51:59Z</time>
      </trkpt>
      <trkpt lat="44.68573" lon="0.93096">
        <ele>200</ele>
        <time>2012-06-03T06:52:05Z</time>
      </trkpt>
      <trkpt lat="44.68582" lon="0.93102">
        <ele>201</ele>
        <time>2012-06-03T06:52:10Z</time>
      </trkpt>
      <trkpt lat="44.68581" lon="0.93115">
        <ele>201</ele>
        <time>2012-06-03T06:52:15Z</time>
      </trkpt>
      <trkpt lat="44.68581" lon="0.93132">
        <ele>201</ele>
        <time>2012-06-03T06:52:20Z</time>
      </trkpt>
      <trkpt lat="44.6858" lon="0.93146">
        <ele>201</ele>
        <time>2012-06-03T06:52:25Z</time>
      </trkpt>
      <trkpt lat="44.68578" lon="0.93163">
        <ele>201</ele>
        <time>2012-06-03T06:52:30Z</time>
      </trkpt>
      <trkpt lat="44.68577" lon="0.93182">
        <ele>201</ele>
        <time>2012-06-03T06:52:35Z</time>
      </trkpt>
      <trkpt lat="44.68577" lon="0.93202">
        <ele>201</ele>
        <time>2012-06-03T06:52:40Z</time>
      </trkpt>
      <trkpt lat="44.68576" lon="0.93225">
        <ele>200</ele>
        <time>2012-06-03T06:52:45Z</time>
      </trkpt>
      <trkpt lat="44.68575" lon="0.9325">
        <ele>199</ele>
        <time>2012-06-03T06:52:50Z</time>
      </trkpt>
      <trkpt lat="44.68574" lon="0.93272">
        <ele>197</ele>
        <time>2012-06-03T06:52:55Z</time>
      </trkpt>
      <trkpt lat="44.68573" lon="0.93292">
        <ele>195</ele>
        <time>2012-06-03T06:53:00Z</time>
      </trkpt>
      <trkpt lat="44.68573" lon="0.93313">
        <ele>194</ele>
        <time>2012-06-03T06:53:05Z</time>
      </trkpt>
      <trkpt lat="44.68572" lon="0.93336">
        <ele>192</ele>
        <time>2012-06-03T06:53:10Z</time>
      </trkpt>
      <trkpt lat="44.68572" lon="0.93362">
        <ele>190</ele>
        <time>2012-06-03T06:53:15Z</time>
      </trkpt>
      <trkpt lat="44.68572" lon="0.93387">
        <ele>187</ele>
        <time>2012-06-03T06:53:20Z</time>
      </trkpt>
      <trkpt lat="44.68572" lon="0.93411">
        <ele>185</ele>
        <time>2012-06-03T06:53:25Z</time>
      </trkpt>
      <trkpt lat="44.68568" lon="0.93435">
        <ele>183</ele>
        <time>2012-06-03T06:53:30Z</time>
      </trkpt>
      <trkpt lat="44.68565" lon="0.93453">
        <ele>181</ele>
        <time>2012-06-03T06:53:35Z</time>
      </trkpt>
      <trkpt lat="44.6857" lon="0.93462">
        <ele>181</ele>
        <time>2012-06-03T06:53:40Z</time>
      </trkpt>
      <trkpt lat="44.68579" lon="0.93468">
        <ele>181</ele>
        <time>2012-06-03T06:53:45Z</time>
      </trkpt>
      <trkpt lat="44.68598" lon="0.93477">
        <ele>181</ele>
        <time>2012-06-03T06:53:50Z</time>
      </trkpt>
      <trkpt lat="44.68615" lon="0.93492">
        <ele>181</ele>
        <time>2012-06-03T06:53:55Z</time>
      </trkpt>
      <trkpt lat="44.68626" lon="0.93515">
        <ele>182</ele>
        <time>2012-06-03T06:54:00Z</time>
      </trkpt>
      <trkpt lat="44.68616" lon="0.93548">
        <ele>183</ele>
        <time>2012-06-03T06:54:05Z</time>
      </trkpt>
      <trkpt lat="44.68605" lon="0.93584">
        <ele>185</ele>
        <time>2012-06-03T06:54:10Z</time>
      </trkpt>
      <trkpt lat="44.68594" lon="0.93605">
        <ele>183</ele>
        <time>2012-06-03T06:54:15Z</time>
      </trkpt>
      <trkpt lat="44.68566" lon="0.93619">
        <ele>183</ele>
        <time>2012-06-03T06:54:20Z</time>
      </trkpt>
      <trkpt lat="44.68535" lon="0.93635">
        <ele>187</ele>
        <time>2012-06-03T06:54:25Z</time>
      </trkpt>
      <trkpt lat="44.68515" lon="0.93648">
        <ele>192</ele>
        <time>2012-06-03T06:54:30Z</time>
      </trkpt>
      <trkpt lat="44.68496" lon="0.93671">
        <ele>194</ele>
        <time>2012-06-03T06:54:35Z</time>
      </trkpt>
      <trkpt lat="44.68471" lon="0.93688">
        <ele>195</ele>
        <time>2012-06-03T06:54:40Z</time>
      </trkpt>
      <trkpt lat="44.68445" lon="0.93697">
        <ele>196</ele>
        <time>2012-06-03T06:54:45Z</time>
      </trkpt>
      <trkpt lat="44.68421" lon="0.93707">
        <ele>197</ele>
        <time>2012-06-03T06:54:50Z</time>
      </trkpt>
      <trkpt lat="44.68398" lon="0.93717">
        <ele>195</ele>
        <time>2012-06-03T06:54:55Z</time>
      </trkpt>
      <trkpt lat="44.68379" lon="0.93728">
        <ele>195</ele>
        <time>2012-06-03T06:55:00Z</time>
      </trkpt>
      <trkpt lat="44.68354" lon="0.93748">
        <ele>191</ele>
        <time>2012-06-03T06:55:05Z</time>
      </trkpt>
      <trkpt lat="44.68337" lon="0.93773">
        <ele>186</ele>
        <time>2012-06-03T06:55:10Z</time>
      </trkpt>
      <trkpt lat="44.68324" lon="0.93795">
        <ele>179</ele>
        <time>2012-06-03T06:55:15Z</time>
      </trkpt>
      <trkpt lat="44.68309" lon="0.93824">
        <ele>170</ele>
        <time>2012-06-03T06:55:20Z</time>
      </trkpt>
      <trkpt lat="44.68293" lon="0.93855">
        <ele>164</ele>
        <time>2012-06-03T06:55:25Z</time>
      </trkpt>
      <trkpt lat="44.68287" lon="0.93892">
        <ele>159</ele>
        <time>2012-06-03T06:55:30Z</time>
      </trkpt>
      <trkpt lat="44.68282" lon="0.93927">
        <ele>154</ele>
        <time>2012-06-03T06:55:35Z</time>
      </trkpt>
      <trkpt lat="44.68274" lon="0.93958">
        <ele>152</ele>
        <time>2012-06-03T06:55:40Z</time>
      </trkpt>
      <trkpt lat="44.68266" lon="0.93985">
        <ele>150</ele>
        <time>2012-06-03T06:55:45Z</time>
      </trkpt>
      <trkpt lat="44.68263" lon="0.94006">
        <ele>150</ele>
        <time>2012-06-03T06:55:50Z</time>
      </trkpt>
      <trkpt lat="44.68264" lon="0.94031">
        <ele>151</ele>
        <time>2012-06-03T06:55:55Z</time>
      </trkpt>
      <trkpt lat="44.68269" lon="0.94055">
        <ele>152</ele>
        <time>2012-06-03T06:56:00Z</time>
      </trkpt>
      <trkpt lat="44.68285" lon="0.9406">
        <ele>153</ele>
        <time>2012-06-03T06:56:05Z</time>
      </trkpt>
      <trkpt lat="44.68299" lon="0.94049">
        <ele>155</ele>
        <time>2012-06-03T06:56:10Z</time>
      </trkpt>
      <trkpt lat="44.68315" lon="0.94041">
        <ele>157</ele>
        <time>2012-06-03T06:56:15Z</time>
      </trkpt>
      <trkpt lat="44.6833" lon="0.94039">
        <ele>159</ele>
        <time>2012-06-03T06:56:20Z</time>
      </trkpt>
      <trkpt lat="44.68347" lon="0.94048">
        <ele>160</ele>
        <time>2012-06-03T06:56:25Z</time>
      </trkpt>
      <trkpt lat="44.68361" lon="0.94063">
        <ele>162</ele>
        <time>2012-06-03T06:56:30Z</time>
      </trkpt>
      <trkpt lat="44.68376" lon="0.94074">
        <ele>163</ele>
        <time>2012-06-03T06:56:35Z</time>
      </trkpt>
      <trkpt lat="44.68383" lon="0.94086">
        <ele>165</ele>
        <time>2012-06-03T06:56:40Z</time>
      </trkpt>
      <trkpt lat="44.6838" lon="0.94102">
        <ele>165</ele>
        <time>2012-06-03T06:56:45Z</time>
      </trkpt>
      <trkpt lat="44.68383" lon="0.94122">
        <ele>167</ele>
        <time>2012-06-03T06:56:50Z</time>
      </trkpt>
      <trkpt lat="44.68385" lon="0.9415">
        <ele>168</ele>
        <time>2012-06-03T06:56:55Z</time>
      </trkpt>
      <trkpt lat="44.68391" lon="0.9417">
        <ele>168</ele>
        <time>2012-06-03T06:57:00Z</time>
      </trkpt>
      <trkpt lat="44.68391" lon="0.94189">
        <ele>168</ele>
        <time>2012-06-03T06:57:05Z</time>
      </trkpt>
      <trkpt lat="44.68394" lon="0.9421">
        <ele>168</ele>
        <time>2012-06-03T06:57:10Z</time>
      </trkpt>
      <trkpt lat="44.68395" lon="0.94233">
        <ele>169</ele>
        <time>2012-06-03T06:57:15Z</time>
      </trkpt>
      <trkpt lat="44.68395" lon="0.94259">
        <ele>169</ele>
        <time>2012-06-03T06:57:20Z</time>
      </trkpt>
      <trkpt lat="44.68396" lon="0.94284">
        <ele>169</ele>
        <time>2012-06-03T06:57:25Z</time>
      </trkpt>
      <trkpt lat="44.68393" lon="0.94309">
        <ele>169</ele>
        <time>2012-06-03T06:57:30Z</time>
      </trkpt>
      <trkpt lat="44.68389" lon="0.94336">
        <ele>169</ele>
        <time>2012-06-03T06:57:35Z</time>
      </trkpt>
      <trkpt lat="44.68386" lon="0.94361">
        <ele>169</ele>
        <time>2012-06-03T06:57:40Z</time>
      </trkpt>
      <trkpt lat="44.68385" lon="0.94385">
        <ele>169</ele>
        <time>2012-06-03T06:57:45Z</time>
      </trkpt>
      <trkpt lat="44.68386" lon="0.9441">
        <ele>169</ele>
        <time>2012-06-03T06:57:50Z</time>
      </trkpt>
      <trkpt lat="44.68387" lon="0.94435">
        <ele>165</ele>
        <time>2012-06-03T06:57:55Z</time>
      </trkpt>
      <trkpt lat="44.68387" lon="0.94455">
        <ele>164</ele>
        <time>2012-06-03T06:58:00Z</time>
      </trkpt>
      <trkpt lat="44.68387" lon="0.94477">
        <ele>164</ele>
        <time>2012-06-03T06:58:05Z</time>
      </trkpt>
      <trkpt lat="44.68388" lon="0.94494">
        <ele>164</ele>
        <time>2012-06-03T06:58:10Z</time>
      </trkpt>
      <trkpt lat="44.68388" lon="0.94518">
        <ele>167</ele>
        <time>2012-06-03T06:58:15Z</time>
      </trkpt>
      <trkpt lat="44.68391" lon="0.94541">
        <ele>168</ele>
        <time>2012-06-03T06:58:20Z</time>
      </trkpt>
      <trkpt lat="44.68395" lon="0.9456">
        <ele>170</ele>
        <time>2012-06-03T06:58:25Z</time>
      </trkpt>
      <trkpt lat="44.68399" lon="0.94578">
        <ele>172</ele>
        <time>2012-06-03T06:58:30Z</time>
      </trkpt>
      <trkpt lat="44.68402" lon="0.94602">
        <ele>174</ele>
        <time>2012-06-03T06:58:35Z</time>
      </trkpt>
      <trkpt lat="44.68404" lon="0.94626">
        <ele>174</ele>
        <time>2012-06-03T06:58:40Z</time>
      </trkpt>
      <trkpt lat="44.68403" lon="0.94648">
        <ele>174</ele>
        <time>2012-06-03T06:58:45Z</time>
      </trkpt>
      <trkpt lat="44.68402" lon="0.94672">
        <ele>174</ele>
        <time>2012-06-03T06:58:50Z</time>
      </trkpt>
      <trkpt lat="44.68395" lon="0.9468">
        <ele>170</ele>
        <time>2012-06-03T06:58:55Z</time>
      </trkpt>
      <trkpt lat="44.68391" lon="0.9466">
        <ele>165</ele>
        <time>2012-06-03T06:59:00Z</time>
      </trkpt>
      <trkpt lat="44.68385" lon="0.94637">
        <ele>161</ele>
        <time>2012-06-03T06:59:05Z</time>
      </trkpt>
      <trkpt lat="44.68378" lon="0.94608">
        <ele>160</ele>
        <time>2012-06-03T06:59:10Z</time>
      </trkpt>
      <trkpt lat="44.6837" lon="0.9458">
        <ele>160</ele>
        <time>2012-06-03T06:59:15Z</time>
      </trkpt>
      <trkpt lat="44.68351" lon="0.94581">
        <ele>160</ele>
        <time>2012-06-03T06:59:20Z</time>
      </trkpt>
      <trkpt lat="44.68327" lon="0.94595">
        <ele>160</ele>
        <time>2012-06-03T06:59:25Z</time>
      </trkpt>
      <trkpt lat="44.68306" lon="0.94609">
        <ele>160</ele>
        <time>2012-06-03T06:59:30Z</time>
      </trkpt>
      <trkpt lat="44.68287" lon="0.94621">
        <ele>160</ele>
        <time>2012-06-03T06:59:35Z</time>
      </trkpt>
      <trkpt lat="44.68268" lon="0.94626">
        <ele>160</ele>
        <time>2012-06-03T06:59:40Z</time>
      </trkpt>
      <trkpt lat="44.6825" lon="0.94629">
        <ele>160</ele>
        <time>2012-06-03T06:59:45Z</time>
      </trkpt>
      <trkpt lat="44.68238" lon="0.94628">
        <ele>160</ele>
        <time>2012-06-03T06:59:50Z</time>
      </trkpt>
      <trkpt lat="44.68235" lon="0.94625">
        <ele>160</ele>
        <time>2012-06-03T06:59:56Z</time>
      </trkpt>
      <trkpt lat="44.68234" lon="0.94623">
        <ele>161</ele>
        <time>2012-06-03T07:00:01Z</time>
      </trkpt>
      <trkpt lat="44.68235" lon="0.94622">
        <ele>165</ele>
        <time>2012-06-03T07:00:06Z</time>
      </trkpt>
      <trkpt lat="44.68234" lon="0.94624">
        <ele>165</ele>
        <time>2012-06-03T07:00:11Z</time>
      </trkpt>
      <trkpt lat="44.68235" lon="0.94628">
        <ele>165</ele>
        <time>2012-06-03T07:00:16Z</time>
      </trkpt>
      <trkpt lat="44.68237" lon="0.94631">
        <ele>158</ele>
        <time>2012-06-03T07:00:23Z</time>
      </trkpt>
      <trkpt lat="44.68238" lon="0.94632">
        <ele>155</ele>
        <time>2012-06-03T07:00:28Z</time>
      </trkpt>
      <trkpt lat="44.68237" lon="0.94631">
        <ele>152</ele>
        <time>2012-06-03T07:00:35Z</time>
      </trkpt>
      <trkpt lat="44.68237" lon="0.9463">
        <ele>155</ele>
        <time>2012-06-03T07:00:42Z</time>
      </trkpt>
      <trkpt lat="44.68235" lon="0.94629">
        <ele>160</ele>
        <time>2012-06-03T07:00:52Z</time>
      </trkpt>
      <trkpt lat="44.68236" lon="0.94628">
        <ele>164</ele>
        <time>2012-06-03T07:01:02Z</time>
      </trkpt>
      <trkpt lat="44.68237" lon="0.94626">
        <ele>168</ele>
        <time>2012-06-03T07:01:10Z</time>
      </trkpt>
      <trkpt lat="44.68238" lon="0.94625">
        <ele>174</ele>
        <time>2012-06-03T07:01:27Z</time>
      </trkpt>
      <trkpt lat="44.68239" lon="0.94625">
        <ele>178</ele>
        <time>2012-06-03T07:01:35Z</time>
      </trkpt>
      <trkpt lat="44.6824" lon="0.94625">
        <ele>183</ele>
        <time>2012-06-03T07:01:43Z</time>
      </trkpt>
      <trkpt lat="44.68241" lon="0.94626">
        <ele>186</ele>
        <time>2012-06-03T07:01:49Z</time>
      </trkpt>
      <trkpt lat="44.68244" lon="0.94628">
        <ele>194</ele>
        <time>2012-06-03T07:01:57Z</time>
      </trkpt>
      <trkpt lat="44.68244" lon="0.9463">
        <ele>194</ele>
        <time>2012-06-03T07:02:02Z</time>
      </trkpt>
      <trkpt lat="44.68243" lon="0.94629">
        <ele>195</ele>
        <time>2012-06-03T07:02:46Z</time>
      </trkpt>
      <trkpt lat="44.68243" lon="0.94627">
        <ele>195</ele>
        <time>2012-06-03T07:03:02Z</time>
      </trkpt>
      <trkpt lat="44.68243" lon="0.94626">
        <ele>195</ele>
        <time>2012-06-03T07:03:09Z</time>
      </trkpt>
      <trkpt lat="44.68242" lon="0.94626">
        <ele>189</ele>
        <time>2012-06-03T07:03:34Z</time>
      </trkpt>
      <trkpt lat="44.68242" lon="0.94627">
        <ele>182</ele>
        <time>2012-06-03T07:03:43Z</time>
      </trkpt>
      <trkpt lat="44.68242" lon="0.94629">
        <ele>177</ele>
        <time>2012-06-03T07:03:50Z</time>
      </trkpt>
      <trkpt lat="44.68241" lon="0.94629">
        <ele>176</ele>
        <time>2012-06-03T07:03:56Z</time>
      </trkpt>
      <trkpt lat="44.6824" lon="0.94627">
        <ele>172</ele>
        <time>2012-06-03T07:04:02Z</time>
      </trkpt>
      <trkpt lat="44.6824" lon="0.94626">
        <ele>171</ele>
        <time>2012-06-03T07:04:08Z</time>
      </trkpt>
      <trkpt lat="44.68237" lon="0.94626">
        <ele>171</ele>
        <time>2012-06-03T07:04:13Z</time>
      </trkpt>
      <trkpt lat="44.68225" lon="0.94627">
        <ele>171</ele>
        <time>2012-06-03T07:04:19Z</time>
      </trkpt>
      <trkpt lat="44.68214" lon="0.94621">
        <ele>176</ele>
        <time>2012-06-03T07:04:24Z</time>
      </trkpt>
      <trkpt lat="44.68203" lon="0.94613">
        <ele>181</ele>
        <time>2012-06-03T07:04:29Z</time>
      </trkpt>
      <trkpt lat="44.68192" lon="0.94608">
        <ele>186</ele>
        <time>2012-06-03T07:04:34Z</time>
      </trkpt>
      <trkpt lat="44.68178" lon="0.94605">
        <ele>191</ele>
        <time>2012-06-03T07:04:39Z</time>
      </trkpt>
      <trkpt lat="44.68165" lon="0.94607">
        <ele>194</ele>
        <time>2012-06-03T07:04:44Z</time>
      </trkpt>
      <trkpt lat="44.6815" lon="0.9461">
        <ele>194</ele>
        <time>2012-06-03T07:04:49Z</time>
      </trkpt>
      <trkpt lat="44.68133" lon="0.94614">
        <ele>194</ele>
        <time>2012-06-03T07:04:54Z</time>
      </trkpt>
      <trkpt lat="44.6812" lon="0.94619">
        <ele>195</ele>
        <time>2012-06-03T07:04:59Z</time>
      </trkpt>
      <trkpt lat="44.68106" lon="0.94623">
        <ele>200</ele>
        <time>2012-06-03T07:05:04Z</time>
      </trkpt>
      <trkpt lat="44.68095" lon="0.94629">
        <ele>205</ele>
        <time>2012-06-03T07:05:09Z</time>
      </trkpt>
      <trkpt lat="44.68086" lon="0.94636">
        <ele>210</ele>
        <time>2012-06-03T07:05:14Z</time>
      </trkpt>
      <trkpt lat="44.68073" lon="0.94645">
        <ele>215</ele>
        <time>2012-06-03T07:05:19Z</time>
      </trkpt>
      <trkpt lat="44.68061" lon="0.94652">
        <ele>220</ele>
        <time>2012-06-03T07:05:24Z</time>
      </trkpt>
      <trkpt lat="44.68046" lon="0.94661">
        <ele>225</ele>
        <time>2012-06-03T07:05:29Z</time>
      </trkpt>
      <trkpt lat="44.68031" lon="0.94669">
        <ele>230</ele>
        <time>2012-06-03T07:05:34Z</time>
      </trkpt>
      <trkpt lat="44.68011" lon="0.94676">
        <ele>233</ele>
        <time>2012-06-03T07:05:40Z</time>
      </trkpt>
      <trkpt lat="44.67993" lon="0.94684">
        <ele>234</ele>
        <time>2012-06-03T07:05:45Z</time>
      </trkpt>
      <trkpt lat="44.6798" lon="0.94691">
        <ele>234</ele>
        <time>2012-06-03T07:05:50Z</time>
      </trkpt>
      <trkpt lat="44.67964" lon="0.94699">
        <ele>234</ele>
        <time>2012-06-03T07:05:55Z</time>
      </trkpt>
      <trkpt lat="44.6795" lon="0.94704">
        <ele>234</ele>
        <time>2012-06-03T07:06:00Z</time>
      </trkpt>
      <trkpt lat="44.67937" lon="0.94711">
        <ele>233</ele>
        <time>2012-06-03T07:06:05Z</time>
      </trkpt>
      <trkpt lat="44.67924" lon="0.94717">
        <ele>229</ele>
        <time>2012-06-03T07:06:10Z</time>
      </trkpt>
      <trkpt lat="44.6791" lon="0.94722">
        <ele>229</ele>
        <time>2012-06-03T07:06:15Z</time>
      </trkpt>
      <trkpt lat="44.67896" lon="0.94727">
        <ele>229</ele>
        <time>2012-06-03T07:06:20Z</time>
      </trkpt>
      <trkpt lat="44.67882" lon="0.94731">
        <ele>229</ele>
        <time>2012-06-03T07:06:25Z</time>
      </trkpt>
      <trkpt lat="44.67865" lon="0.94739">
        <ele>229</ele>
        <time>2012-06-03T07:06:30Z</time>
      </trkpt>
      <trkpt lat="44.6785" lon="0.94745">
        <ele>226</ele>
        <time>2012-06-03T07:06:35Z</time>
      </trkpt>
      <trkpt lat="44.67834" lon="0.94754">
        <ele>224</ele>
        <time>2012-06-03T07:06:40Z</time>
      </trkpt>
      <trkpt lat="44.67819" lon="0.94763">
        <ele>224</ele>
        <time>2012-06-03T07:06:45Z</time>
      </trkpt>
      <trkpt lat="44.67803" lon="0.94774">
        <ele>224</ele>
        <time>2012-06-03T07:06:50Z</time>
      </trkpt>
      <trkpt lat="44.67786" lon="0.94779">
        <ele>220</ele>
        <time>2012-06-03T07:06:55Z</time>
      </trkpt>
      <trkpt lat="44.67787" lon="0.94772">
        <ele>215</ele>
        <time>2012-06-03T07:07:00Z</time>
      </trkpt>
      <trkpt lat="44.67789" lon="0.9476">
        <ele>210</ele>
        <time>2012-06-03T07:07:05Z</time>
      </trkpt>
      <trkpt lat="44.67797" lon="0.94744">
        <ele>210</ele>
        <time>2012-06-03T07:07:10Z</time>
      </trkpt>
      <trkpt lat="44.67801" lon="0.94728">
        <ele>210</ele>
        <time>2012-06-03T07:07:15Z</time>
      </trkpt>
      <trkpt lat="44.67808" lon="0.9471">
        <ele>210</ele>
        <time>2012-06-03T07:07:20Z</time>
      </trkpt>
      <trkpt lat="44.67813" lon="0.94691">
        <ele>210</ele>
        <time>2012-06-03T07:07:25Z</time>
      </trkpt>
      <trkpt lat="44.67817" lon="0.94668">
        <ele>210</ele>
        <time>2012-06-03T07:07:31Z</time>
      </trkpt>
      <trkpt lat="44.67804" lon="0.9466">
        <ele>210</ele>
        <time>2012-06-03T07:07:36Z</time>
      </trkpt>
      <trkpt lat="44.67789" lon="0.94653">
        <ele>209</ele>
        <time>2012-06-03T07:07:41Z</time>
      </trkpt>
      <trkpt lat="44.67768" lon="0.94647">
        <ele>209</ele>
        <time>2012-06-03T07:07:46Z</time>
      </trkpt>
      <trkpt lat="44.67753" lon="0.9464">
        <ele>209</ele>
        <time>2012-06-03T07:07:51Z</time>
      </trkpt>
      <trkpt lat="44.67734" lon="0.94632">
        <ele>209</ele>
        <time>2012-06-03T07:07:56Z</time>
      </trkpt>
      <trkpt lat="44.67717" lon="0.94623">
        <ele>209</ele>
        <time>2012-06-03T07:08:01Z</time>
      </trkpt>
      <trkpt lat="44.67695" lon="0.94615">
        <ele>207</ele>
        <time>2012-06-03T07:08:06Z</time>
      </trkpt>
      <trkpt lat="44.67673" lon="0.94608">
        <ele>202</ele>
        <time>2012-06-03T07:08:11Z</time>
      </trkpt>
      <trkpt lat="44.67653" lon="0.94602">
        <ele>201</ele>
        <time>2012-06-03T07:08:16Z</time>
      </trkpt>
      <trkpt lat="44.67633" lon="0.94598">
        <ele>199</ele>
        <time>2012-06-03T07:08:21Z</time>
      </trkpt>
      <trkpt lat="44.67616" lon="0.9459">
        <ele>197</ele>
        <time>2012-06-03T07:08:26Z</time>
      </trkpt>
      <trkpt lat="44.67601" lon="0.94585">
        <ele>197</ele>
        <time>2012-06-03T07:08:32Z</time>
      </trkpt>
      <trkpt lat="44.67585" lon="0.94582">
        <ele>197</ele>
        <time>2012-06-03T07:08:37Z</time>
      </trkpt>
      <trkpt lat="44.67569" lon="0.9459">
        <ele>197</ele>
        <time>2012-06-03T07:08:42Z</time>
      </trkpt>
      <trkpt lat="44.67555" lon="0.94597">
        <ele>198</ele>
        <time>2012-06-03T07:08:47Z</time>
      </trkpt>
      <trkpt lat="44.67543" lon="0.94604">
        <ele>198</ele>
        <time>2012-06-03T07:08:52Z</time>
      </trkpt>
      <trkpt lat="44.67529" lon="0.94609">
        <ele>198</ele>
        <time>2012-06-03T07:08:57Z</time>
      </trkpt>
      <trkpt lat="44.67516" lon="0.9461">
        <ele>200</ele>
        <time>2012-06-03T07:09:02Z</time>
      </trkpt>
      <trkpt lat="44.67503" lon="0.9461">
        <ele>205</ele>
        <time>2012-06-03T07:09:07Z</time>
      </trkpt>
      <trkpt lat="44.67487" lon="0.94609">
        <ele>210</ele>
        <time>2012-06-03T07:09:12Z</time>
      </trkpt>
      <trkpt lat="44.67467" lon="0.94607">
        <ele>215</ele>
        <time>2012-06-03T07:09:17Z</time>
      </trkpt>
      <trkpt lat="44.67446" lon="0.94612">
        <ele>220</ele>
        <time>2012-06-03T07:09:22Z</time>
      </trkpt>
      <trkpt lat="44.67428" lon="0.94622">
        <ele>220</ele>
        <time>2012-06-03T07:09:28Z</time>
      </trkpt>
      <trkpt lat="44.67413" lon="0.9464">
        <ele>220</ele>
        <time>2012-06-03T07:09:33Z</time>
      </trkpt>
      <trkpt lat="44.67399" lon="0.94666">
        <ele>222</ele>
        <time>2012-06-03T07:09:39Z</time>
      </trkpt>
      <trkpt lat="44.67388" lon="0.94688">
        <ele>221</ele>
        <time>2012-06-03T07:09:44Z</time>
      </trkpt>
      <trkpt lat="44.67376" lon="0.94709">
        <ele>216</ele>
        <time>2012-06-03T07:09:49Z</time>
      </trkpt>
      <trkpt lat="44.6737" lon="0.94735">
        <ele>211</ele>
        <time>2012-06-03T07:09:54Z</time>
      </trkpt>
      <trkpt lat="44.67365" lon="0.94761">
        <ele>206</ele>
        <time>2012-06-03T07:09:59Z</time>
      </trkpt>
      <trkpt lat="44.67358" lon="0.94784">
        <ele>201</ele>
        <time>2012-06-03T07:10:04Z</time>
      </trkpt>
      <trkpt lat="44.67353" lon="0.94801">
        <ele>197</ele>
        <time>2012-06-03T07:10:09Z</time>
      </trkpt>
      <trkpt lat="44.6735" lon="0.94818">
        <ele>197</ele>
        <time>2012-06-03T07:10:14Z</time>
      </trkpt>
      <trkpt lat="44.67343" lon="0.94832">
        <ele>197</ele>
        <time>2012-06-03T07:10:19Z</time>
      </trkpt>
      <trkpt lat="44.67336" lon="0.94849">
        <ele>199</ele>
        <time>2012-06-03T07:10:24Z</time>
      </trkpt>
      <trkpt lat="44.67328" lon="0.94868">
        <ele>204</ele>
        <time>2012-06-03T07:10:29Z</time>
      </trkpt>
      <trkpt lat="44.67317" lon="0.94883">
        <ele>209</ele>
        <time>2012-06-03T07:10:34Z</time>
      </trkpt>
      <trkpt lat="44.67304" lon="0.94893">
        <ele>214</ele>
        <time>2012-06-03T07:10:39Z</time>
      </trkpt>
      <trkpt lat="44.67292" lon="0.94902">
        <ele>215</ele>
        <time>2012-06-03T07:10:44Z</time>
      </trkpt>
      <trkpt lat="44.67275" lon="0.94907">
        <ele>215</ele>
        <time>2012-06-03T07:10:49Z</time>
      </trkpt>
      <trkpt lat="44.67257" lon="0.94914">
        <ele>215</ele>
        <time>2012-06-03T07:10:54Z</time>
      </trkpt>
      <trkpt lat="44.67247" lon="0.94905">
        <ele>211</ele>
        <time>2012-06-03T07:10:59Z</time>
      </trkpt>
      <trkpt lat="44.67247" lon="0.94882">
        <ele>209</ele>
        <time>2012-06-03T07:11:04Z</time>
      </trkpt>
      <trkpt lat="44.67248" lon="0.94857">
        <ele>208</ele>
        <time>2012-06-03T07:11:09Z</time>
      </trkpt>
      <trkpt lat="44.6725" lon="0.94828">
        <ele>208</ele>
        <time>2012-06-03T07:11:14Z</time>
      </trkpt>
      <trkpt lat="44.67254" lon="0.94797">
        <ele>208</ele>
        <time>2012-06-03T07:11:19Z</time>
      </trkpt>
      <trkpt lat="44.67258" lon="0.94765">
        <ele>208</ele>
        <time>2012-06-03T07:11:24Z</time>
      </trkpt>
      <trkpt lat="44.67266" lon="0.9473">
        <ele>206</ele>
        <time>2012-06-03T07:11:29Z</time>
      </trkpt>
      <trkpt lat="44.6727" lon="0.94694">
        <ele>206</ele>
        <time>2012-06-03T07:11:34Z</time>
      </trkpt>
      <trkpt lat="44.67282" lon="0.94662">
        <ele>205</ele>
        <time>2012-06-03T07:11:39Z</time>
      </trkpt>
      <trkpt lat="44.67292" lon="0.94623">
        <ele>203</ele>
        <time>2012-06-03T07:11:44Z</time>
      </trkpt>
      <trkpt lat="44.67296" lon="0.9458">
        <ele>201</ele>
        <time>2012-06-03T07:11:49Z</time>
      </trkpt>
      <trkpt lat="44.67289" lon="0.94529">
        <ele>196</ele>
        <time>2012-06-03T07:11:54Z</time>
      </trkpt>
      <trkpt lat="44.67279" lon="0.94488">
        <ele>195</ele>
        <time>2012-06-03T07:11:59Z</time>
      </trkpt>
      <trkpt lat="44.67275" lon="0.94438">
        <ele>195</ele>
        <time>2012-06-03T07:12:04Z</time>
      </trkpt>
      <trkpt lat="44.67277" lon="0.94399">
        <ele>193</ele>
        <time>2012-06-03T07:12:09Z</time>
      </trkpt>
      <trkpt lat="44.67278" lon="0.94368">
        <ele>191</ele>
        <time>2012-06-03T07:12:14Z</time>
      </trkpt>
      <trkpt lat="44.67274" lon="0.94349">
        <ele>190</ele>
        <time>2012-06-03T07:12:19Z</time>
      </trkpt>
      <trkpt lat="44.67273" lon="0.9433">
        <ele>190</ele>
        <time>2012-06-03T07:12:24Z</time>
      </trkpt>
      <trkpt lat="44.67276" lon="0.94316">
        <ele>190</ele>
        <time>2012-06-03T07:12:29Z</time>
      </trkpt>
      <trkpt lat="44.67276" lon="0.94296">
        <ele>190</ele>
        <time>2012-06-03T07:12:35Z</time>
      </trkpt>
      <trkpt lat="44.67279" lon="0.94278">
        <ele>193</ele>
        <time>2012-06-03T07:12:40Z</time>
      </trkpt>
      <trkpt lat="44.67273" lon="0.94268">
        <ele>197</ele>
        <time>2012-06-03T07:12:45Z</time>
      </trkpt>
      <trkpt lat="44.67262" lon="0.94265">
        <ele>197</ele>
        <time>2012-06-03T07:12:50Z</time>
      </trkpt>
      <trkpt lat="44.67249" lon="0.94264">
        <ele>200</ele>
        <time>2012-06-03T07:12:55Z</time>
      </trkpt>
      <trkpt lat="44.67235" lon="0.94262">
        <ele>202</ele>
        <time>2012-06-03T07:13:00Z</time>
      </trkpt>
      <trkpt lat="44.67222" lon="0.94265">
        <ele>203</ele>
        <time>2012-06-03T07:13:05Z</time>
      </trkpt>
      <trkpt lat="44.6721" lon="0.94267">
        <ele>202</ele>
        <time>2012-06-03T07:13:10Z</time>
      </trkpt>
      <trkpt lat="44.67195" lon="0.94271">
        <ele>202</ele>
        <time>2012-06-03T07:13:15Z</time>
      </trkpt>
      <trkpt lat="44.67182" lon="0.94274">
        <ele>202</ele>
        <time>2012-06-03T07:13:20Z</time>
      </trkpt>
      <trkpt lat="44.67169" lon="0.94271">
        <ele>202</ele>
        <time>2012-06-03T07:13:25Z</time>
      </trkpt>
      <trkpt lat="44.67157" lon="0.94266">
        <ele>202</ele>
        <time>2012-06-03T07:13:30Z</time>
      </trkpt>
      <trkpt lat="44.67143" lon="0.94261">
        <ele>205</ele>
        <time>2012-06-03T07:13:35Z</time>
      </trkpt>
      <trkpt lat="44.67126" lon="0.94253">
        <ele>208</ele>
        <time>2012-06-03T07:13:40Z</time>
      </trkpt>
      <trkpt lat="44.67107" lon="0.94244">
        <ele>208</ele>
        <time>2012-06-03T07:13:45Z</time>
      </trkpt>
      <trkpt lat="44.67087" lon="0.94235">
        <ele>208</ele>
        <time>2012-06-03T07:13:50Z</time>
      </trkpt>
      <trkpt lat="44.67067" lon="0.94228">
        <ele>208</ele>
        <time>2012-06-03T07:13:55Z</time>
      </trkpt>
      <trkpt lat="44.67049" lon="0.94219">
        <ele>210</ele>
        <time>2012-06-03T07:14:00Z</time>
      </trkpt>
      <trkpt lat="44.67026" lon="0.94208">
        <ele>210</ele>
        <time>2012-06-03T07:14:05Z</time>
      </trkpt>
      <trkpt lat="44.67005" lon="0.94194">
        <ele>210</ele>
        <time>2012-06-03T07:14:10Z</time>
      </trkpt>
      <trkpt lat="44.66988" lon="0.94177">
        <ele>210</ele>
        <time>2012-06-03T07:14:15Z</time>
      </trkpt>
      <trkpt lat="44.66972" lon="0.94155">
        <ele>210</ele>
        <time>2012-06-03T07:14:20Z</time>
      </trkpt>
      <trkpt lat="44.6696" lon="0.94136">
        <ele>210</ele>
        <time>2012-06-03T07:14:25Z</time>
      </trkpt>
      <trkpt lat="44.66949" lon="0.94143">
        <ele>210</ele>
        <time>2012-06-03T07:14:30Z</time>
      </trkpt>
      <trkpt lat="44.6694" lon="0.94165">
        <ele>212</ele>
        <time>2012-06-03T07:14:35Z</time>
      </trkpt>
      <trkpt lat="44.66925" lon="0.9418">
        <ele>212</ele>
        <time>2012-06-03T07:14:40Z</time>
      </trkpt>
      <trkpt lat="44.6691" lon="0.9419">
        <ele>212</ele>
        <time>2012-06-03T07:14:45Z</time>
      </trkpt>
      <trkpt lat="44.66894" lon="0.94202">
        <ele>213</ele>
        <time>2012-06-03T07:14:50Z</time>
      </trkpt>
      <trkpt lat="44.66877" lon="0.94213">
        <ele>214</ele>
        <time>2012-06-03T07:14:55Z</time>
      </trkpt>
      <trkpt lat="44.66858" lon="0.94224">
        <ele>214</ele>
        <time>2012-06-03T07:15:00Z</time>
      </trkpt>
      <trkpt lat="44.66839" lon="0.94235">
        <ele>214</ele>
        <time>2012-06-03T07:15:05Z</time>
      </trkpt>
      <trkpt lat="44.66821" lon="0.94248">
        <ele>214</ele>
        <time>2012-06-03T07:15:10Z</time>
      </trkpt>
      <trkpt lat="44.66804" lon="0.94261">
        <ele>213</ele>
        <time>2012-06-03T07:15:15Z</time>
      </trkpt>
      <trkpt lat="44.66785" lon="0.94274">
        <ele>211</ele>
        <time>2012-06-03T07:15:20Z</time>
      </trkpt>
      <trkpt lat="44.66765" lon="0.94288">
        <ele>209</ele>
        <time>2012-06-03T07:15:25Z</time>
      </trkpt>
      <trkpt lat="44.66745" lon="0.94303">
        <ele>208</ele>
        <time>2012-06-03T07:15:30Z</time>
      </trkpt>
      <trkpt lat="44.66724" lon="0.94314">
        <ele>207</ele>
        <time>2012-06-03T07:15:35Z</time>
      </trkpt>
      <trkpt lat="44.66709" lon="0.94292">
        <ele>207</ele>
        <time>2012-06-03T07:15:40Z</time>
      </trkpt>
      <trkpt lat="44.66694" lon="0.94259">
        <ele>207</ele>
        <time>2012-06-03T07:15:45Z</time>
      </trkpt>
      <trkpt lat="44.66684" lon="0.9422">
        <ele>207</ele>
        <time>2012-06-03T07:15:50Z</time>
      </trkpt>
      <trkpt lat="44.66692" lon="0.94182">
        <ele>207</ele>
        <time>2012-06-03T07:15:55Z</time>
      </trkpt>
      <trkpt lat="44.66699" lon="0.9415">
        <ele>208</ele>
        <time>2012-06-03T07:16:00Z</time>
      </trkpt>
      <trkpt lat="44.66703" lon="0.9412">
        <ele>210</ele>
        <time>2012-06-03T07:16:05Z</time>
      </trkpt>
      <trkpt lat="44.66709" lon="0.94086">
        <ele>210</ele>
        <time>2012-06-03T07:16:10Z</time>
      </trkpt>
      <trkpt lat="44.66713" lon="0.94048">
        <ele>210</ele>
        <time>2012-06-03T07:16:15Z</time>
      </trkpt>
      <trkpt lat="44.66721" lon="0.94012">
        <ele>210</ele>
        <time>2012-06-03T07:16:20Z</time>
      </trkpt>
      <trkpt lat="44.66726" lon="0.93976">
        <ele>210</ele>
        <time>2012-06-03T07:16:25Z</time>
      </trkpt>
      <trkpt lat="44.66733" lon="0.9394">
        <ele>210</ele>
        <time>2012-06-03T07:16:30Z</time>
      </trkpt>
      <trkpt lat="44.66741" lon="0.93901">
        <ele>210</ele>
        <time>2012-06-03T07:16:35Z</time>
      </trkpt>
      <trkpt lat="44.66761" lon="0.93855">
        <ele>210</ele>
        <time>2012-06-03T07:16:41Z</time>
      </trkpt>
      <trkpt lat="44.66782" lon="0.93813">
        <ele>208</ele>
        <time>2012-06-03T07:16:46Z</time>
      </trkpt>
      <trkpt lat="44.668" lon="0.93789">
        <ele>208</ele>
        <time>2012-06-03T07:16:51Z</time>
      </trkpt>
      <trkpt lat="44.66806" lon="0.93769">
        <ele>208</ele>
        <time>2012-06-03T07:16:56Z</time>
      </trkpt>
      <trkpt lat="44.66814" lon="0.93742">
        <ele>208</ele>
        <time>2012-06-03T07:17:01Z</time>
      </trkpt>
      <trkpt lat="44.66826" lon="0.93721">
        <ele>208</ele>
        <time>2012-06-03T07:17:06Z</time>
      </trkpt>
      <trkpt lat="44.66843" lon="0.937">
        <ele>208</ele>
        <time>2012-06-03T07:17:11Z</time>
      </trkpt>
      <trkpt lat="44.6685" lon="0.93678">
        <ele>208</ele>
        <time>2012-06-03T07:17:16Z</time>
      </trkpt>
      <trkpt lat="44.66833" lon="0.93665">
        <ele>207</ele>
        <time>2012-06-03T07:17:21Z</time>
      </trkpt>
      <trkpt lat="44.66804" lon="0.93652">
        <ele>200</ele>
        <time>2012-06-03T07:17:26Z</time>
      </trkpt>
      <trkpt lat="44.66774" lon="0.93661">
        <ele>190</ele>
        <time>2012-06-03T07:17:31Z</time>
      </trkpt>
      <trkpt lat="44.66747" lon="0.93681">
        <ele>185</ele>
        <time>2012-06-03T07:17:36Z</time>
      </trkpt>
      <trkpt lat="44.66718" lon="0.93709">
        <ele>180</ele>
        <time>2012-06-03T07:17:41Z</time>
      </trkpt>
      <trkpt lat="44.66694" lon="0.93742">
        <ele>175</ele>
        <time>2012-06-03T07:17:46Z</time>
      </trkpt>
      <trkpt lat="44.66666" lon="0.93749">
        <ele>171</ele>
        <time>2012-06-03T07:17:51Z</time>
      </trkpt>
      <trkpt lat="44.66651" lon="0.93725">
        <ele>171</ele>
        <time>2012-06-03T07:17:56Z</time>
      </trkpt>
      <trkpt lat="44.66643" lon="0.937">
        <ele>171</ele>
        <time>2012-06-03T07:18:01Z</time>
      </trkpt>
      <trkpt lat="44.66632" lon="0.93715">
        <ele>171</ele>
        <time>2012-06-03T07:18:06Z</time>
      </trkpt>
      <trkpt lat="44.66617" lon="0.93737">
        <ele>171</ele>
        <time>2012-06-03T07:18:11Z</time>
      </trkpt>
      <trkpt lat="44.66605" lon="0.93763">
        <ele>172</ele>
        <time>2012-06-03T07:18:16Z</time>
      </trkpt>
      <trkpt lat="44.66594" lon="0.93791">
        <ele>172</ele>
        <time>2012-06-03T07:18:21Z</time>
      </trkpt>
      <trkpt lat="44.6658" lon="0.93818">
        <ele>172</ele>
        <time>2012-06-03T07:18:26Z</time>
      </trkpt>
      <trkpt lat="44.66571" lon="0.93841">
        <ele>169</ele>
        <time>2012-06-03T07:18:31Z</time>
      </trkpt>
      <trkpt lat="44.66556" lon="0.93865">
        <ele>169</ele>
        <time>2012-06-03T07:18:36Z</time>
      </trkpt>
      <trkpt lat="44.66547" lon="0.93887">
        <ele>170</ele>
        <time>2012-06-03T07:18:41Z</time>
      </trkpt>
      <trkpt lat="44.6654" lon="0.93904">
        <ele>175</ele>
        <time>2012-06-03T07:18:46Z</time>
      </trkpt>
      <trkpt lat="44.66531" lon="0.93921">
        <ele>180</ele>
        <time>2012-06-03T07:18:51Z</time>
      </trkpt>
      <trkpt lat="44.66523" lon="0.93936">
        <ele>185</ele>
        <time>2012-06-03T07:18:56Z</time>
      </trkpt>
      <trkpt lat="44.6652" lon="0.93949">
        <ele>190</ele>
        <time>2012-06-03T07:19:01Z</time>
      </trkpt>
      <trkpt lat="44.66508" lon="0.93966">
        <ele>193</ele>
        <time>2012-06-03T07:19:06Z</time>
      </trkpt>
      <trkpt lat="44.66495" lon="0.93982">
        <ele>197</ele>
        <time>2012-06-03T07:19:12Z</time>
      </trkpt>
      <trkpt lat="44.66479" lon="0.94003">
        <ele>200</ele>
        <time>2012-06-03T07:19:17Z</time>
      </trkpt>
      <trkpt lat="44.66463" lon="0.9403">
        <ele>200</ele>
        <time>2012-06-03T07:19:22Z</time>
      </trkpt>
      <trkpt lat="44.66442" lon="0.94051">
        <ele>199</ele>
        <time>2012-06-03T07:19:27Z</time>
      </trkpt>
      <trkpt lat="44.66424" lon="0.94076">
        <ele>194</ele>
        <time>2012-06-03T07:19:32Z</time>
      </trkpt>
      <trkpt lat="44.66407" lon="0.94107">
        <ele>190</ele>
        <time>2012-06-03T07:19:37Z</time>
      </trkpt>
      <trkpt lat="44.66388" lon="0.94125">
        <ele>186</ele>
        <time>2012-06-03T07:19:42Z</time>
      </trkpt>
      <trkpt lat="44.66371" lon="0.9414">
        <ele>184</ele>
        <time>2012-06-03T07:19:47Z</time>
      </trkpt>
      <trkpt lat="44.66351" lon="0.9415">
        <ele>182</ele>
        <time>2012-06-03T07:19:52Z</time>
      </trkpt>
      <trkpt lat="44.66329" lon="0.94162">
        <ele>182</ele>
        <time>2012-06-03T07:19:57Z</time>
      </trkpt>
      <trkpt lat="44.66309" lon="0.94177">
        <ele>182</ele>
        <time>2012-06-03T07:20:02Z</time>
      </trkpt>
      <trkpt lat="44.66294" lon="0.94184">
        <ele>184</ele>
        <time>2012-06-03T07:20:07Z</time>
      </trkpt>
      <trkpt lat="44.66282" lon="0.94197">
        <ele>186</ele>
        <time>2012-06-03T07:20:12Z</time>
      </trkpt>
      <trkpt lat="44.66267" lon="0.94213">
        <ele>189</ele>
        <time>2012-06-03T07:20:17Z</time>
      </trkpt>
      <trkpt lat="44.66252" lon="0.94221">
        <ele>193</ele>
        <time>2012-06-03T07:20:22Z</time>
      </trkpt>
      <trkpt lat="44.66246" lon="0.94215">
        <ele>196</ele>
        <time>2012-06-03T07:20:27Z</time>
      </trkpt>
      <trkpt lat="44.66257" lon="0.94202">
        <ele>199</ele>
        <time>2012-06-03T07:20:32Z</time>
      </trkpt>
      <trkpt lat="44.66268" lon="0.94184">
        <ele>202</ele>
        <time>2012-06-03T07:20:37Z</time>
      </trkpt>
      <trkpt lat="44.66275" lon="0.94166">
        <ele>205</ele>
        <time>2012-06-03T07:20:42Z</time>
      </trkpt>
      <trkpt lat="44.66278" lon="0.9414">
        <ele>205</ele>
        <time>2012-06-03T07:20:47Z</time>
      </trkpt>
      <trkpt lat="44.66271" lon="0.94115">
        <ele>204</ele>
        <time>2012-06-03T07:20:52Z</time>
      </trkpt>
      <trkpt lat="44.66262" lon="0.94098">
        <ele>201</ele>
        <time>2012-06-03T07:20:57Z</time>
      </trkpt>
      <trkpt lat="44.66255" lon="0.94081">
        <ele>201</ele>
        <time>2012-06-03T07:21:02Z</time>
      </trkpt>
      <trkpt lat="44.66243" lon="0.94058">
        <ele>199</ele>
        <time>2012-06-03T07:21:07Z</time>
      </trkpt>
      <trkpt lat="44.66231" lon="0.94041">
        <ele>194</ele>
        <time>2012-06-03T07:21:12Z</time>
      </trkpt>
      <trkpt lat="44.6622" lon="0.94021">
        <ele>193</ele>
        <time>2012-06-03T07:21:17Z</time>
      </trkpt>
      <trkpt lat="44.66209" lon="0.93998">
        <ele>193</ele>
        <time>2012-06-03T07:21:22Z</time>
      </trkpt>
      <trkpt lat="44.66198" lon="0.93978">
        <ele>197</ele>
        <time>2012-06-03T07:21:27Z</time>
      </trkpt>
      <trkpt lat="44.66187" lon="0.93963">
        <ele>199</ele>
        <time>2012-06-03T07:21:32Z</time>
      </trkpt>
      <trkpt lat="44.66169" lon="0.93951">
        <ele>199</ele>
        <time>2012-06-03T07:21:37Z</time>
      </trkpt>
      <trkpt lat="44.66153" lon="0.93943">
        <ele>200</ele>
        <time>2012-06-03T07:21:42Z</time>
      </trkpt>
      <trkpt lat="44.66138" lon="0.93938">
        <ele>200</ele>
        <time>2012-06-03T07:21:47Z</time>
      </trkpt>
      <trkpt lat="44.66125" lon="0.93934">
        <ele>200</ele>
        <time>2012-06-03T07:21:52Z</time>
      </trkpt>
      <trkpt lat="44.66111" lon="0.93928">
        <ele>198</ele>
        <time>2012-06-03T07:21:57Z</time>
      </trkpt>
      <trkpt lat="44.66096" lon="0.93923">
        <ele>197</ele>
        <time>2012-06-03T07:22:02Z</time>
      </trkpt>
      <trkpt lat="44.66082" lon="0.93919">
        <ele>197</ele>
        <time>2012-06-03T07:22:07Z</time>
      </trkpt>
      <trkpt lat="44.66068" lon="0.93919">
        <ele>197</ele>
        <time>2012-06-03T07:22:12Z</time>
      </trkpt>
      <trkpt lat="44.66056" lon="0.93919">
        <ele>197</ele>
        <time>2012-06-03T07:22:17Z</time>
      </trkpt>
      <trkpt lat="44.66042" lon="0.93922">
        <ele>200</ele>
        <time>2012-06-03T07:22:22Z</time>
      </trkpt>
      <trkpt lat="44.66026" lon="0.9392">
        <ele>200</ele>
        <time>2012-06-03T07:22:27Z</time>
      </trkpt>
      <trkpt lat="44.66013" lon="0.93919">
        <ele>200</ele>
        <time>2012-06-03T07:22:32Z</time>
      </trkpt>
      <trkpt lat="44.65998" lon="0.93922">
        <ele>200</ele>
        <time>2012-06-03T07:22:37Z</time>
      </trkpt>
      <trkpt lat="44.65982" lon="0.93929">
        <ele>204</ele>
        <time>2012-06-03T07:22:42Z</time>
      </trkpt>
      <trkpt lat="44.65968" lon="0.93937">
        <ele>209</ele>
        <time>2012-06-03T07:22:47Z</time>
      </trkpt>
      <trkpt lat="44.65956" lon="0.93944">
        <ele>214</ele>
        <time>2012-06-03T07:22:52Z</time>
      </trkpt>
      <trkpt lat="44.65941" lon="0.93953">
        <ele>218</ele>
        <time>2012-06-03T07:22:57Z</time>
      </trkpt>
      <trkpt lat="44.65929" lon="0.93967">
        <ele>222</ele>
        <time>2012-06-03T07:23:02Z</time>
      </trkpt>
      <trkpt lat="44.65919" lon="0.93978">
        <ele>226</ele>
        <time>2012-06-03T07:23:07Z</time>
      </trkpt>
      <trkpt lat="44.65907" lon="0.93987">
        <ele>226</ele>
        <time>2012-06-03T07:23:12Z</time>
      </trkpt>
      <trkpt lat="44.65893" lon="0.93995">
        <ele>226</ele>
        <time>2012-06-03T07:23:17Z</time>
      </trkpt>
      <trkpt lat="44.65876" lon="0.93996">
        <ele>226</ele>
        <time>2012-06-03T07:23:22Z</time>
      </trkpt>
      <trkpt lat="44.65861" lon="0.93993">
        <ele>226</ele>
        <time>2012-06-03T07:23:27Z</time>
      </trkpt>
      <trkpt lat="44.65845" lon="0.93986">
        <ele>226</ele>
        <time>2012-06-03T07:23:32Z</time>
      </trkpt>
      <trkpt lat="44.65831" lon="0.93978">
        <ele>226</ele>
        <time>2012-06-03T07:23:37Z</time>
      </trkpt>
      <trkpt lat="44.65821" lon="0.9397">
        <ele>226</ele>
        <time>2012-06-03T07:23:42Z</time>
      </trkpt>
      <trkpt lat="44.65809" lon="0.93961">
        <ele>228</ele>
        <time>2012-06-03T07:23:47Z</time>
      </trkpt>
      <trkpt lat="44.65799" lon="0.93952">
        <ele>230</ele>
        <time>2012-06-03T07:23:52Z</time>
      </trkpt>
      <trkpt lat="44.65793" lon="0.93942">
        <ele>230</ele>
        <time>2012-06-03T07:23:57Z</time>
      </trkpt>
      <trkpt lat="44.65787" lon="0.9393">
        <ele>230</ele>
        <time>2012-06-03T07:24:02Z</time>
      </trkpt>
      <trkpt lat="44.65786" lon="0.93916">
        <ele>230</ele>
        <time>2012-06-03T07:24:07Z</time>
      </trkpt>
      <trkpt lat="44.65785" lon="0.93899">
        <ele>230</ele>
        <time>2012-06-03T07:24:12Z</time>
      </trkpt>
      <trkpt lat="44.65788" lon="0.93883">
        <ele>230</ele>
        <time>2012-06-03T07:24:17Z</time>
      </trkpt>
      <trkpt lat="44.65793" lon="0.93869">
        <ele>229</ele>
        <time>2012-06-03T07:24:22Z</time>
      </trkpt>
      <trkpt lat="44.65796" lon="0.93853">
        <ele>229</ele>
        <time>2012-06-03T07:24:27Z</time>
      </trkpt>
      <trkpt lat="44.65802" lon="0.93835">
        <ele>231</ele>
        <time>2012-06-03T07:24:32Z</time>
      </trkpt>
      <trkpt lat="44.65799" lon="0.93819">
        <ele>231</ele>
        <time>2012-06-03T07:24:37Z</time>
      </trkpt>
      <trkpt lat="44.65791" lon="0.93805">
        <ele>230</ele>
        <time>2012-06-03T07:24:42Z</time>
      </trkpt>
      <trkpt lat="44.65785" lon="0.93795">
        <ele>227</ele>
        <time>2012-06-03T07:24:47Z</time>
      </trkpt>
      <trkpt lat="44.65778" lon="0.93785">
        <ele>227</ele>
        <time>2012-06-03T07:24:52Z</time>
      </trkpt>
      <trkpt lat="44.65771" lon="0.93772">
        <ele>227</ele>
        <time>2012-06-03T07:24:57Z</time>
      </trkpt>
      <trkpt lat="44.65761" lon="0.93758">
        <ele>228</ele>
        <time>2012-06-03T07:25:02Z</time>
      </trkpt>
      <trkpt lat="44.65748" lon="0.93745">
        <ele>229</ele>
        <time>2012-06-03T07:25:07Z</time>
      </trkpt>
      <trkpt lat="44.65735" lon="0.93734">
        <ele>229</ele>
        <time>2012-06-03T07:25:12Z</time>
      </trkpt>
      <trkpt lat="44.65722" lon="0.93725">
        <ele>229</ele>
        <time>2012-06-03T07:25:17Z</time>
      </trkpt>
      <trkpt lat="44.65708" lon="0.93715">
        <ele>229</ele>
        <time>2012-06-03T07:25:22Z</time>
      </trkpt>
      <trkpt lat="44.65695" lon="0.93704">
        <ele>229</ele>
        <time>2012-06-03T07:25:27Z</time>
      </trkpt>
      <trkpt lat="44.65681" lon="0.93695">
        <ele>230</ele>
        <time>2012-06-03T07:25:32Z</time>
      </trkpt>
      <trkpt lat="44.65669" lon="0.93683">
        <ele>230</ele>
        <time>2012-06-03T07:25:37Z</time>
      </trkpt>
      <trkpt lat="44.65657" lon="0.93671">
        <ele>233</ele>
        <time>2012-06-03T07:25:42Z</time>
      </trkpt>
      <trkpt lat="44.65645" lon="0.93657">
        <ele>237</ele>
        <time>2012-06-03T07:25:47Z</time>
      </trkpt>
      <trkpt lat="44.65636" lon="0.9364">
        <ele>241</ele>
        <time>2012-06-03T07:25:52Z</time>
      </trkpt>
      <trkpt lat="44.65627" lon="0.9362">
        <ele>246</ele>
        <time>2012-06-03T07:25:57Z</time>
      </trkpt>
      <trkpt lat="44.6562" lon="0.93608">
        <ele>250</ele>
        <time>2012-06-03T07:26:02Z</time>
      </trkpt>
      <trkpt lat="44.65612" lon="0.93593">
        <ele>250</ele>
        <time>2012-06-03T07:26:07Z</time>
      </trkpt>
      <trkpt lat="44.65605" lon="0.93573">
        <ele>250</ele>
        <time>2012-06-03T07:26:12Z</time>
      </trkpt>
      <trkpt lat="44.65591" lon="0.93553">
        <ele>247</ele>
        <time>2012-06-03T07:26:17Z</time>
      </trkpt>
      <trkpt lat="44.6558" lon="0.93531">
        <ele>246</ele>
        <time>2012-06-03T07:26:22Z</time>
      </trkpt>
      <trkpt lat="44.65566" lon="0.93502">
        <ele>243</ele>
        <time>2012-06-03T07:26:27Z</time>
      </trkpt>
      <trkpt lat="44.65551" lon="0.93473">
        <ele>241</ele>
        <time>2012-06-03T07:26:32Z</time>
      </trkpt>
      <trkpt lat="44.65539" lon="0.93445">
        <ele>239</ele>
        <time>2012-06-03T07:26:37Z</time>
      </trkpt>
      <trkpt lat="44.65528" lon="0.93417">
        <ele>239</ele>
        <time>2012-06-03T07:26:42Z</time>
      </trkpt>
      <trkpt lat="44.65516" lon="0.93392">
        <ele>238</ele>
        <time>2012-06-03T07:26:47Z</time>
      </trkpt>
      <trkpt lat="44.65507" lon="0.93365">
        <ele>237</ele>
        <time>2012-06-03T07:26:52Z</time>
      </trkpt>
      <trkpt lat="44.655" lon="0.93344">
        <ele>237</ele>
        <time>2012-06-03T07:26:57Z</time>
      </trkpt>
      <trkpt lat="44.65495" lon="0.93326">
        <ele>237</ele>
        <time>2012-06-03T07:27:02Z</time>
      </trkpt>
      <trkpt lat="44.65488" lon="0.93303">
        <ele>237</ele>
        <time>2012-06-03T07:27:07Z</time>
      </trkpt>
      <trkpt lat="44.6548" lon="0.93277">
        <ele>238</ele>
        <time>2012-06-03T07:27:12Z</time>
      </trkpt>
      <trkpt lat="44.65467" lon="0.93256">
        <ele>238</ele>
        <time>2012-06-03T07:27:17Z</time>
      </trkpt>
      <trkpt lat="44.65456" lon="0.93238">
        <ele>237</ele>
        <time>2012-06-03T07:27:22Z</time>
      </trkpt>
      <trkpt lat="44.65449" lon="0.93224">
        <ele>237</ele>
        <time>2012-06-03T07:27:27Z</time>
      </trkpt>
      <trkpt lat="44.65445" lon="0.93219">
        <ele>237</ele>
        <time>2012-06-03T07:27:32Z</time>
      </trkpt>
      <trkpt lat="44.65436" lon="0.93221">
        <ele>237</ele>
        <time>2012-06-03T07:27:37Z</time>
      </trkpt>
      <trkpt lat="44.6543" lon="0.93233">
        <ele>237</ele>
        <time>2012-06-03T07:27:42Z</time>
      </trkpt>
      <trkpt lat="44.65423" lon="0.93245">
        <ele>239</ele>
        <time>2012-06-03T07:27:47Z</time>
      </trkpt>
      <trkpt lat="44.65413" lon="0.93264">
        <ele>243</ele>
        <time>2012-06-03T07:27:52Z</time>
      </trkpt>
      <trkpt lat="44.65401" lon="0.93278">
        <ele>248</ele>
        <time>2012-06-03T07:27:57Z</time>
      </trkpt>
      <trkpt lat="44.65391" lon="0.93299">
        <ele>253</ele>
        <time>2012-06-03T07:28:02Z</time>
      </trkpt>
      <trkpt lat="44.65381" lon="0.93314">
        <ele>258</ele>
        <time>2012-06-03T07:28:07Z</time>
      </trkpt>
      <trkpt lat="44.65372" lon="0.93332">
        <ele>260</ele>
        <time>2012-06-03T07:28:12Z</time>
      </trkpt>
      <trkpt lat="44.65365" lon="0.93352">
        <ele>260</ele>
        <time>2012-06-03T07:28:17Z</time>
      </trkpt>
      <trkpt lat="44.65355" lon="0.93372">
        <ele>260</ele>
        <time>2012-06-03T07:28:22Z</time>
      </trkpt>
      <trkpt lat="44.65342" lon="0.93381">
        <ele>260</ele>
        <time>2012-06-03T07:28:27Z</time>
      </trkpt>
      <trkpt lat="44.65327" lon="0.9339">
        <ele>255</ele>
        <time>2012-06-03T07:28:32Z</time>
      </trkpt>
      <trkpt lat="44.65317" lon="0.93408">
        <ele>252</ele>
        <time>2012-06-03T07:28:37Z</time>
      </trkpt>
      <trkpt lat="44.65305" lon="0.93424">
        <ele>251</ele>
        <time>2012-06-03T07:28:42Z</time>
      </trkpt>
      <trkpt lat="44.65289" lon="0.93432">
        <ele>249</ele>
        <time>2012-06-03T07:28:47Z</time>
      </trkpt>
      <trkpt lat="44.65271" lon="0.93442">
        <ele>248</ele>
        <time>2012-06-03T07:28:52Z</time>
      </trkpt>
      <trkpt lat="44.65257" lon="0.93458">
        <ele>248</ele>
        <time>2012-06-03T07:28:57Z</time>
      </trkpt>
      <trkpt lat="44.65244" lon="0.93476">
        <ele>248</ele>
        <time>2012-06-03T07:29:02Z</time>
      </trkpt>
      <trkpt lat="44.65231" lon="0.93491">
        <ele>249</ele>
        <time>2012-06-03T07:29:07Z</time>
      </trkpt>
      <trkpt lat="44.6522" lon="0.93503">
        <ele>249</ele>
        <time>2012-06-03T07:29:12Z</time>
      </trkpt>
      <trkpt lat="44.65212" lon="0.93515">
        <ele>249</ele>
        <time>2012-06-03T07:29:17Z</time>
      </trkpt>
      <trkpt lat="44.65201" lon="0.93529">
        <ele>249</ele>
        <time>2012-06-03T07:29:22Z</time>
      </trkpt>
      <trkpt lat="44.65186" lon="0.9354">
        <ele>249</ele>
        <time>2012-06-03T07:29:27Z</time>
      </trkpt>
      <trkpt lat="44.65173" lon="0.93554">
        <ele>250</ele>
        <time>2012-06-03T07:29:32Z</time>
      </trkpt>
      <trkpt lat="44.65158" lon="0.93572">
        <ele>252</ele>
        <time>2012-06-03T07:29:37Z</time>
      </trkpt>
      <trkpt lat="44.65142" lon="0.93593">
        <ele>254</ele>
        <time>2012-06-03T07:29:42Z</time>
      </trkpt>
      <trkpt lat="44.65128" lon="0.93612">
        <ele>254</ele>
        <time>2012-06-03T07:29:47Z</time>
      </trkpt>
      <trkpt lat="44.65111" lon="0.93634">
        <ele>252</ele>
        <time>2012-06-03T07:29:52Z</time>
      </trkpt>
      <trkpt lat="44.65096" lon="0.93665">
        <ele>248</ele>
        <time>2012-06-03T07:29:57Z</time>
      </trkpt>
      <trkpt lat="44.65068" lon="0.93694">
        <ele>247</ele>
        <time>2012-06-03T07:30:02Z</time>
      </trkpt>
      <trkpt lat="44.65044" lon="0.9372">
        <ele>248</ele>
        <time>2012-06-03T07:30:07Z</time>
      </trkpt>
      <trkpt lat="44.65031" lon="0.93733">
        <ele>248</ele>
        <time>2012-06-03T07:30:12Z</time>
      </trkpt>
      <trkpt lat="44.65015" lon="0.9375">
        <ele>248</ele>
        <time>2012-06-03T07:30:17Z</time>
      </trkpt>
      <trkpt lat="44.64995" lon="0.93781">
        <ele>248</ele>
        <time>2012-06-03T07:30:22Z</time>
      </trkpt>
      <trkpt lat="44.64989" lon="0.93805">
        <ele>248</ele>
        <time>2012-06-03T07:30:27Z</time>
      </trkpt>
      <trkpt lat="44.64989" lon="0.93834">
        <ele>248</ele>
        <time>2012-06-03T07:30:32Z</time>
      </trkpt>
      <trkpt lat="44.64984" lon="0.93868">
        <ele>245</ele>
        <time>2012-06-03T07:30:37Z</time>
      </trkpt>
      <trkpt lat="44.64982" lon="0.93913">
        <ele>240</ele>
        <time>2012-06-03T07:30:42Z</time>
      </trkpt>
      <trkpt lat="44.64976" lon="0.93978">
        <ele>230</ele>
        <time>2012-06-03T07:30:47Z</time>
      </trkpt>
      <trkpt lat="44.64973" lon="0.94035">
        <ele>224</ele>
        <time>2012-06-03T07:30:52Z</time>
      </trkpt>
      <trkpt lat="44.64973" lon="0.94085">
        <ele>219</ele>
        <time>2012-06-03T07:30:57Z</time>
      </trkpt>
      <trkpt lat="44.64973" lon="0.94128">
        <ele>218</ele>
        <time>2012-06-03T07:31:02Z</time>
      </trkpt>
      <trkpt lat="44.64984" lon="0.94165">
        <ele>218</ele>
        <time>2012-06-03T07:31:07Z</time>
      </trkpt>
      <trkpt lat="44.65002" lon="0.94192">
        <ele>218</ele>
        <time>2012-06-03T07:31:12Z</time>
      </trkpt>
      <trkpt lat="44.65004" lon="0.94206">
        <ele>223</ele>
        <time>2012-06-03T07:31:17Z</time>
      </trkpt>
      <trkpt lat="44.64995" lon="0.94217">
        <ele>226</ele>
        <time>2012-06-03T07:31:22Z</time>
      </trkpt>
      <trkpt lat="44.64982" lon="0.94222">
        <ele>226</ele>
        <time>2012-06-03T07:31:27Z</time>
      </trkpt>
      <trkpt lat="44.64971" lon="0.94236">
        <ele>224</ele>
        <time>2012-06-03T07:31:32Z</time>
      </trkpt>
      <trkpt lat="44.64959" lon="0.94242">
        <ele>224</ele>
        <time>2012-06-03T07:31:37Z</time>
      </trkpt>
      <trkpt lat="44.64943" lon="0.94247">
        <ele>224</ele>
        <time>2012-06-03T07:31:42Z</time>
      </trkpt>
      <trkpt lat="44.64927" lon="0.94251">
        <ele>224</ele>
        <time>2012-06-03T07:31:47Z</time>
      </trkpt>
      <trkpt lat="44.64906" lon="0.94265">
        <ele>229</ele>
        <time>2012-06-03T07:31:52Z</time>
      </trkpt>
      <trkpt lat="44.64891" lon="0.94278">
        <ele>231</ele>
        <time>2012-06-03T07:31:57Z</time>
      </trkpt>
      <trkpt lat="44.64886" lon="0.94289">
        <ele>231</ele>
        <time>2012-06-03T07:32:02Z</time>
      </trkpt>
      <trkpt lat="44.64881" lon="0.94303">
        <ele>234</ele>
        <time>2012-06-03T07:32:07Z</time>
      </trkpt>
      <trkpt lat="44.64878" lon="0.94314">
        <ele>239</ele>
        <time>2012-06-03T07:32:12Z</time>
      </trkpt>
      <trkpt lat="44.64873" lon="0.94332">
        <ele>244</ele>
        <time>2012-06-03T07:32:17Z</time>
      </trkpt>
      <trkpt lat="44.64865" lon="0.9435">
        <ele>249</ele>
        <time>2012-06-03T07:32:22Z</time>
      </trkpt>
      <trkpt lat="44.64857" lon="0.94369">
        <ele>254</ele>
        <time>2012-06-03T07:32:27Z</time>
      </trkpt>
      <trkpt lat="44.64851" lon="0.94388">
        <ele>259</ele>
        <time>2012-06-03T07:32:32Z</time>
      </trkpt>
      <trkpt lat="44.64843" lon="0.94407">
        <ele>261</ele>
        <time>2012-06-03T07:32:37Z</time>
      </trkpt>
      <trkpt lat="44.64828" lon="0.94425">
        <ele>254</ele>
        <time>2012-06-03T07:32:42Z</time>
      </trkpt>
      <trkpt lat="44.64816" lon="0.94445">
        <ele>247</ele>
        <time>2012-06-03T07:32:47Z</time>
      </trkpt>
      <trkpt lat="44.64808" lon="0.9446">
        <ele>242</ele>
        <time>2012-06-03T07:32:52Z</time>
      </trkpt>
      <trkpt lat="44.64797" lon="0.94461">
        <ele>239</ele>
        <time>2012-06-03T07:32:57Z</time>
      </trkpt>
      <trkpt lat="44.64787" lon="0.94459">
        <ele>239</ele>
        <time>2012-06-03T07:33:02Z</time>
      </trkpt>
      <trkpt lat="44.6478" lon="0.94459">
        <ele>239</ele>
        <time>2012-06-03T07:33:07Z</time>
      </trkpt>
      <trkpt lat="44.64769" lon="0.94457">
        <ele>243</ele>
        <time>2012-06-03T07:33:12Z</time>
      </trkpt>
      <trkpt lat="44.64761" lon="0.94458">
        <ele>243</ele>
        <time>2012-06-03T07:33:17Z</time>
      </trkpt>
      <trkpt lat="44.64751" lon="0.94458">
        <ele>243</ele>
        <time>2012-06-03T07:33:22Z</time>
      </trkpt>
      <trkpt lat="44.64741" lon="0.94459">
        <ele>241</ele>
        <time>2012-06-03T07:33:27Z</time>
      </trkpt>
      <trkpt lat="44.64731" lon="0.94462">
        <ele>241</ele>
        <time>2012-06-03T07:33:32Z</time>
      </trkpt>
      <trkpt lat="44.64721" lon="0.9446">
        <ele>241</ele>
        <time>2012-06-03T07:33:37Z</time>
      </trkpt>
      <trkpt lat="44.6471" lon="0.94456">
        <ele>241</ele>
        <time>2012-06-03T07:33:42Z</time>
      </trkpt>
      <trkpt lat="44.64696" lon="0.94458">
        <ele>241</ele>
        <time>2012-06-03T07:33:47Z</time>
      </trkpt>
      <trkpt lat="44.64679" lon="0.94458">
        <ele>241</ele>
        <time>2012-06-03T07:33:52Z</time>
      </trkpt>
      <trkpt lat="44.64668" lon="0.94456">
        <ele>245</ele>
        <time>2012-06-03T07:33:57Z</time>
      </trkpt>
      <trkpt lat="44.64652" lon="0.94457">
        <ele>247</ele>
        <time>2012-06-03T07:34:02Z</time>
      </trkpt>
      <trkpt lat="44.64637" lon="0.94456">
        <ele>252</ele>
        <time>2012-06-03T07:34:07Z</time>
      </trkpt>
      <trkpt lat="44.6462" lon="0.94455">
        <ele>253</ele>
        <time>2012-06-03T07:34:12Z</time>
      </trkpt>
      <trkpt lat="44.64608" lon="0.94457">
        <ele>254</ele>
        <time>2012-06-03T07:34:17Z</time>
      </trkpt>
      <trkpt lat="44.64595" lon="0.94457">
        <ele>254</ele>
        <time>2012-06-03T07:34:22Z</time>
      </trkpt>
      <trkpt lat="44.64579" lon="0.94453">
        <ele>254</ele>
        <time>2012-06-03T07:34:27Z</time>
      </trkpt>
      <trkpt lat="44.64569" lon="0.94443">
        <ele>253</ele>
        <time>2012-06-03T07:34:32Z</time>
      </trkpt>
      <trkpt lat="44.64555" lon="0.94434">
        <ele>250</ele>
        <time>2012-06-03T07:34:37Z</time>
      </trkpt>
      <trkpt lat="44.64543" lon="0.94423">
        <ele>246</ele>
        <time>2012-06-03T07:34:42Z</time>
      </trkpt>
      <trkpt lat="44.64533" lon="0.94413">
        <ele>246</ele>
        <time>2012-06-03T07:34:47Z</time>
      </trkpt>
      <trkpt lat="44.64524" lon="0.94403">
        <ele>246</ele>
        <time>2012-06-03T07:34:52Z</time>
      </trkpt>
      <trkpt lat="44.64518" lon="0.94393">
        <ele>246</ele>
        <time>2012-06-03T07:34:57Z</time>
      </trkpt>
      <trkpt lat="44.64508" lon="0.94387">
        <ele>246</ele>
        <time>2012-06-03T07:35:02Z</time>
      </trkpt>
      <trkpt lat="44.64495" lon="0.94391">
        <ele>250</ele>
        <time>2012-06-03T07:35:07Z</time>
      </trkpt>
      <trkpt lat="44.64486" lon="0.9439">
        <ele>254</ele>
        <time>2012-06-03T07:35:12Z</time>
      </trkpt>
      <trkpt lat="44.64485" lon="0.94386">
        <ele>256</ele>
        <time>2012-06-03T07:35:18Z</time>
      </trkpt>
      <trkpt lat="44.64479" lon="0.94392">
        <ele>258</ele>
        <time>2012-06-03T07:35:23Z</time>
      </trkpt>
      <trkpt lat="44.64473" lon="0.94395">
        <ele>260</ele>
        <time>2012-06-03T07:35:28Z</time>
      </trkpt>
      <trkpt lat="44.64471" lon="0.94399">
        <ele>260</ele>
        <time>2012-06-03T07:35:33Z</time>
      </trkpt>
      <trkpt lat="44.6447" lon="0.94397">
        <ele>260</ele>
        <time>2012-06-03T07:35:38Z</time>
      </trkpt>
      <trkpt lat="44.64463" lon="0.94396">
        <ele>260</ele>
        <time>2012-06-03T07:35:43Z</time>
      </trkpt>
      <trkpt lat="44.64452" lon="0.94394">
        <ele>260</ele>
        <time>2012-06-03T07:35:48Z</time>
      </trkpt>
      <trkpt lat="44.64439" lon="0.94392">
        <ele>260</ele>
        <time>2012-06-03T07:35:53Z</time>
      </trkpt>
      <trkpt lat="44.64429" lon="0.94389">
        <ele>259</ele>
        <time>2012-06-03T07:35:58Z</time>
      </trkpt>
      <trkpt lat="44.64418" lon="0.94385">
        <ele>259</ele>
        <time>2012-06-03T07:36:03Z</time>
      </trkpt>
      <trkpt lat="44.64408" lon="0.9438">
        <ele>259</ele>
        <time>2012-06-03T07:36:08Z</time>
      </trkpt>
      <trkpt lat="44.64397" lon="0.94372">
        <ele>259</ele>
        <time>2012-06-03T07:36:13Z</time>
      </trkpt>
      <trkpt lat="44.64388" lon="0.94366">
        <ele>262</ele>
        <time>2012-06-03T07:36:18Z</time>
      </trkpt>
      <trkpt lat="44.64378" lon="0.94362">
        <ele>262</ele>
        <time>2012-06-03T07:36:23Z</time>
      </trkpt>
      <trkpt lat="44.6437" lon="0.94358">
        <ele>262</ele>
        <time>2012-06-03T07:36:28Z</time>
      </trkpt>
      <trkpt lat="44.64363" lon="0.94351">
        <ele>262</ele>
        <time>2012-06-03T07:36:33Z</time>
      </trkpt>
      <trkpt lat="44.64348" lon="0.94343">
        <ele>262</ele>
        <time>2012-06-03T07:36:38Z</time>
      </trkpt>
      <trkpt lat="44.64331" lon="0.94336">
        <ele>262</ele>
        <time>2012-06-03T07:36:43Z</time>
      </trkpt>
      <trkpt lat="44.64322" lon="0.94329">
        <ele>257</ele>
        <time>2012-06-03T07:36:48Z</time>
      </trkpt>
      <trkpt lat="44.64309" lon="0.94324">
        <ele>256</ele>
        <time>2012-06-03T07:36:53Z</time>
      </trkpt>
      <trkpt lat="44.64302" lon="0.94317">
        <ele>256</ele>
        <time>2012-06-03T07:36:58Z</time>
      </trkpt>
      <trkpt lat="44.64289" lon="0.94315">
        <ele>256</ele>
        <time>2012-06-03T07:37:03Z</time>
      </trkpt>
      <trkpt lat="44.64273" lon="0.94313">
        <ele>258</ele>
        <time>2012-06-03T07:37:08Z</time>
      </trkpt>
      <trkpt lat="44.6426" lon="0.94313">
        <ele>260</ele>
        <time>2012-06-03T07:37:13Z</time>
      </trkpt>
      <trkpt lat="44.64249" lon="0.94314">
        <ele>262</ele>
        <time>2012-06-03T07:37:18Z</time>
      </trkpt>
      <trkpt lat="44.64235" lon="0.94314">
        <ele>263</ele>
        <time>2012-06-03T07:37:23Z</time>
      </trkpt>
      <trkpt lat="44.64218" lon="0.94322">
        <ele>264</ele>
        <time>2012-06-03T07:37:28Z</time>
      </trkpt>
      <trkpt lat="44.64195" lon="0.94327">
        <ele>264</ele>
        <time>2012-06-03T07:37:33Z</time>
      </trkpt>
      <trkpt lat="44.6418" lon="0.94333">
        <ele>264</ele>
        <time>2012-06-03T07:37:38Z</time>
      </trkpt>
      <trkpt lat="44.64163" lon="0.94342">
        <ele>264</ele>
        <time>2012-06-03T07:37:43Z</time>
      </trkpt>
      <trkpt lat="44.64139" lon="0.94349">
        <ele>260</ele>
        <time>2012-06-03T07:37:48Z</time>
      </trkpt>
      <trkpt lat="44.64119" lon="0.94357">
        <ele>259</ele>
        <time>2012-06-03T07:37:53Z</time>
      </trkpt>
      <trkpt lat="44.64096" lon="0.94365">
        <ele>259</ele>
        <time>2012-06-03T07:37:58Z</time>
      </trkpt>
      <trkpt lat="44.6408" lon="0.94382">
        <ele>259</ele>
        <time>2012-06-03T07:38:03Z</time>
      </trkpt>
      <trkpt lat="44.64067" lon="0.94392">
        <ele>259</ele>
        <time>2012-06-03T07:38:08Z</time>
      </trkpt>
      <trkpt lat="44.64047" lon="0.94401">
        <ele>259</ele>
        <time>2012-06-03T07:38:14Z</time>
      </trkpt>
      <trkpt lat="44.6403" lon="0.94394">
        <ele>260</ele>
        <time>2012-06-03T07:38:19Z</time>
      </trkpt>
      <trkpt lat="44.64003" lon="0.94393">
        <ele>261</ele>
        <time>2012-06-03T07:38:24Z</time>
      </trkpt>
      <trkpt lat="44.63979" lon="0.94393">
        <ele>261</ele>
        <time>2012-06-03T07:38:29Z</time>
      </trkpt>
      <trkpt lat="44.63964" lon="0.94378">
        <ele>261</ele>
        <time>2012-06-03T07:38:34Z</time>
      </trkpt>
      <trkpt lat="44.63967" lon="0.94354">
        <ele>260</ele>
        <time>2012-06-03T07:38:39Z</time>
      </trkpt>
      <trkpt lat="44.63978" lon="0.94319">
        <ele>258</ele>
        <time>2012-06-03T07:38:44Z</time>
      </trkpt>
      <trkpt lat="44.63974" lon="0.94281">
        <ele>256</ele>
        <time>2012-06-03T07:38:49Z</time>
      </trkpt>
      <trkpt lat="44.6398" lon="0.94252">
        <ele>251</ele>
        <time>2012-06-03T07:38:54Z</time>
      </trkpt>
      <trkpt lat="44.63989" lon="0.94216">
        <ele>247</ele>
        <time>2012-06-03T07:38:59Z</time>
      </trkpt>
      <trkpt lat="44.63993" lon="0.94188">
        <ele>247</ele>
        <time>2012-06-03T07:39:04Z</time>
      </trkpt>
      <trkpt lat="44.63993" lon="0.94166">
        <ele>249</ele>
        <time>2012-06-03T07:39:09Z</time>
      </trkpt>
      <trkpt lat="44.63998" lon="0.9414">
        <ele>254</ele>
        <time>2012-06-03T07:39:14Z</time>
      </trkpt>
      <trkpt lat="44.63992" lon="0.94115">
        <ele>259</ele>
        <time>2012-06-03T07:39:19Z</time>
      </trkpt>
      <trkpt lat="44.6398" lon="0.94098">
        <ele>260</ele>
        <time>2012-06-03T07:39:24Z</time>
      </trkpt>
      <trkpt lat="44.63975" lon="0.94072">
        <ele>260</ele>
        <time>2012-06-03T07:39:29Z</time>
      </trkpt>
      <trkpt lat="44.63974" lon="0.94048">
        <ele>260</ele>
        <time>2012-06-03T07:39:34Z</time>
      </trkpt>
      <trkpt lat="44.63972" lon="0.94022">
        <ele>260</ele>
        <time>2012-06-03T07:39:39Z</time>
      </trkpt>
      <trkpt lat="44.63963" lon="0.93996">
        <ele>257</ele>
        <time>2012-06-03T07:39:44Z</time>
      </trkpt>
      <trkpt lat="44.63961" lon="0.93967">
        <ele>254</ele>
        <time>2012-06-03T07:39:49Z</time>
      </trkpt>
      <trkpt lat="44.63972" lon="0.93944">
        <ele>254</ele>
        <time>2012-06-03T07:39:54Z</time>
      </trkpt>
      <trkpt lat="44.63978" lon="0.93921">
        <ele>254</ele>
        <time>2012-06-03T07:39:59Z</time>
      </trkpt>
      <trkpt lat="44.63978" lon="0.939">
        <ele>254</ele>
        <time>2012-06-03T07:40:04Z</time>
      </trkpt>
      <trkpt lat="44.63973" lon="0.93881">
        <ele>254</ele>
        <time>2012-06-03T07:40:09Z</time>
      </trkpt>
      <trkpt lat="44.63971" lon="0.93862">
        <ele>253</ele>
        <time>2012-06-03T07:40:14Z</time>
      </trkpt>
      <trkpt lat="44.63963" lon="0.93842">
        <ele>253</ele>
        <time>2012-06-03T07:40:19Z</time>
      </trkpt>
      <trkpt lat="44.63956" lon="0.9382">
        <ele>253</ele>
        <time>2012-06-03T07:40:24Z</time>
      </trkpt>
      <trkpt lat="44.63947" lon="0.93797">
        <ele>253</ele>
        <time>2012-06-03T07:40:29Z</time>
      </trkpt>
      <trkpt lat="44.6394" lon="0.93786">
        <ele>254</ele>
        <time>2012-06-03T07:40:34Z</time>
      </trkpt>
      <trkpt lat="44.63932" lon="0.93791">
        <ele>256</ele>
        <time>2012-06-03T07:40:39Z</time>
      </trkpt>
      <trkpt lat="44.63922" lon="0.93806">
        <ele>256</ele>
        <time>2012-06-03T07:40:44Z</time>
      </trkpt>
      <trkpt lat="44.63905" lon="0.93811">
        <ele>256</ele>
        <time>2012-06-03T07:40:49Z</time>
      </trkpt>
      <trkpt lat="44.63892" lon="0.93788">
        <ele>256</ele>
        <time>2012-06-03T07:40:54Z</time>
      </trkpt>
      <trkpt lat="44.63883" lon="0.93765">
        <ele>256</ele>
        <time>2012-06-03T07:40:59Z</time>
      </trkpt>
      <trkpt lat="44.6387" lon="0.93742">
        <ele>256</ele>
        <time>2012-06-03T07:41:04Z</time>
      </trkpt>
      <trkpt lat="44.63857" lon="0.93718">
        <ele>256</ele>
        <time>2012-06-03T07:41:09Z</time>
      </trkpt>
      <trkpt lat="44.63845" lon="0.93704">
        <ele>257</ele>
        <time>2012-06-03T07:41:14Z</time>
      </trkpt>
      <trkpt lat="44.63828" lon="0.93711">
        <ele>260</ele>
        <time>2012-06-03T07:41:19Z</time>
      </trkpt>
      <trkpt lat="44.63812" lon="0.93702">
        <ele>262</ele>
        <time>2012-06-03T07:41:24Z</time>
      </trkpt>
      <trkpt lat="44.63807" lon="0.93684">
        <ele>262</ele>
        <time>2012-06-03T07:41:29Z</time>
      </trkpt>
      <trkpt lat="44.63802" lon="0.93635">
        <ele>248</ele>
        <time>2012-06-03T07:41:39Z</time>
      </trkpt>
      <trkpt lat="44.638" lon="0.93587">
        <ele>233</ele>
        <time>2012-06-03T07:41:49Z</time>
      </trkpt>
      <trkpt lat="44.63791" lon="0.93539">
        <ele>220</ele>
        <time>2012-06-03T07:41:59Z</time>
      </trkpt>
      <trkpt lat="44.6376" lon="0.93466">
        <ele>212</ele>
        <time>2012-06-03T07:42:19Z</time>
      </trkpt>
      <trkpt lat="44.63738" lon="0.9344">
        <ele>234</ele>
        <time>2012-06-03T07:42:39Z</time>
      </trkpt>
      <trkpt lat="44.63618" lon="0.93404">
        <ele>269</ele>
        <time>2012-06-03T07:43:14Z</time>
      </trkpt>
      <trkpt lat="44.63511" lon="0.93459">
        <ele>270</ele>
        <time>2012-06-03T07:43:44Z</time>
      </trkpt>
      <trkpt lat="44.63478" lon="0.93471">
        <ele>270</ele>
        <time>2012-06-03T07:43:54Z</time>
      </trkpt>
      <trkpt lat="44.63441" lon="0.93475">
        <ele>276</ele>
        <time>2012-06-03T07:44:04Z</time>
      </trkpt>
      <trkpt lat="44.63424" lon="0.9347">
        <ele>279</ele>
        <time>2012-06-03T07:44:09Z</time>
      </trkpt>
      <trkpt lat="44.6341" lon="0.93478">
        <ele>280</ele>
        <time>2012-06-03T07:44:14Z</time>
      </trkpt>
      <trkpt lat="44.63391" lon="0.93484">
        <ele>281</ele>
        <time>2012-06-03T07:44:19Z</time>
      </trkpt>
      <trkpt lat="44.63372" lon="0.9347">
        <ele>281</ele>
        <time>2012-06-03T07:44:24Z</time>
      </trkpt>
      <trkpt lat="44.63353" lon="0.93449">
        <ele>278</ele>
        <time>2012-06-03T07:44:29Z</time>
      </trkpt>
      <trkpt lat="44.63321" lon="0.93422">
        <ele>276</ele>
        <time>2012-06-03T07:44:34Z</time>
      </trkpt>
      <trkpt lat="44.63304" lon="0.93386">
        <ele>273</ele>
        <time>2012-06-03T07:44:39Z</time>
      </trkpt>
      <trkpt lat="44.63287" lon="0.93353">
        <ele>269</ele>
        <time>2012-06-03T07:44:44Z</time>
      </trkpt>
      <trkpt lat="44.6327" lon="0.93313">
        <ele>263</ele>
        <time>2012-06-03T07:44:49Z</time>
      </trkpt>
      <trkpt lat="44.63251" lon="0.93287">
        <ele>258</ele>
        <time>2012-06-03T07:44:54Z</time>
      </trkpt>
      <trkpt lat="44.63225" lon="0.93264">
        <ele>253</ele>
        <time>2012-06-03T07:44:59Z</time>
      </trkpt>
      <trkpt lat="44.63193" lon="0.93252">
        <ele>248</ele>
        <time>2012-06-03T07:45:04Z</time>
      </trkpt>
      <trkpt lat="44.63163" lon="0.93246">
        <ele>245</ele>
        <time>2012-06-03T07:45:09Z</time>
      </trkpt>
      <trkpt lat="44.63138" lon="0.93255">
        <ele>244</ele>
        <time>2012-06-03T07:45:14Z</time>
      </trkpt>
      <trkpt lat="44.63113" lon="0.93271">
        <ele>244</ele>
        <time>2012-06-03T07:45:19Z</time>
      </trkpt>
      <trkpt lat="44.63086" lon="0.93288">
        <ele>243</ele>
        <time>2012-06-03T07:45:24Z</time>
      </trkpt>
      <trkpt lat="44.63058" lon="0.9329">
        <ele>243</ele>
        <time>2012-06-03T07:45:29Z</time>
      </trkpt>
      <trkpt lat="44.63033" lon="0.93287">
        <ele>243</ele>
        <time>2012-06-03T07:45:34Z</time>
      </trkpt>
      <trkpt lat="44.63008" lon="0.93288">
        <ele>246</ele>
        <time>2012-06-03T07:45:39Z</time>
      </trkpt>
      <trkpt lat="44.62981" lon="0.93293">
        <ele>249</ele>
        <time>2012-06-03T07:45:44Z</time>
      </trkpt>
      <trkpt lat="44.62959" lon="0.93298">
        <ele>250</ele>
        <time>2012-06-03T07:45:49Z</time>
      </trkpt>
      <trkpt lat="44.62934" lon="0.933">
        <ele>251</ele>
        <time>2012-06-03T07:45:54Z</time>
      </trkpt>
      <trkpt lat="44.62906" lon="0.93305">
        <ele>251</ele>
        <time>2012-06-03T07:45:59Z</time>
      </trkpt>
      <trkpt lat="44.6288" lon="0.93312">
        <ele>249</ele>
        <time>2012-06-03T07:46:04Z</time>
      </trkpt>
      <trkpt lat="44.62852" lon="0.93321">
        <ele>247</ele>
        <time>2012-06-03T07:46:09Z</time>
      </trkpt>
      <trkpt lat="44.62823" lon="0.93335">
        <ele>244</ele>
        <time>2012-06-03T07:46:14Z</time>
      </trkpt>
      <trkpt lat="44.62781" lon="0.93353">
        <ele>243</ele>
        <time>2012-06-03T07:46:20Z</time>
      </trkpt>
      <trkpt lat="44.62741" lon="0.93379">
        <ele>240</ele>
        <time>2012-06-03T07:46:25Z</time>
      </trkpt>
      <trkpt lat="44.62703" lon="0.93407">
        <ele>234</ele>
        <time>2012-06-03T07:46:30Z</time>
      </trkpt>
      <trkpt lat="44.62654" lon="0.93411">
        <ele>228</ele>
        <time>2012-06-03T07:46:36Z</time>
      </trkpt>
      <trkpt lat="44.62622" lon="0.93379">
        <ele>223</ele>
        <time>2012-06-03T07:46:41Z</time>
      </trkpt>
      <trkpt lat="44.62608" lon="0.93321">
        <ele>220</ele>
        <time>2012-06-03T07:46:46Z</time>
      </trkpt>
      <trkpt lat="44.62589" lon="0.93272">
        <ele>219</ele>
        <time>2012-06-03T07:46:51Z</time>
      </trkpt>
      <trkpt lat="44.62556" lon="0.93233">
        <ele>219</ele>
        <time>2012-06-03T07:46:56Z</time>
      </trkpt>
      <trkpt lat="44.62525" lon="0.93192">
        <ele>218</ele>
        <time>2012-06-03T07:47:01Z</time>
      </trkpt>
      <trkpt lat="44.62507" lon="0.93151">
        <ele>215</ele>
        <time>2012-06-03T07:47:06Z</time>
      </trkpt>
      <trkpt lat="44.62493" lon="0.93099">
        <ele>214</ele>
        <time>2012-06-03T07:47:12Z</time>
      </trkpt>
      <trkpt lat="44.62469" lon="0.93062">
        <ele>213</ele>
        <time>2012-06-03T07:47:17Z</time>
      </trkpt>
      <trkpt lat="44.62445" lon="0.93027">
        <ele>211</ele>
        <time>2012-06-03T07:47:23Z</time>
      </trkpt>
      <trkpt lat="44.62426" lon="0.92992">
        <ele>211</ele>
        <time>2012-06-03T07:47:28Z</time>
      </trkpt>
      <trkpt lat="44.62408" lon="0.92958">
        <ele>211</ele>
        <time>2012-06-03T07:47:33Z</time>
      </trkpt>
      <trkpt lat="44.62391" lon="0.92927">
        <ele>211</ele>
        <time>2012-06-03T07:47:38Z</time>
      </trkpt>
      <trkpt lat="44.62378" lon="0.92896">
        <ele>216</ele>
        <time>2012-06-03T07:47:43Z</time>
      </trkpt>
      <trkpt lat="44.62364" lon="0.92865">
        <ele>221</ele>
        <time>2012-06-03T07:47:48Z</time>
      </trkpt>
      <trkpt lat="44.62358" lon="0.92838">
        <ele>226</ele>
        <time>2012-06-03T07:47:53Z</time>
      </trkpt>
      <trkpt lat="44.62354" lon="0.92806">
        <ele>232</ele>
        <time>2012-06-03T07:47:59Z</time>
      </trkpt>
      <trkpt lat="44.62349" lon="0.92784">
        <ele>237</ele>
        <time>2012-06-03T07:48:04Z</time>
      </trkpt>
      <trkpt lat="44.62346" lon="0.92762">
        <ele>239</ele>
        <time>2012-06-03T07:48:09Z</time>
      </trkpt>
      <trkpt lat="44.62342" lon="0.92739">
        <ele>241</ele>
        <time>2012-06-03T07:48:14Z</time>
      </trkpt>
      <trkpt lat="44.62336" lon="0.92718">
        <ele>241</ele>
        <time>2012-06-03T07:48:19Z</time>
      </trkpt>
      <trkpt lat="44.62333" lon="0.92699">
        <ele>241</ele>
        <time>2012-06-03T07:48:24Z</time>
      </trkpt>
      <trkpt lat="44.62327" lon="0.92678">
        <ele>241</ele>
        <time>2012-06-03T07:48:29Z</time>
      </trkpt>
      <trkpt lat="44.62322" lon="0.92658">
        <ele>237</ele>
        <time>2012-06-03T07:48:34Z</time>
      </trkpt>
      <trkpt lat="44.62313" lon="0.92639">
        <ele>235</ele>
        <time>2012-06-03T07:48:39Z</time>
      </trkpt>
      <trkpt lat="44.62305" lon="0.92621">
        <ele>235</ele>
        <time>2012-06-03T07:48:44Z</time>
      </trkpt>
      <trkpt lat="44.62296" lon="0.92603">
        <ele>235</ele>
        <time>2012-06-03T07:48:49Z</time>
      </trkpt>
      <trkpt lat="44.62287" lon="0.92591">
        <ele>235</ele>
        <time>2012-06-03T07:48:54Z</time>
      </trkpt>
      <trkpt lat="44.62275" lon="0.92582">
        <ele>236</ele>
        <time>2012-06-03T07:48:59Z</time>
      </trkpt>
      <trkpt lat="44.62269" lon="0.92567">
        <ele>239</ele>
        <time>2012-06-03T07:49:04Z</time>
      </trkpt>
      <trkpt lat="44.6227" lon="0.92548">
        <ele>239</ele>
        <time>2012-06-03T07:49:09Z</time>
      </trkpt>
      <trkpt lat="44.62277" lon="0.92529">
        <ele>239</ele>
        <time>2012-06-03T07:49:14Z</time>
      </trkpt>
      <trkpt lat="44.62286" lon="0.92498">
        <ele>239</ele>
        <time>2012-06-03T07:49:19Z</time>
      </trkpt>
      <trkpt lat="44.62298" lon="0.92461">
        <ele>239</ele>
        <time>2012-06-03T07:49:24Z</time>
      </trkpt>
      <trkpt lat="44.62297" lon="0.92421">
        <ele>238</ele>
        <time>2012-06-03T07:49:29Z</time>
      </trkpt>
      <trkpt lat="44.62303" lon="0.92377">
        <ele>235</ele>
        <time>2012-06-03T07:49:34Z</time>
      </trkpt>
      <trkpt lat="44.62312" lon="0.92332">
        <ele>230</ele>
        <time>2012-06-03T07:49:39Z</time>
      </trkpt>
      <trkpt lat="44.62317" lon="0.92298">
        <ele>225</ele>
        <time>2012-06-03T07:49:44Z</time>
      </trkpt>
      <trkpt lat="44.62338" lon="0.92269">
        <ele>220</ele>
        <time>2012-06-03T07:49:49Z</time>
      </trkpt>
      <trkpt lat="44.62357" lon="0.92238">
        <ele>218</ele>
        <time>2012-06-03T07:49:54Z</time>
      </trkpt>
      <trkpt lat="44.62363" lon="0.92206">
        <ele>219</ele>
        <time>2012-06-03T07:49:59Z</time>
      </trkpt>
      <trkpt lat="44.62371" lon="0.92177">
        <ele>224</ele>
        <time>2012-06-03T07:50:04Z</time>
      </trkpt>
      <trkpt lat="44.62374" lon="0.9215">
        <ele>228</ele>
        <time>2012-06-03T07:50:09Z</time>
      </trkpt>
      <trkpt lat="44.62375" lon="0.92119">
        <ele>233</ele>
        <time>2012-06-03T07:50:14Z</time>
      </trkpt>
      <trkpt lat="44.62376" lon="0.92083">
        <ele>233</ele>
        <time>2012-06-03T07:50:19Z</time>
      </trkpt>
      <trkpt lat="44.6237" lon="0.92023">
        <ele>233</ele>
        <time>2012-06-03T07:50:24Z</time>
      </trkpt>
      <trkpt lat="44.62378" lon="0.91973">
        <ele>233</ele>
        <time>2012-06-03T07:50:29Z</time>
      </trkpt>
      <trkpt lat="44.62387" lon="0.91933">
        <ele>230</ele>
        <time>2012-06-03T07:50:35Z</time>
      </trkpt>
      <trkpt lat="44.62389" lon="0.91919">
        <ele>225</ele>
        <time>2012-06-03T07:50:40Z</time>
      </trkpt>
      <trkpt lat="44.62394" lon="0.91901">
        <ele>225</ele>
        <time>2012-06-03T07:50:45Z</time>
      </trkpt>
      <trkpt lat="44.624" lon="0.91884">
        <ele>225</ele>
        <time>2012-06-03T07:50:50Z</time>
      </trkpt>
      <trkpt lat="44.62407" lon="0.91862">
        <ele>225</ele>
        <time>2012-06-03T07:50:55Z</time>
      </trkpt>
      <trkpt lat="44.62412" lon="0.91845">
        <ele>225</ele>
        <time>2012-06-03T07:51:00Z</time>
      </trkpt>
      <trkpt lat="44.62417" lon="0.9183">
        <ele>225</ele>
        <time>2012-06-03T07:51:05Z</time>
      </trkpt>
      <trkpt lat="44.62417" lon="0.91819">
        <ele>225</ele>
        <time>2012-06-03T07:51:11Z</time>
      </trkpt>
      <trkpt lat="44.62424" lon="0.91803">
        <ele>226</ele>
        <time>2012-06-03T07:51:16Z</time>
      </trkpt>
      <trkpt lat="44.62426" lon="0.9179">
        <ele>228</ele>
        <time>2012-06-03T07:51:21Z</time>
      </trkpt>
      <trkpt lat="44.62426" lon="0.9177">
        <ele>229</ele>
        <time>2012-06-03T07:51:26Z</time>
      </trkpt>
      <trkpt lat="44.62431" lon="0.91742">
        <ele>229</ele>
        <time>2012-06-03T07:51:31Z</time>
      </trkpt>
      <trkpt lat="44.62434" lon="0.91693">
        <ele>229</ele>
        <time>2012-06-03T07:51:36Z</time>
      </trkpt>
      <trkpt lat="44.62431" lon="0.91637">
        <ele>229</ele>
        <time>2012-06-03T07:51:41Z</time>
      </trkpt>
      <trkpt lat="44.62437" lon="0.91604">
        <ele>229</ele>
        <time>2012-06-03T07:51:46Z</time>
      </trkpt>
      <trkpt lat="44.62455" lon="0.91579">
        <ele>229</ele>
        <time>2012-06-03T07:51:51Z</time>
      </trkpt>
      <trkpt lat="44.62468" lon="0.91556">
        <ele>229</ele>
        <time>2012-06-03T07:51:56Z</time>
      </trkpt>
      <trkpt lat="44.62481" lon="0.91539">
        <ele>229</ele>
        <time>2012-06-03T07:52:01Z</time>
      </trkpt>
      <trkpt lat="44.62493" lon="0.91517">
        <ele>229</ele>
        <time>2012-06-03T07:52:06Z</time>
      </trkpt>
      <trkpt lat="44.62492" lon="0.91501">
        <ele>229</ele>
        <time>2012-06-03T07:52:11Z</time>
      </trkpt>
      <trkpt lat="44.62487" lon="0.91487">
        <ele>229</ele>
        <time>2012-06-03T07:52:16Z</time>
      </trkpt>
      <trkpt lat="44.62483" lon="0.91473">
        <ele>234</ele>
        <time>2012-06-03T07:52:21Z</time>
      </trkpt>
      <trkpt lat="44.62476" lon="0.91452">
        <ele>237</ele>
        <time>2012-06-03T07:52:26Z</time>
      </trkpt>
      <trkpt lat="44.62471" lon="0.91431">
        <ele>237</ele>
        <time>2012-06-03T07:52:31Z</time>
      </trkpt>
      <trkpt lat="44.62462" lon="0.91408">
        <ele>237</ele>
        <time>2012-06-03T07:52:36Z</time>
      </trkpt>
      <trkpt lat="44.62452" lon="0.91387">
        <ele>237</ele>
        <time>2012-06-03T07:52:41Z</time>
      </trkpt>
      <trkpt lat="44.62436" lon="0.91356">
        <ele>237</ele>
        <time>2012-06-03T07:52:46Z</time>
      </trkpt>
      <trkpt lat="44.62421" lon="0.91321">
        <ele>237</ele>
        <time>2012-06-03T07:52:51Z</time>
      </trkpt>
      <trkpt lat="44.62404" lon="0.91287">
        <ele>237</ele>
        <time>2012-06-03T07:52:56Z</time>
      </trkpt>
      <trkpt lat="44.62405" lon="0.91262">
        <ele>237</ele>
        <time>2012-06-03T07:53:01Z</time>
      </trkpt>
      <trkpt lat="44.62429" lon="0.91243">
        <ele>232</ele>
        <time>2012-06-03T07:53:06Z</time>
      </trkpt>
      <trkpt lat="44.62447" lon="0.9121">
        <ele>229</ele>
        <time>2012-06-03T07:53:11Z</time>
      </trkpt>
      <trkpt lat="44.62455" lon="0.91174">
        <ele>226</ele>
        <time>2012-06-03T07:53:16Z</time>
      </trkpt>
      <trkpt lat="44.6245" lon="0.91145">
        <ele>222</ele>
        <time>2012-06-03T07:53:21Z</time>
      </trkpt>
      <trkpt lat="44.6245" lon="0.91088">
        <ele>221</ele>
        <time>2012-06-03T07:53:27Z</time>
      </trkpt>
      <trkpt lat="44.62472" lon="0.91065">
        <ele>220</ele>
        <time>2012-06-03T07:53:32Z</time>
      </trkpt>
      <trkpt lat="44.62493" lon="0.91045">
        <ele>216</ele>
        <time>2012-06-03T07:53:37Z</time>
      </trkpt>
      <trkpt lat="44.62518" lon="0.91006">
        <ele>214</ele>
        <time>2012-06-03T07:53:42Z</time>
      </trkpt>
      <trkpt lat="44.62532" lon="0.90968">
        <ele>213</ele>
        <time>2012-06-03T07:53:47Z</time>
      </trkpt>
      <trkpt lat="44.62542" lon="0.90942">
        <ele>213</ele>
        <time>2012-06-03T07:53:52Z</time>
      </trkpt>
      <trkpt lat="44.6256" lon="0.90925">
        <ele>213</ele>
        <time>2012-06-03T07:53:57Z</time>
      </trkpt>
      <trkpt lat="44.62591" lon="0.90903">
        <ele>213</ele>
        <time>2012-06-03T07:54:02Z</time>
      </trkpt>
      <trkpt lat="44.6262" lon="0.90884">
        <ele>211</ele>
        <time>2012-06-03T07:54:07Z</time>
      </trkpt>
      <trkpt lat="44.62652" lon="0.90869">
        <ele>210</ele>
        <time>2012-06-03T07:54:12Z</time>
      </trkpt>
      <trkpt lat="44.62684" lon="0.90857">
        <ele>210</ele>
        <time>2012-06-03T07:54:17Z</time>
      </trkpt>
      <trkpt lat="44.62711" lon="0.9084">
        <ele>210</ele>
        <time>2012-06-03T07:54:22Z</time>
      </trkpt>
      <trkpt lat="44.62731" lon="0.90821">
        <ele>210</ele>
        <time>2012-06-03T07:54:27Z</time>
      </trkpt>
      <trkpt lat="44.62751" lon="0.90803">
        <ele>210</ele>
        <time>2012-06-03T07:54:32Z</time>
      </trkpt>
      <trkpt lat="44.62773" lon="0.90776">
        <ele>209</ele>
        <time>2012-06-03T07:54:37Z</time>
      </trkpt>
      <trkpt lat="44.62782" lon="0.90745">
        <ele>205</ele>
        <time>2012-06-03T07:54:42Z</time>
      </trkpt>
      <trkpt lat="44.62789" lon="0.90717">
        <ele>204</ele>
        <time>2012-06-03T07:54:47Z</time>
      </trkpt>
      <trkpt lat="44.62796" lon="0.90685">
        <ele>203</ele>
        <time>2012-06-03T07:54:52Z</time>
      </trkpt>
      <trkpt lat="44.6281" lon="0.90662">
        <ele>203</ele>
        <time>2012-06-03T07:54:57Z</time>
      </trkpt>
      <trkpt lat="44.62817" lon="0.9064">
        <ele>203</ele>
        <time>2012-06-03T07:55:02Z</time>
      </trkpt>
      <trkpt lat="44.62831" lon="0.90629">
        <ele>199</ele>
        <time>2012-06-03T07:55:07Z</time>
      </trkpt>
      <trkpt lat="44.62846" lon="0.90615">
        <ele>195</ele>
        <time>2012-06-03T07:55:12Z</time>
      </trkpt>
      <trkpt lat="44.62865" lon="0.90592">
        <ele>195</ele>
        <time>2012-06-03T07:55:17Z</time>
      </trkpt>
      <trkpt lat="44.62883" lon="0.9056">
        <ele>195</ele>
        <time>2012-06-03T07:55:22Z</time>
      </trkpt>
      <trkpt lat="44.629" lon="0.90541">
        <ele>193</ele>
        <time>2012-06-03T07:55:27Z</time>
      </trkpt>
      <trkpt lat="44.62913" lon="0.90528">
        <ele>192</ele>
        <time>2012-06-03T07:55:32Z</time>
      </trkpt>
      <trkpt lat="44.62929" lon="0.9053">
        <ele>192</ele>
        <time>2012-06-03T07:55:37Z</time>
      </trkpt>
      <trkpt lat="44.62948" lon="0.90512">
        <ele>191</ele>
        <time>2012-06-03T07:55:42Z</time>
      </trkpt>
      <trkpt lat="44.62966" lon="0.9049">
        <ele>190</ele>
        <time>2012-06-03T07:55:47Z</time>
      </trkpt>
      <trkpt lat="44.62977" lon="0.90457">
        <ele>190</ele>
        <time>2012-06-03T07:55:52Z</time>
      </trkpt>
      <trkpt lat="44.62983" lon="0.90421">
        <ele>190</ele>
        <time>2012-06-03T07:55:57Z</time>
      </trkpt>
      <trkpt lat="44.62992" lon="0.90389">
        <ele>190</ele>
        <time>2012-06-03T07:56:02Z</time>
      </trkpt>
      <trkpt lat="44.63003" lon="0.90364">
        <ele>190</ele>
        <time>2012-06-03T07:56:07Z</time>
      </trkpt>
      <trkpt lat="44.6301" lon="0.90346">
        <ele>190</ele>
        <time>2012-06-03T07:56:12Z</time>
      </trkpt>
      <trkpt lat="44.63016" lon="0.90335">
        <ele>190</ele>
        <time>2012-06-03T07:56:17Z</time>
      </trkpt>
      <trkpt lat="44.63025" lon="0.90324">
        <ele>190</ele>
        <time>2012-06-03T07:56:22Z</time>
      </trkpt>
      <trkpt lat="44.63029" lon="0.90315">
        <ele>190</ele>
        <time>2012-06-03T07:56:28Z</time>
      </trkpt>
      <trkpt lat="44.63029" lon="0.90314">
        <ele>190</ele>
        <time>2012-06-03T07:56:34Z</time>
      </trkpt>
      <trkpt lat="44.63029" lon="0.90308">
        <ele>190</ele>
        <time>2012-06-03T07:56:40Z</time>
      </trkpt>
      <trkpt lat="44.63018" lon="0.90307">
        <ele>193</ele>
        <time>2012-06-03T07:56:45Z</time>
      </trkpt>
      <trkpt lat="44.63005" lon="0.90306">
        <ele>194</ele>
        <time>2012-06-03T07:56:50Z</time>
      </trkpt>
      <trkpt lat="44.62988" lon="0.90306">
        <ele>195</ele>
        <time>2012-06-03T07:56:55Z</time>
      </trkpt>
      <trkpt lat="44.62972" lon="0.90303">
        <ele>195</ele>
        <time>2012-06-03T07:57:00Z</time>
      </trkpt>
      <trkpt lat="44.6296" lon="0.90297">
        <ele>196</ele>
        <time>2012-06-03T07:57:05Z</time>
      </trkpt>
      <trkpt lat="44.62946" lon="0.90287">
        <ele>198</ele>
        <time>2012-06-03T07:57:10Z</time>
      </trkpt>
      <trkpt lat="44.62933" lon="0.90276">
        <ele>198</ele>
        <time>2012-06-03T07:57:15Z</time>
      </trkpt>
      <trkpt lat="44.62925" lon="0.9026">
        <ele>198</ele>
        <time>2012-06-03T07:57:20Z</time>
      </trkpt>
      <trkpt lat="44.62912" lon="0.90242">
        <ele>199</ele>
        <time>2012-06-03T07:57:25Z</time>
      </trkpt>
      <trkpt lat="44.62899" lon="0.90225">
        <ele>200</ele>
        <time>2012-06-03T07:57:30Z</time>
      </trkpt>
      <trkpt lat="44.62888" lon="0.90207">
        <ele>200</ele>
        <time>2012-06-03T07:57:35Z</time>
      </trkpt>
      <trkpt lat="44.62879" lon="0.90188">
        <ele>201</ele>
        <time>2012-06-03T07:57:40Z</time>
      </trkpt>
      <trkpt lat="44.62869" lon="0.90166">
        <ele>201</ele>
        <time>2012-06-03T07:57:45Z</time>
      </trkpt>
      <trkpt lat="44.62858" lon="0.90145">
        <ele>201</ele>
        <time>2012-06-03T07:57:50Z</time>
      </trkpt>
      <trkpt lat="44.62849" lon="0.90131">
        <ele>201</ele>
        <time>2012-06-03T07:57:55Z</time>
      </trkpt>
      <trkpt lat="44.62841" lon="0.90116">
        <ele>202</ele>
        <time>2012-06-03T07:58:00Z</time>
      </trkpt>
      <trkpt lat="44.6283" lon="0.90101">
        <ele>202</ele>
        <time>2012-06-03T07:58:05Z</time>
      </trkpt>
      <trkpt lat="44.62817" lon="0.90085">
        <ele>202</ele>
        <time>2012-06-03T07:58:10Z</time>
      </trkpt>
      <trkpt lat="44.62802" lon="0.9007">
        <ele>202</ele>
        <time>2012-06-03T07:58:15Z</time>
      </trkpt>
      <trkpt lat="44.62789" lon="0.90057">
        <ele>202</ele>
        <time>2012-06-03T07:58:20Z</time>
      </trkpt>
      <trkpt lat="44.62778" lon="0.90044">
        <ele>202</ele>
        <time>2012-06-03T07:58:25Z</time>
      </trkpt>
      <trkpt lat="44.62767" lon="0.90033">
        <ele>202</ele>
        <time>2012-06-03T07:58:30Z</time>
      </trkpt>
      <trkpt lat="44.62756" lon="0.90023">
        <ele>204</ele>
        <time>2012-06-03T07:58:35Z</time>
      </trkpt>
      <trkpt lat="44.62743" lon="0.90014">
        <ele>206</ele>
        <time>2012-06-03T07:58:40Z</time>
      </trkpt>
      <trkpt lat="44.62729" lon="0.90005">
        <ele>206</ele>
        <time>2012-06-03T07:58:45Z</time>
      </trkpt>
      <trkpt lat="44.62719" lon="0.89999">
        <ele>208</ele>
        <time>2012-06-03T07:58:50Z</time>
      </trkpt>
      <trkpt lat="44.62708" lon="0.89993">
        <ele>210</ele>
        <time>2012-06-03T07:58:55Z</time>
      </trkpt>
      <trkpt lat="44.62693" lon="0.89987">
        <ele>211</ele>
        <time>2012-06-03T07:59:00Z</time>
      </trkpt>
      <trkpt lat="44.62678" lon="0.89982">
        <ele>214</ele>
        <time>2012-06-03T07:59:05Z</time>
      </trkpt>
      <trkpt lat="44.62666" lon="0.89977">
        <ele>216</ele>
        <time>2012-06-03T07:59:10Z</time>
      </trkpt>
      <trkpt lat="44.62659" lon="0.8996">
        <ele>218</ele>
        <time>2012-06-03T07:59:15Z</time>
      </trkpt>
      <trkpt lat="44.62652" lon="0.89935">
        <ele>218</ele>
        <time>2012-06-03T07:59:20Z</time>
      </trkpt>
      <trkpt lat="44.62645" lon="0.89909">
        <ele>218</ele>
        <time>2012-06-03T07:59:25Z</time>
      </trkpt>
      <trkpt lat="44.62636" lon="0.8988">
        <ele>218</ele>
        <time>2012-06-03T07:59:30Z</time>
      </trkpt>
      <trkpt lat="44.62634" lon="0.89856">
        <ele>218</ele>
        <time>2012-06-03T07:59:35Z</time>
      </trkpt>
      <trkpt lat="44.62639" lon="0.89825">
        <ele>221</ele>
        <time>2012-06-03T07:59:40Z</time>
      </trkpt>
      <trkpt lat="44.6265" lon="0.898">
        <ele>223</ele>
        <time>2012-06-03T07:59:45Z</time>
      </trkpt>
      <trkpt lat="44.62666" lon="0.89776">
        <ele>223</ele>
        <time>2012-06-03T07:59:50Z</time>
      </trkpt>
      <trkpt lat="44.62683" lon="0.89747">
        <ele>223</ele>
        <time>2012-06-03T07:59:55Z</time>
      </trkpt>
      <trkpt lat="44.62699" lon="0.89723">
        <ele>220</ele>
        <time>2012-06-03T08:00:00Z</time>
      </trkpt>
      <trkpt lat="44.62705" lon="0.89701">
        <ele>218</ele>
        <time>2012-06-03T08:00:05Z</time>
      </trkpt>
      <trkpt lat="44.62714" lon="0.89669">
        <ele>215</ele>
        <time>2012-06-03T08:00:10Z</time>
      </trkpt>
      <trkpt lat="44.62722" lon="0.89638">
        <ele>212</ele>
        <time>2012-06-03T08:00:15Z</time>
      </trkpt>
      <trkpt lat="44.62728" lon="0.89611">
        <ele>212</ele>
        <time>2012-06-03T08:00:20Z</time>
      </trkpt>
      <trkpt lat="44.62737" lon="0.89583">
        <ele>212</ele>
        <time>2012-06-03T08:00:25Z</time>
      </trkpt>
      <trkpt lat="44.6276" lon="0.89562">
        <ele>212</ele>
        <time>2012-06-03T08:00:30Z</time>
      </trkpt>
      <trkpt lat="44.6278" lon="0.89548">
        <ele>212</ele>
        <time>2012-06-03T08:00:35Z</time>
      </trkpt>
      <trkpt lat="44.62788" lon="0.89518">
        <ele>209</ele>
        <time>2012-06-03T08:00:40Z</time>
      </trkpt>
      <trkpt lat="44.62796" lon="0.89487">
        <ele>206</ele>
        <time>2012-06-03T08:00:45Z</time>
      </trkpt>
      <trkpt lat="44.62806" lon="0.89459">
        <ele>204</ele>
        <time>2012-06-03T08:00:50Z</time>
      </trkpt>
      <trkpt lat="44.62813" lon="0.89437">
        <ele>204</ele>
        <time>2012-06-03T08:00:55Z</time>
      </trkpt>
      <trkpt lat="44.62826" lon="0.89403">
        <ele>204</ele>
        <time>2012-06-03T08:01:00Z</time>
      </trkpt>
      <trkpt lat="44.62842" lon="0.89377">
        <ele>204</ele>
        <time>2012-06-03T08:01:05Z</time>
      </trkpt>
      <trkpt lat="44.62855" lon="0.89351">
        <ele>204</ele>
        <time>2012-06-03T08:01:10Z</time>
      </trkpt>
      <trkpt lat="44.62861" lon="0.89334">
        <ele>204</ele>
        <time>2012-06-03T08:01:15Z</time>
      </trkpt>
      <trkpt lat="44.62873" lon="0.89314">
        <ele>204</ele>
        <time>2012-06-03T08:01:20Z</time>
      </trkpt>
      <trkpt lat="44.6289" lon="0.89296">
        <ele>202</ele>
        <time>2012-06-03T08:01:25Z</time>
      </trkpt>
      <trkpt lat="44.62907" lon="0.89284">
        <ele>202</ele>
        <time>2012-06-03T08:01:30Z</time>
      </trkpt>
      <trkpt lat="44.62925" lon="0.89262">
        <ele>202</ele>
        <time>2012-06-03T08:01:35Z</time>
      </trkpt>
      <trkpt lat="44.6293" lon="0.89231">
        <ele>202</ele>
        <time>2012-06-03T08:01:40Z</time>
      </trkpt>
      <trkpt lat="44.62923" lon="0.89201">
        <ele>204</ele>
        <time>2012-06-03T08:01:45Z</time>
      </trkpt>
      <trkpt lat="44.6292" lon="0.89166">
        <ele>206</ele>
        <time>2012-06-03T08:01:50Z</time>
      </trkpt>
      <trkpt lat="44.62911" lon="0.89136">
        <ele>206</ele>
        <time>2012-06-03T08:01:55Z</time>
      </trkpt>
      <trkpt lat="44.62909" lon="0.89106">
        <ele>206</ele>
        <time>2012-06-03T08:02:00Z</time>
      </trkpt>
      <trkpt lat="44.62914" lon="0.89082">
        <ele>206</ele>
        <time>2012-06-03T08:02:05Z</time>
      </trkpt>
      <trkpt lat="44.62914" lon="0.89065">
        <ele>206</ele>
        <time>2012-06-03T08:02:10Z</time>
      </trkpt>
      <trkpt lat="44.62912" lon="0.8905">
        <ele>206</ele>
        <time>2012-06-03T08:02:15Z</time>
      </trkpt>
      <trkpt lat="44.62914" lon="0.8903">
        <ele>203</ele>
        <time>2012-06-03T08:02:20Z</time>
      </trkpt>
      <trkpt lat="44.62913" lon="0.89018">
        <ele>200</ele>
        <time>2012-06-03T08:02:25Z</time>
      </trkpt>
      <trkpt lat="44.62917" lon="0.89008">
        <ele>198</ele>
        <time>2012-06-03T08:02:30Z</time>
      </trkpt>
      <trkpt lat="44.62927" lon="0.88994">
        <ele>198</ele>
        <time>2012-06-03T08:02:35Z</time>
      </trkpt>
      <trkpt lat="44.62938" lon="0.88986">
        <ele>194</ele>
        <time>2012-06-03T08:02:41Z</time>
      </trkpt>
      <trkpt lat="44.62944" lon="0.88978">
        <ele>189</ele>
        <time>2012-06-03T08:02:46Z</time>
      </trkpt>
      <trkpt lat="44.62946" lon="0.88969">
        <ele>184</ele>
        <time>2012-06-03T08:02:51Z</time>
      </trkpt>
      <trkpt lat="44.62948" lon="0.88962">
        <ele>180</ele>
        <time>2012-06-03T08:02:56Z</time>
      </trkpt>
      <trkpt lat="44.62949" lon="0.88956">
        <ele>172</ele>
        <time>2012-06-03T08:03:06Z</time>
      </trkpt>
      <trkpt lat="44.62945" lon="0.88949">
        <ele>172</ele>
        <time>2012-06-03T08:03:11Z</time>
      </trkpt>
      <trkpt lat="44.62935" lon="0.88937">
        <ele>172</ele>
        <time>2012-06-03T08:03:16Z</time>
      </trkpt>
      <trkpt lat="44.62917" lon="0.88928">
        <ele>173</ele>
        <time>2012-06-03T08:03:21Z</time>
      </trkpt>
      <trkpt lat="44.62896" lon="0.88924">
        <ele>178</ele>
        <time>2012-06-03T08:03:26Z</time>
      </trkpt>
      <trkpt lat="44.62881" lon="0.88926">
        <ele>183</ele>
        <time>2012-06-03T08:03:31Z</time>
      </trkpt>
      <trkpt lat="44.62863" lon="0.88924">
        <ele>188</ele>
        <time>2012-06-03T08:03:36Z</time>
      </trkpt>
      <trkpt lat="44.62846" lon="0.88928">
        <ele>189</ele>
        <time>2012-06-03T08:03:41Z</time>
      </trkpt>
      <trkpt lat="44.6283" lon="0.88943">
        <ele>191</ele>
        <time>2012-06-03T08:03:46Z</time>
      </trkpt>
      <trkpt lat="44.62819" lon="0.88964">
        <ele>194</ele>
        <time>2012-06-03T08:03:51Z</time>
      </trkpt>
      <trkpt lat="44.62808" lon="0.88974">
        <ele>194</ele>
        <time>2012-06-03T08:03:57Z</time>
      </trkpt>
      <trkpt lat="44.62805" lon="0.88984">
        <ele>192</ele>
        <time>2012-06-03T08:04:02Z</time>
      </trkpt>
      <trkpt lat="44.62799" lon="0.88999">
        <ele>181</ele>
        <time>2012-06-03T08:06:01Z</time>
      </trkpt>
      <trkpt lat="44.62795" lon="0.89008">
        <ele>181</ele>
        <time>2012-06-03T08:06:07Z</time>
      </trkpt>
      <trkpt lat="44.62791" lon="0.89019">
        <ele>181</ele>
        <time>2012-06-03T08:06:12Z</time>
      </trkpt>
      <trkpt lat="44.62792" lon="0.89033">
        <ele>180</ele>
        <time>2012-06-03T08:06:17Z</time>
      </trkpt>
      <trkpt lat="44.62787" lon="0.89048">
        <ele>176</ele>
        <time>2012-06-03T08:06:22Z</time>
      </trkpt>
      <trkpt lat="44.62782" lon="0.89062">
        <ele>176</ele>
        <time>2012-06-03T08:06:27Z</time>
      </trkpt>
      <trkpt lat="44.62777" lon="0.89077">
        <ele>176</ele>
        <time>2012-06-03T08:06:32Z</time>
      </trkpt>
      <trkpt lat="44.62772" lon="0.8909">
        <ele>176</ele>
        <time>2012-06-03T08:06:37Z</time>
      </trkpt>
      <trkpt lat="44.62765" lon="0.89107">
        <ele>177</ele>
        <time>2012-06-03T08:06:42Z</time>
      </trkpt>
      <trkpt lat="44.62759" lon="0.89121">
        <ele>180</ele>
        <time>2012-06-03T08:06:47Z</time>
      </trkpt>
      <trkpt lat="44.62754" lon="0.89133">
        <ele>182</ele>
        <time>2012-06-03T08:06:52Z</time>
      </trkpt>
      <trkpt lat="44.62752" lon="0.89145">
        <ele>183</ele>
        <time>2012-06-03T08:06:57Z</time>
      </trkpt>
      <trkpt lat="44.62751" lon="0.8916">
        <ele>184</ele>
        <time>2012-06-03T08:07:02Z</time>
      </trkpt>
      <trkpt lat="44.62748" lon="0.89177">
        <ele>185</ele>
        <time>2012-06-03T08:07:07Z</time>
      </trkpt>
      <trkpt lat="44.62745" lon="0.89192">
        <ele>189</ele>
        <time>2012-06-03T08:07:12Z</time>
      </trkpt>
      <trkpt lat="44.62746" lon="0.89204">
        <ele>190</ele>
        <time>2012-06-03T08:07:17Z</time>
      </trkpt>
      <trkpt lat="44.62745" lon="0.89213">
        <ele>190</ele>
        <time>2012-06-03T08:07:22Z</time>
      </trkpt>
      <trkpt lat="44.62742" lon="0.8923">
        <ele>191</ele>
        <time>2012-06-03T08:07:27Z</time>
      </trkpt>
      <trkpt lat="44.62741" lon="0.89231">
        <ele>198</ele>
        <time>2012-06-03T08:08:04Z</time>
      </trkpt>
      <trkpt lat="44.6274" lon="0.89232">
        <ele>200</ele>
        <time>2012-06-03T08:08:10Z</time>
      </trkpt>
      <trkpt lat="44.62736" lon="0.89238">
        <ele>198</ele>
        <time>2012-06-03T08:09:35Z</time>
      </trkpt>
      <trkpt lat="44.62739" lon="0.89222">
        <ele>205</ele>
        <time>2012-06-03T08:14:34Z</time>
      </trkpt>
      <trkpt lat="44.62738" lon="0.8921">
        <ele>208</ele>
        <time>2012-06-03T08:14:39Z</time>
      </trkpt>
      <trkpt lat="44.62734" lon="0.89196">
        <ele>208</ele>
        <time>2012-06-03T08:14:44Z</time>
      </trkpt>
      <trkpt lat="44.62725" lon="0.89186">
        <ele>208</ele>
        <time>2012-06-03T08:14:49Z</time>
      </trkpt>
      <trkpt lat="44.62715" lon="0.89174">
        <ele>208</ele>
        <time>2012-06-03T08:14:54Z</time>
      </trkpt>
      <trkpt lat="44.62705" lon="0.89153">
        <ele>208</ele>
        <time>2012-06-03T08:14:59Z</time>
      </trkpt>
      <trkpt lat="44.62696" lon="0.89127">
        <ele>204</ele>
        <time>2012-06-03T08:15:04Z</time>
      </trkpt>
      <trkpt lat="44.62677" lon="0.89136">
        <ele>199</ele>
        <time>2012-06-03T08:15:09Z</time>
      </trkpt>
      <trkpt lat="44.62657" lon="0.8915">
        <ele>194</ele>
        <time>2012-06-03T08:15:14Z</time>
      </trkpt>
      <trkpt lat="44.62636" lon="0.89131">
        <ele>189</ele>
        <time>2012-06-03T08:15:19Z</time>
      </trkpt>
      <trkpt lat="44.62619" lon="0.89109">
        <ele>187</ele>
        <time>2012-06-03T08:15:24Z</time>
      </trkpt>
      <trkpt lat="44.62609" lon="0.89093">
        <ele>186</ele>
        <time>2012-06-03T08:15:29Z</time>
      </trkpt>
      <trkpt lat="44.62606" lon="0.89088">
        <ele>186</ele>
        <time>2012-06-03T08:15:34Z</time>
      </trkpt>
      <trkpt lat="44.62603" lon="0.89084">
        <ele>186</ele>
        <time>2012-06-03T08:15:41Z</time>
      </trkpt>
      <trkpt lat="44.62594" lon="0.89074">
        <ele>186</ele>
        <time>2012-06-03T08:15:46Z</time>
      </trkpt>
      <trkpt lat="44.62585" lon="0.89064">
        <ele>186</ele>
        <time>2012-06-03T08:15:51Z</time>
      </trkpt>
      <trkpt lat="44.62576" lon="0.89056">
        <ele>189</ele>
        <time>2012-06-03T08:15:56Z</time>
      </trkpt>
      <trkpt lat="44.62563" lon="0.89062">
        <ele>190</ele>
        <time>2012-06-03T08:16:01Z</time>
      </trkpt>
      <trkpt lat="44.62552" lon="0.89074">
        <ele>191</ele>
        <time>2012-06-03T08:16:06Z</time>
      </trkpt>
      <trkpt lat="44.62537" lon="0.89085">
        <ele>191</ele>
        <time>2012-06-03T08:16:26Z</time>
      </trkpt>
      <trkpt lat="44.6253" lon="0.891">
        <ele>201</ele>
        <time>2012-06-03T08:21:54Z</time>
      </trkpt>
      <trkpt lat="44.62519" lon="0.89113">
        <ele>201</ele>
        <time>2012-06-03T08:21:59Z</time>
      </trkpt>
      <trkpt lat="44.62505" lon="0.89121">
        <ele>201</ele>
        <time>2012-06-03T08:22:04Z</time>
      </trkpt>
      <trkpt lat="44.6249" lon="0.89109">
        <ele>201</ele>
        <time>2012-06-03T08:22:09Z</time>
      </trkpt>
      <trkpt lat="44.62474" lon="0.89095">
        <ele>201</ele>
        <time>2012-06-03T08:22:14Z</time>
      </trkpt>
      <trkpt lat="44.62457" lon="0.89078">
        <ele>200</ele>
        <time>2012-06-03T08:22:19Z</time>
      </trkpt>
      <trkpt lat="44.62459" lon="0.89053">
        <ele>197</ele>
        <time>2012-06-03T08:22:24Z</time>
      </trkpt>
      <trkpt lat="44.62477" lon="0.89025">
        <ele>193</ele>
        <time>2012-06-03T08:22:29Z</time>
      </trkpt>
      <trkpt lat="44.6249" lon="0.88999">
        <ele>190</ele>
        <time>2012-06-03T08:22:34Z</time>
      </trkpt>
      <trkpt lat="44.62474" lon="0.88981">
        <ele>189</ele>
        <time>2012-06-03T08:22:39Z</time>
      </trkpt>
      <trkpt lat="44.62449" lon="0.8896">
        <ele>188</ele>
        <time>2012-06-03T08:22:44Z</time>
      </trkpt>
      <trkpt lat="44.62429" lon="0.88938">
        <ele>187</ele>
        <time>2012-06-03T08:22:49Z</time>
      </trkpt>
      <trkpt lat="44.62416" lon="0.88924">
        <ele>187</ele>
        <time>2012-06-03T08:22:54Z</time>
      </trkpt>
      <trkpt lat="44.62404" lon="0.88913">
        <ele>187</ele>
        <time>2012-06-03T08:22:59Z</time>
      </trkpt>
      <trkpt lat="44.62392" lon="0.88904">
        <ele>187</ele>
        <time>2012-06-03T08:23:04Z</time>
      </trkpt>
      <trkpt lat="44.62379" lon="0.88898">
        <ele>187</ele>
        <time>2012-06-03T08:23:09Z</time>
      </trkpt>
      <trkpt lat="44.6236" lon="0.88889">
        <ele>187</ele>
        <time>2012-06-03T08:23:14Z</time>
      </trkpt>
      <trkpt lat="44.6233" lon="0.88881">
        <ele>185</ele>
        <time>2012-06-03T08:23:19Z</time>
      </trkpt>
      <trkpt lat="44.62296" lon="0.8887">
        <ele>181</ele>
        <time>2012-06-03T08:23:24Z</time>
      </trkpt>
      <trkpt lat="44.62273" lon="0.88844">
        <ele>177</ele>
        <time>2012-06-03T08:23:29Z</time>
      </trkpt>
      <trkpt lat="44.62263" lon="0.88816">
        <ele>177</ele>
        <time>2012-06-03T08:23:34Z</time>
      </trkpt>
      <trkpt lat="44.62259" lon="0.88815">
        <ele>176</ele>
        <time>2012-06-03T08:24:49Z</time>
      </trkpt>
      <trkpt lat="44.62248" lon="0.88822">
        <ele>176</ele>
        <time>2012-06-03T08:24:54Z</time>
      </trkpt>
      <trkpt lat="44.62234" lon="0.88834">
        <ele>178</ele>
        <time>2012-06-03T08:24:59Z</time>
      </trkpt>
      <trkpt lat="44.62221" lon="0.88848">
        <ele>179</ele>
        <time>2012-06-03T08:25:04Z</time>
      </trkpt>
      <trkpt lat="44.6221" lon="0.88858">
        <ele>182</ele>
        <time>2012-06-03T08:25:09Z</time>
      </trkpt>
      <trkpt lat="44.62197" lon="0.88865">
        <ele>182</ele>
        <time>2012-06-03T08:25:14Z</time>
      </trkpt>
      <trkpt lat="44.62186" lon="0.88872">
        <ele>187</ele>
        <time>2012-06-03T08:25:19Z</time>
      </trkpt>
      <trkpt lat="44.62175" lon="0.88879">
        <ele>189</ele>
        <time>2012-06-03T08:25:24Z</time>
      </trkpt>
      <trkpt lat="44.62169" lon="0.88888">
        <ele>189</ele>
        <time>2012-06-03T08:25:29Z</time>
      </trkpt>
      <trkpt lat="44.62165" lon="0.88901">
        <ele>189</ele>
        <time>2012-06-03T08:25:34Z</time>
      </trkpt>
      <trkpt lat="44.6216" lon="0.88916">
        <ele>186</ele>
        <time>2012-06-03T08:25:39Z</time>
      </trkpt>
      <trkpt lat="44.62154" lon="0.8893">
        <ele>183</ele>
        <time>2012-06-03T08:25:44Z</time>
      </trkpt>
      <trkpt lat="44.62154" lon="0.88944">
        <ele>183</ele>
        <time>2012-06-03T08:25:49Z</time>
      </trkpt>
      <trkpt lat="44.62153" lon="0.88954">
        <ele>183</ele>
        <time>2012-06-03T08:25:55Z</time>
      </trkpt>
      <trkpt lat="44.62153" lon="0.88962">
        <ele>183</ele>
        <time>2012-06-03T08:26:00Z</time>
      </trkpt>
      <trkpt lat="44.62151" lon="0.88972">
        <ele>183</ele>
        <time>2012-06-03T08:26:05Z</time>
      </trkpt>
      <trkpt lat="44.62147" lon="0.88983">
        <ele>183</ele>
        <time>2012-06-03T08:26:10Z</time>
      </trkpt>
      <trkpt lat="44.6214" lon="0.8899">
        <ele>183</ele>
        <time>2012-06-03T08:26:15Z</time>
      </trkpt>
      <trkpt lat="44.62132" lon="0.88996">
        <ele>185</ele>
        <time>2012-06-03T08:26:20Z</time>
      </trkpt>
      <trkpt lat="44.62127" lon="0.89008">
        <ele>188</ele>
        <time>2012-06-03T08:26:25Z</time>
      </trkpt>
      <trkpt lat="44.62119" lon="0.89021">
        <ele>189</ele>
        <time>2012-06-03T08:26:30Z</time>
      </trkpt>
      <trkpt lat="44.62113" lon="0.89031">
        <ele>192</ele>
        <time>2012-06-03T08:26:35Z</time>
      </trkpt>
      <trkpt lat="44.62107" lon="0.89043">
        <ele>194</ele>
        <time>2012-06-03T08:26:40Z</time>
      </trkpt>
      <trkpt lat="44.621" lon="0.8905">
        <ele>195</ele>
        <time>2012-06-03T08:26:45Z</time>
      </trkpt>
      <trkpt lat="44.62096" lon="0.89057">
        <ele>195</ele>
        <time>2012-06-03T08:26:50Z</time>
      </trkpt>
      <trkpt lat="44.62091" lon="0.89069">
        <ele>195</ele>
        <time>2012-06-03T08:26:55Z</time>
      </trkpt>
      <trkpt lat="44.62083" lon="0.89083">
        <ele>195</ele>
        <time>2012-06-03T08:27:00Z</time>
      </trkpt>
      <trkpt lat="44.62072" lon="0.89104">
        <ele>195</ele>
        <time>2012-06-03T08:27:05Z</time>
      </trkpt>
      <trkpt lat="44.62065" lon="0.89126">
        <ele>195</ele>
        <time>2012-06-03T08:27:10Z</time>
      </trkpt>
      <trkpt lat="44.62063" lon="0.89144">
        <ele>195</ele>
        <time>2012-06-03T08:27:15Z</time>
      </trkpt>
      <trkpt lat="44.62062" lon="0.89155">
        <ele>194</ele>
        <time>2012-06-03T08:27:20Z</time>
      </trkpt>
      <trkpt lat="44.62057" lon="0.89162">
        <ele>194</ele>
        <time>2012-06-03T08:27:25Z</time>
      </trkpt>
      <trkpt lat="44.62054" lon="0.89173">
        <ele>194</ele>
        <time>2012-06-03T08:27:30Z</time>
      </trkpt>
      <trkpt lat="44.6205" lon="0.89182">
        <ele>194</ele>
        <time>2012-06-03T08:27:35Z</time>
      </trkpt>
      <trkpt lat="44.62047" lon="0.8919">
        <ele>195</ele>
        <time>2012-06-03T08:27:40Z</time>
      </trkpt>
      <trkpt lat="44.62044" lon="0.89198">
        <ele>195</ele>
        <time>2012-06-03T08:27:45Z</time>
      </trkpt>
      <trkpt lat="44.62042" lon="0.89208">
        <ele>195</ele>
        <time>2012-06-03T08:27:50Z</time>
      </trkpt>
      <trkpt lat="44.62039" lon="0.89217">
        <ele>195</ele>
        <time>2012-06-03T08:27:55Z</time>
      </trkpt>
      <trkpt lat="44.62035" lon="0.89226">
        <ele>195</ele>
        <time>2012-06-03T08:28:00Z</time>
      </trkpt>
      <trkpt lat="44.62028" lon="0.89236">
        <ele>195</ele>
        <time>2012-06-03T08:28:06Z</time>
      </trkpt>
      <trkpt lat="44.62019" lon="0.89243">
        <ele>199</ele>
        <time>2012-06-03T08:28:12Z</time>
      </trkpt>
      <trkpt lat="44.62012" lon="0.89247">
        <ele>204</ele>
        <time>2012-06-03T08:28:17Z</time>
      </trkpt>
      <trkpt lat="44.62001" lon="0.89251">
        <ele>208</ele>
        <time>2012-06-03T08:28:22Z</time>
      </trkpt>
      <trkpt lat="44.61993" lon="0.89257">
        <ele>211</ele>
        <time>2012-06-03T08:28:27Z</time>
      </trkpt>
      <trkpt lat="44.6198" lon="0.89263">
        <ele>212</ele>
        <time>2012-06-03T08:28:32Z</time>
      </trkpt>
      <trkpt lat="44.61971" lon="0.89262">
        <ele>212</ele>
        <time>2012-06-03T08:28:37Z</time>
      </trkpt>
      <trkpt lat="44.61965" lon="0.89246">
        <ele>212</ele>
        <time>2012-06-03T08:28:43Z</time>
      </trkpt>
      <trkpt lat="44.61969" lon="0.89224">
        <ele>215</ele>
        <time>2012-06-03T08:28:48Z</time>
      </trkpt>
      <trkpt lat="44.61969" lon="0.89192">
        <ele>218</ele>
        <time>2012-06-03T08:28:53Z</time>
      </trkpt>
      <trkpt lat="44.61972" lon="0.89163">
        <ele>223</ele>
        <time>2012-06-03T08:28:58Z</time>
      </trkpt>
      <trkpt lat="44.61974" lon="0.89136">
        <ele>228</ele>
        <time>2012-06-03T08:29:03Z</time>
      </trkpt>
      <trkpt lat="44.61978" lon="0.89109">
        <ele>233</ele>
        <time>2012-06-03T08:29:08Z</time>
      </trkpt>
      <trkpt lat="44.61981" lon="0.89083">
        <ele>238</ele>
        <time>2012-06-03T08:29:13Z</time>
      </trkpt>
      <trkpt lat="44.61984" lon="0.89064">
        <ele>241</ele>
        <time>2012-06-03T08:29:18Z</time>
      </trkpt>
      <trkpt lat="44.61986" lon="0.8904">
        <ele>244</ele>
        <time>2012-06-03T08:29:23Z</time>
      </trkpt>
      <trkpt lat="44.61978" lon="0.89008">
        <ele>243</ele>
        <time>2012-06-03T08:29:28Z</time>
      </trkpt>
      <trkpt lat="44.61966" lon="0.88978">
        <ele>238</ele>
        <time>2012-06-03T08:29:33Z</time>
      </trkpt>
      <trkpt lat="44.61968" lon="0.88946">
        <ele>233</ele>
        <time>2012-06-03T08:29:38Z</time>
      </trkpt>
      <trkpt lat="44.61976" lon="0.88918">
        <ele>228</ele>
        <time>2012-06-03T08:29:43Z</time>
      </trkpt>
      <trkpt lat="44.61984" lon="0.88894">
        <ele>223</ele>
        <time>2012-06-03T08:29:48Z</time>
      </trkpt>
      <trkpt lat="44.62001" lon="0.88878">
        <ele>222</ele>
        <time>2012-06-03T08:29:53Z</time>
      </trkpt>
      <trkpt lat="44.6202" lon="0.88867">
        <ele>219</ele>
        <time>2012-06-03T08:29:58Z</time>
      </trkpt>
      <trkpt lat="44.6204" lon="0.88855">
        <ele>217</ele>
        <time>2012-06-03T08:30:03Z</time>
      </trkpt>
      <trkpt lat="44.62054" lon="0.88835">
        <ele>214</ele>
        <time>2012-06-03T08:30:08Z</time>
      </trkpt>
      <trkpt lat="44.62074" lon="0.88829">
        <ele>211</ele>
        <time>2012-06-03T08:30:13Z</time>
      </trkpt>
      <trkpt lat="44.62096" lon="0.88815">
        <ele>208</ele>
        <time>2012-06-03T08:30:18Z</time>
      </trkpt>
      <trkpt lat="44.62118" lon="0.88788">
        <ele>205</ele>
        <time>2012-06-03T08:30:23Z</time>
      </trkpt>
      <trkpt lat="44.62141" lon="0.8877">
        <ele>201</ele>
        <time>2012-06-03T08:30:28Z</time>
      </trkpt>
      <trkpt lat="44.62173" lon="0.88764">
        <ele>196</ele>
        <time>2012-06-03T08:30:33Z</time>
      </trkpt>
      <trkpt lat="44.62199" lon="0.88765">
        <ele>193</ele>
        <time>2012-06-03T08:30:38Z</time>
      </trkpt>
      <trkpt lat="44.62207" lon="0.88748">
        <ele>193</ele>
        <time>2012-06-03T08:30:43Z</time>
      </trkpt>
      <trkpt lat="44.62207" lon="0.8872">
        <ele>193</ele>
        <time>2012-06-03T08:30:48Z</time>
      </trkpt>
      <trkpt lat="44.62203" lon="0.88693">
        <ele>193</ele>
        <time>2012-06-03T08:30:53Z</time>
      </trkpt>
      <trkpt lat="44.62201" lon="0.88662">
        <ele>194</ele>
        <time>2012-06-03T08:30:58Z</time>
      </trkpt>
      <trkpt lat="44.62199" lon="0.8863">
        <ele>194</ele>
        <time>2012-06-03T08:31:03Z</time>
      </trkpt>
      <trkpt lat="44.62198" lon="0.88606">
        <ele>194</ele>
        <time>2012-06-03T08:31:08Z</time>
      </trkpt>
      <trkpt lat="44.62201" lon="0.88574">
        <ele>194</ele>
        <time>2012-06-03T08:31:13Z</time>
      </trkpt>
      <trkpt lat="44.62205" lon="0.88539">
        <ele>194</ele>
        <time>2012-06-03T08:31:18Z</time>
      </trkpt>
      <trkpt lat="44.62195" lon="0.88516">
        <ele>189</ele>
        <time>2012-06-03T08:31:23Z</time>
      </trkpt>
      <trkpt lat="44.62174" lon="0.885">
        <ele>184</ele>
        <time>2012-06-03T08:31:28Z</time>
      </trkpt>
      <trkpt lat="44.62167" lon="0.8848">
        <ele>179</ele>
        <time>2012-06-03T08:31:33Z</time>
      </trkpt>
      <trkpt lat="44.62172" lon="0.88457">
        <ele>177</ele>
        <time>2012-06-03T08:31:38Z</time>
      </trkpt>
      <trkpt lat="44.62179" lon="0.88431">
        <ele>175</ele>
        <time>2012-06-03T08:31:43Z</time>
      </trkpt>
      <trkpt lat="44.62187" lon="0.88406">
        <ele>173</ele>
        <time>2012-06-03T08:31:48Z</time>
      </trkpt>
      <trkpt lat="44.62202" lon="0.88392">
        <ele>171</ele>
        <time>2012-06-03T08:31:53Z</time>
      </trkpt>
      <trkpt lat="44.62223" lon="0.8838">
        <ele>169</ele>
        <time>2012-06-03T08:31:58Z</time>
      </trkpt>
      <trkpt lat="44.62232" lon="0.88353">
        <ele>168</ele>
        <time>2012-06-03T08:32:03Z</time>
      </trkpt>
      <trkpt lat="44.6223" lon="0.88323">
        <ele>167</ele>
        <time>2012-06-03T08:32:08Z</time>
      </trkpt>
      <trkpt lat="44.62211" lon="0.88317">
        <ele>165</ele>
        <time>2012-06-03T08:32:13Z</time>
      </trkpt>
      <trkpt lat="44.6219" lon="0.88322">
        <ele>165</ele>
        <time>2012-06-03T08:32:18Z</time>
      </trkpt>
      <trkpt lat="44.62167" lon="0.88323">
        <ele>164</ele>
        <time>2012-06-03T08:32:23Z</time>
      </trkpt>
      <trkpt lat="44.62146" lon="0.88308">
        <ele>164</ele>
        <time>2012-06-03T08:32:28Z</time>
      </trkpt>
      <trkpt lat="44.62131" lon="0.88284">
        <ele>164</ele>
        <time>2012-06-03T08:32:33Z</time>
      </trkpt>
      <trkpt lat="44.62126" lon="0.88261">
        <ele>164</ele>
        <time>2012-06-03T08:32:38Z</time>
      </trkpt>
      <trkpt lat="44.6212" lon="0.88243">
        <ele>165</ele>
        <time>2012-06-03T08:32:43Z</time>
      </trkpt>
      <trkpt lat="44.62112" lon="0.88247">
        <ele>166</ele>
        <time>2012-06-03T08:32:48Z</time>
      </trkpt>
      <trkpt lat="44.62101" lon="0.88255">
        <ele>167</ele>
        <time>2012-06-03T08:32:53Z</time>
      </trkpt>
      <trkpt lat="44.62086" lon="0.88262">
        <ele>168</ele>
        <time>2012-06-03T08:32:58Z</time>
      </trkpt>
      <trkpt lat="44.62073" lon="0.88267">
        <ele>168</ele>
        <time>2012-06-03T08:33:03Z</time>
      </trkpt>
      <trkpt lat="44.6206" lon="0.88273">
        <ele>168</ele>
        <time>2012-06-03T08:33:08Z</time>
      </trkpt>
      <trkpt lat="44.62046" lon="0.88278">
        <ele>166</ele>
        <time>2012-06-03T08:33:13Z</time>
      </trkpt>
      <trkpt lat="44.62033" lon="0.88281">
        <ele>165</ele>
        <time>2012-06-03T08:33:18Z</time>
      </trkpt>
      <trkpt lat="44.62013" lon="0.88281">
        <ele>165</ele>
        <time>2012-06-03T08:33:23Z</time>
      </trkpt>
      <trkpt lat="44.62" lon="0.88286">
        <ele>170</ele>
        <time>2012-06-03T08:33:28Z</time>
      </trkpt>
      <trkpt lat="44.61991" lon="0.8829">
        <ele>170</ele>
        <time>2012-06-03T08:33:33Z</time>
      </trkpt>
      <trkpt lat="44.6198" lon="0.88296">
        <ele>172</ele>
        <time>2012-06-03T08:33:38Z</time>
      </trkpt>
      <trkpt lat="44.6197" lon="0.88301">
        <ele>173</ele>
        <time>2012-06-03T08:33:43Z</time>
      </trkpt>
      <trkpt lat="44.61958" lon="0.88303">
        <ele>176</ele>
        <time>2012-06-03T08:33:48Z</time>
      </trkpt>
      <trkpt lat="44.6195" lon="0.88305">
        <ele>177</ele>
        <time>2012-06-03T08:33:53Z</time>
      </trkpt>
      <trkpt lat="44.61935" lon="0.88305">
        <ele>177</ele>
        <time>2012-06-03T08:33:58Z</time>
      </trkpt>
      <trkpt lat="44.61922" lon="0.88311">
        <ele>178</ele>
        <time>2012-06-03T08:34:03Z</time>
      </trkpt>
      <trkpt lat="44.61909" lon="0.88317">
        <ele>179</ele>
        <time>2012-06-03T08:34:08Z</time>
      </trkpt>
      <trkpt lat="44.61896" lon="0.88324">
        <ele>183</ele>
        <time>2012-06-03T08:34:13Z</time>
      </trkpt>
      <trkpt lat="44.61882" lon="0.8833">
        <ele>187</ele>
        <time>2012-06-03T08:34:18Z</time>
      </trkpt>
      <trkpt lat="44.6187" lon="0.8834">
        <ele>189</ele>
        <time>2012-06-03T08:34:23Z</time>
      </trkpt>
      <trkpt lat="44.61862" lon="0.88351">
        <ele>189</ele>
        <time>2012-06-03T08:34:28Z</time>
      </trkpt>
      <trkpt lat="44.6185" lon="0.88362">
        <ele>190</ele>
        <time>2012-06-03T08:34:33Z</time>
      </trkpt>
      <trkpt lat="44.61835" lon="0.88372">
        <ele>190</ele>
        <time>2012-06-03T08:34:38Z</time>
      </trkpt>
      <trkpt lat="44.61827" lon="0.88383">
        <ele>190</ele>
        <time>2012-06-03T08:34:43Z</time>
      </trkpt>
      <trkpt lat="44.61821" lon="0.88394">
        <ele>188</ele>
        <time>2012-06-03T08:34:48Z</time>
      </trkpt>
      <trkpt lat="44.61816" lon="0.88399">
        <ele>188</ele>
        <time>2012-06-03T08:34:53Z</time>
      </trkpt>
      <trkpt lat="44.61811" lon="0.88402">
        <ele>188</ele>
        <time>2012-06-03T08:34:58Z</time>
      </trkpt>
      <trkpt lat="44.61802" lon="0.88407">
        <ele>188</ele>
        <time>2012-06-03T08:35:04Z</time>
      </trkpt>
      <trkpt lat="44.61794" lon="0.88412">
        <ele>188</ele>
        <time>2012-06-03T08:35:10Z</time>
      </trkpt>
      <trkpt lat="44.61789" lon="0.88414">
        <ele>191</ele>
        <time>2012-06-03T08:35:15Z</time>
      </trkpt>
      <trkpt lat="44.61781" lon="0.8842">
        <ele>194</ele>
        <time>2012-06-03T08:35:21Z</time>
      </trkpt>
      <trkpt lat="44.61775" lon="0.88423">
        <ele>195</ele>
        <time>2012-06-03T08:35:26Z</time>
      </trkpt>
      <trkpt lat="44.61769" lon="0.88427">
        <ele>195</ele>
        <time>2012-06-03T08:35:31Z</time>
      </trkpt>
      <trkpt lat="44.61762" lon="0.8843">
        <ele>195</ele>
        <time>2012-06-03T08:35:37Z</time>
      </trkpt>
      <trkpt lat="44.61758" lon="0.88435">
        <ele>195</ele>
        <time>2012-06-03T08:35:43Z</time>
      </trkpt>
      <trkpt lat="44.6175" lon="0.88441">
        <ele>195</ele>
        <time>2012-06-03T08:35:48Z</time>
      </trkpt>
      <trkpt lat="44.61743" lon="0.88446">
        <ele>196</ele>
        <time>2012-06-03T08:35:53Z</time>
      </trkpt>
      <trkpt lat="44.61739" lon="0.88446">
        <ele>201</ele>
        <time>2012-06-03T08:35:59Z</time>
      </trkpt>
      <trkpt lat="44.61732" lon="0.8845">
        <ele>206</ele>
        <time>2012-06-03T08:36:05Z</time>
      </trkpt>
      <trkpt lat="44.61726" lon="0.88455">
        <ele>207</ele>
        <time>2012-06-03T08:36:10Z</time>
      </trkpt>
      <trkpt lat="44.61716" lon="0.88459">
        <ele>207</ele>
        <time>2012-06-03T08:36:15Z</time>
      </trkpt>
      <trkpt lat="44.61708" lon="0.88464">
        <ele>207</ele>
        <time>2012-06-03T08:36:21Z</time>
      </trkpt>
      <trkpt lat="44.61699" lon="0.88468">
        <ele>207</ele>
        <time>2012-06-03T08:36:26Z</time>
      </trkpt>
      <trkpt lat="44.61689" lon="0.88463">
        <ele>202</ele>
        <time>2012-06-03T08:36:33Z</time>
      </trkpt>
      <trkpt lat="44.61683" lon="0.88459">
        <ele>202</ele>
        <time>2012-06-03T08:36:38Z</time>
      </trkpt>
      <trkpt lat="44.61674" lon="0.88456">
        <ele>202</ele>
        <time>2012-06-03T08:36:43Z</time>
      </trkpt>
      <trkpt lat="44.61665" lon="0.88451">
        <ele>202</ele>
        <time>2012-06-03T08:36:48Z</time>
      </trkpt>
      <trkpt lat="44.61652" lon="0.88447">
        <ele>202</ele>
        <time>2012-06-03T08:36:53Z</time>
      </trkpt>
      <trkpt lat="44.61638" lon="0.88448">
        <ele>202</ele>
        <time>2012-06-03T08:36:58Z</time>
      </trkpt>
      <trkpt lat="44.61623" lon="0.88448">
        <ele>202</ele>
        <time>2012-06-03T08:37:04Z</time>
      </trkpt>
      <trkpt lat="44.61609" lon="0.88449">
        <ele>202</ele>
        <time>2012-06-03T08:37:09Z</time>
      </trkpt>
      <trkpt lat="44.61591" lon="0.8845">
        <ele>202</ele>
        <time>2012-06-03T08:37:15Z</time>
      </trkpt>
      <trkpt lat="44.61575" lon="0.88452">
        <ele>202</ele>
        <time>2012-06-03T08:37:20Z</time>
      </trkpt>
      <trkpt lat="44.61556" lon="0.88453">
        <ele>202</ele>
        <time>2012-06-03T08:37:25Z</time>
      </trkpt>
      <trkpt lat="44.61531" lon="0.88457">
        <ele>202</ele>
        <time>2012-06-03T08:37:31Z</time>
      </trkpt>
      <trkpt lat="44.61508" lon="0.88461">
        <ele>202</ele>
        <time>2012-06-03T08:37:36Z</time>
      </trkpt>
      <trkpt lat="44.61486" lon="0.88471">
        <ele>202</ele>
        <time>2012-06-03T08:37:41Z</time>
      </trkpt>
      <trkpt lat="44.61467" lon="0.8848">
        <ele>201</ele>
        <time>2012-06-03T08:37:46Z</time>
      </trkpt>
      <trkpt lat="44.61444" lon="0.88484">
        <ele>201</ele>
        <time>2012-06-03T08:37:52Z</time>
      </trkpt>
      <trkpt lat="44.61419" lon="0.88482">
        <ele>201</ele>
        <time>2012-06-03T08:37:58Z</time>
      </trkpt>
      <trkpt lat="44.61395" lon="0.88483">
        <ele>201</ele>
        <time>2012-06-03T08:38:03Z</time>
      </trkpt>
      <trkpt lat="44.61371" lon="0.88498">
        <ele>200</ele>
        <time>2012-06-03T08:38:08Z</time>
      </trkpt>
      <trkpt lat="44.61349" lon="0.88512">
        <ele>200</ele>
        <time>2012-06-03T08:38:13Z</time>
      </trkpt>
      <trkpt lat="44.61329" lon="0.88529">
        <ele>200</ele>
        <time>2012-06-03T08:38:19Z</time>
      </trkpt>
      <trkpt lat="44.61309" lon="0.88539">
        <ele>200</ele>
        <time>2012-06-03T08:38:24Z</time>
      </trkpt>
      <trkpt lat="44.61287" lon="0.88554">
        <ele>200</ele>
        <time>2012-06-03T08:38:30Z</time>
      </trkpt>
      <trkpt lat="44.61271" lon="0.88567">
        <ele>200</ele>
        <time>2012-06-03T08:38:35Z</time>
      </trkpt>
      <trkpt lat="44.61247" lon="0.88579">
        <ele>195</ele>
        <time>2012-06-03T08:38:40Z</time>
      </trkpt>
      <trkpt lat="44.61217" lon="0.88599">
        <ele>193</ele>
        <time>2012-06-03T08:38:46Z</time>
      </trkpt>
      <trkpt lat="44.61186" lon="0.88628">
        <ele>193</ele>
        <time>2012-06-03T08:38:52Z</time>
      </trkpt>
      <trkpt lat="44.61159" lon="0.8865">
        <ele>188</ele>
        <time>2012-06-03T08:38:57Z</time>
      </trkpt>
      <trkpt lat="44.61134" lon="0.8867">
        <ele>186</ele>
        <time>2012-06-03T08:39:03Z</time>
      </trkpt>
      <trkpt lat="44.61119" lon="0.88661">
        <ele>186</ele>
        <time>2012-06-03T08:39:08Z</time>
      </trkpt>
      <trkpt lat="44.61106" lon="0.88647">
        <ele>183</ele>
        <time>2012-06-03T08:39:13Z</time>
      </trkpt>
      <trkpt lat="44.61089" lon="0.88623">
        <ele>181</ele>
        <time>2012-06-03T08:39:18Z</time>
      </trkpt>
      <trkpt lat="44.61073" lon="0.88604">
        <ele>178</ele>
        <time>2012-06-03T08:39:23Z</time>
      </trkpt>
      <trkpt lat="44.61053" lon="0.88582">
        <ele>178</ele>
        <time>2012-06-03T08:39:29Z</time>
      </trkpt>
      <trkpt lat="44.6104" lon="0.88563">
        <ele>177</ele>
        <time>2012-06-03T08:39:34Z</time>
      </trkpt>
      <trkpt lat="44.61029" lon="0.88541">
        <ele>174</ele>
        <time>2012-06-03T08:39:39Z</time>
      </trkpt>
      <trkpt lat="44.61016" lon="0.88521">
        <ele>173</ele>
        <time>2012-06-03T08:39:45Z</time>
      </trkpt>
      <trkpt lat="44.6101" lon="0.88501">
        <ele>173</ele>
        <time>2012-06-03T08:39:50Z</time>
      </trkpt>
      <trkpt lat="44.61003" lon="0.88484">
        <ele>177</ele>
        <time>2012-06-03T08:39:55Z</time>
      </trkpt>
      <trkpt lat="44.60993" lon="0.88466">
        <ele>181</ele>
        <time>2012-06-03T08:40:00Z</time>
      </trkpt>
      <trkpt lat="44.60983" lon="0.88445">
        <ele>186</ele>
        <time>2012-06-03T08:40:05Z</time>
      </trkpt>
      <trkpt lat="44.60969" lon="0.88428">
        <ele>191</ele>
        <time>2012-06-03T08:40:11Z</time>
      </trkpt>
      <trkpt lat="44.60957" lon="0.88415">
        <ele>194</ele>
        <time>2012-06-03T08:40:17Z</time>
      </trkpt>
      <trkpt lat="44.60943" lon="0.88406">
        <ele>197</ele>
        <time>2012-06-03T08:40:23Z</time>
      </trkpt>
      <trkpt lat="44.60942" lon="0.88386">
        <ele>203</ele>
        <time>2012-06-03T08:40:29Z</time>
      </trkpt>
      <trkpt lat="44.60936" lon="0.88369">
        <ele>208</ele>
        <time>2012-06-03T08:40:34Z</time>
      </trkpt>
      <trkpt lat="44.60921" lon="0.88368">
        <ele>211</ele>
        <time>2012-06-03T08:40:39Z</time>
      </trkpt>
      <trkpt lat="44.60904" lon="0.8836">
        <ele>213</ele>
        <time>2012-06-03T08:40:44Z</time>
      </trkpt>
      <trkpt lat="44.60887" lon="0.88353">
        <ele>214</ele>
        <time>2012-06-03T08:40:49Z</time>
      </trkpt>
      <trkpt lat="44.60878" lon="0.88345">
        <ele>214</ele>
        <time>2012-06-03T08:40:54Z</time>
      </trkpt>
      <trkpt lat="44.60866" lon="0.88349">
        <ele>216</ele>
        <time>2012-06-03T08:40:59Z</time>
      </trkpt>
      <trkpt lat="44.60854" lon="0.88346">
        <ele>216</ele>
        <time>2012-06-03T08:41:04Z</time>
      </trkpt>
      <trkpt lat="44.60844" lon="0.88318">
        <ele>216</ele>
        <time>2012-06-03T08:41:10Z</time>
      </trkpt>
      <trkpt lat="44.60843" lon="0.88289">
        <ele>216</ele>
        <time>2012-06-03T08:41:15Z</time>
      </trkpt>
      <trkpt lat="44.60839" lon="0.88244">
        <ele>216</ele>
        <time>2012-06-03T08:41:21Z</time>
      </trkpt>
      <trkpt lat="44.60839" lon="0.88202">
        <ele>216</ele>
        <time>2012-06-03T08:41:26Z</time>
      </trkpt>
      <trkpt lat="44.60829" lon="0.88169">
        <ele>219</ele>
        <time>2012-06-03T08:41:31Z</time>
      </trkpt>
      <trkpt lat="44.60813" lon="0.88161">
        <ele>220</ele>
        <time>2012-06-03T08:41:36Z</time>
      </trkpt>
      <trkpt lat="44.60788" lon="0.88164">
        <ele>216</ele>
        <time>2012-06-03T08:41:41Z</time>
      </trkpt>
      <trkpt lat="44.60759" lon="0.88155">
        <ele>206</ele>
        <time>2012-06-03T08:41:46Z</time>
      </trkpt>
      <trkpt lat="44.60733" lon="0.88143">
        <ele>196</ele>
        <time>2012-06-03T08:41:51Z</time>
      </trkpt>
      <trkpt lat="44.607" lon="0.88135">
        <ele>190</ele>
        <time>2012-06-03T08:41:56Z</time>
      </trkpt>
      <trkpt lat="44.6068" lon="0.88104">
        <ele>184</ele>
        <time>2012-06-03T08:42:01Z</time>
      </trkpt>
      <trkpt lat="44.60652" lon="0.88057">
        <ele>181</ele>
        <time>2012-06-03T08:42:07Z</time>
      </trkpt>
      <trkpt lat="44.60632" lon="0.88013">
        <ele>181</ele>
        <time>2012-06-03T08:42:12Z</time>
      </trkpt>
      <trkpt lat="44.6061" lon="0.87959">
        <ele>181</ele>
        <time>2012-06-03T08:42:17Z</time>
      </trkpt>
      <trkpt lat="44.60598" lon="0.8791">
        <ele>177</ele>
        <time>2012-06-03T08:42:23Z</time>
      </trkpt>
      <trkpt lat="44.6058" lon="0.87878">
        <ele>174</ele>
        <time>2012-06-03T08:42:28Z</time>
      </trkpt>
      <trkpt lat="44.60552" lon="0.87839">
        <ele>173</ele>
        <time>2012-06-03T08:42:34Z</time>
      </trkpt>
      <trkpt lat="44.60533" lon="0.87803">
        <ele>173</ele>
        <time>2012-06-03T08:42:39Z</time>
      </trkpt>
      <trkpt lat="44.6052" lon="0.87779">
        <ele>173</ele>
        <time>2012-06-03T08:42:44Z</time>
      </trkpt>
      <trkpt lat="44.60503" lon="0.87759">
        <ele>172</ele>
        <time>2012-06-03T08:42:49Z</time>
      </trkpt>
      <trkpt lat="44.6049" lon="0.87725">
        <ele>172</ele>
        <time>2012-06-03T08:42:55Z</time>
      </trkpt>
      <trkpt lat="44.60477" lon="0.87691">
        <ele>172</ele>
        <time>2012-06-03T08:43:01Z</time>
      </trkpt>
      <trkpt lat="44.60469" lon="0.87658">
        <ele>172</ele>
        <time>2012-06-03T08:43:06Z</time>
      </trkpt>
      <trkpt lat="44.60463" lon="0.8764">
        <ele>172</ele>
        <time>2012-06-03T08:43:11Z</time>
      </trkpt>
      <trkpt lat="44.60455" lon="0.87608">
        <ele>168</ele>
        <time>2012-06-03T08:43:17Z</time>
      </trkpt>
      <trkpt lat="44.60439" lon="0.87573">
        <ele>164</ele>
        <time>2012-06-03T08:43:23Z</time>
      </trkpt>
      <trkpt lat="44.60428" lon="0.8755">
        <ele>163</ele>
        <time>2012-06-03T08:43:28Z</time>
      </trkpt>
      <trkpt lat="44.60408" lon="0.87528">
        <ele>163</ele>
        <time>2012-06-03T08:43:33Z</time>
      </trkpt>
      <trkpt lat="44.60378" lon="0.87495">
        <ele>163</ele>
        <time>2012-06-03T08:43:38Z</time>
      </trkpt>
      <trkpt lat="44.60347" lon="0.87442">
        <ele>162</ele>
        <time>2012-06-03T08:43:44Z</time>
      </trkpt>
      <trkpt lat="44.6032" lon="0.87402">
        <ele>157</ele>
        <time>2012-06-03T08:43:49Z</time>
      </trkpt>
      <trkpt lat="44.60289" lon="0.87364">
        <ele>154</ele>
        <time>2012-06-03T08:43:55Z</time>
      </trkpt>
      <trkpt lat="44.60264" lon="0.87343">
        <ele>150</ele>
        <time>2012-06-03T08:44:01Z</time>
      </trkpt>
      <trkpt lat="44.60252" lon="0.87321">
        <ele>149</ele>
        <time>2012-06-03T08:44:06Z</time>
      </trkpt>
      <trkpt lat="44.6023" lon="0.87309">
        <ele>148</ele>
        <time>2012-06-03T08:44:12Z</time>
      </trkpt>
      <trkpt lat="44.6021" lon="0.87306">
        <ele>148</ele>
        <time>2012-06-03T08:44:17Z</time>
      </trkpt>
      <trkpt lat="44.60189" lon="0.87306">
        <ele>148</ele>
        <time>2012-06-03T08:44:22Z</time>
      </trkpt>
      <trkpt lat="44.60168" lon="0.87304">
        <ele>148</ele>
        <time>2012-06-03T08:44:27Z</time>
      </trkpt>
      <trkpt lat="44.60144" lon="0.87305">
        <ele>148</ele>
        <time>2012-06-03T08:44:32Z</time>
      </trkpt>
      <trkpt lat="44.6012" lon="0.873">
        <ele>148</ele>
        <time>2012-06-03T08:44:37Z</time>
      </trkpt>
      <trkpt lat="44.60095" lon="0.87292">
        <ele>148</ele>
        <time>2012-06-03T08:44:42Z</time>
      </trkpt>
      <trkpt lat="44.60072" lon="0.87286">
        <ele>148</ele>
        <time>2012-06-03T08:44:47Z</time>
      </trkpt>
      <trkpt lat="44.60052" lon="0.87283">
        <ele>148</ele>
        <time>2012-06-03T08:44:53Z</time>
      </trkpt>
      <trkpt lat="44.6004" lon="0.87275">
        <ele>148</ele>
        <time>2012-06-03T08:44:59Z</time>
      </trkpt>
      <trkpt lat="44.60036" lon="0.87243">
        <ele>148</ele>
        <time>2012-06-03T08:45:04Z</time>
      </trkpt>
      <trkpt lat="44.60034" lon="0.87202">
        <ele>148</ele>
        <time>2012-06-03T08:45:09Z</time>
      </trkpt>
      <trkpt lat="44.6003" lon="0.87164">
        <ele>148</ele>
        <time>2012-06-03T08:45:14Z</time>
      </trkpt>
      <trkpt lat="44.60025" lon="0.87124">
        <ele>148</ele>
        <time>2012-06-03T08:45:20Z</time>
      </trkpt>
      <trkpt lat="44.60024" lon="0.87099">
        <ele>148</ele>
        <time>2012-06-03T08:45:25Z</time>
      </trkpt>
      <trkpt lat="44.60037" lon="0.87093">
        <ele>149</ele>
        <time>2012-06-03T08:45:30Z</time>
      </trkpt>
      <trkpt lat="44.60046" lon="0.87092">
        <ele>152</ele>
        <time>2012-06-03T08:45:35Z</time>
      </trkpt>
      <trkpt lat="44.60057" lon="0.8709">
        <ele>154</ele>
        <time>2012-06-03T08:45:40Z</time>
      </trkpt>
      <trkpt lat="44.60071" lon="0.87086">
        <ele>157</ele>
        <time>2012-06-03T08:45:46Z</time>
      </trkpt>
      <trkpt lat="44.60082" lon="0.87082">
        <ele>157</ele>
        <time>2012-06-03T08:45:51Z</time>
      </trkpt>
      <trkpt lat="44.60093" lon="0.87078">
        <ele>159</ele>
        <time>2012-06-03T08:45:56Z</time>
      </trkpt>
      <trkpt lat="44.60102" lon="0.87077">
        <ele>159</ele>
        <time>2012-06-03T08:46:01Z</time>
      </trkpt>
      <trkpt lat="44.60113" lon="0.87076">
        <ele>160</ele>
        <time>2012-06-03T08:46:06Z</time>
      </trkpt>
      <trkpt lat="44.60123" lon="0.87073">
        <ele>162</ele>
        <time>2012-06-03T08:46:11Z</time>
      </trkpt>
      <trkpt lat="44.60135" lon="0.87069">
        <ele>166</ele>
        <time>2012-06-03T08:46:16Z</time>
      </trkpt>
      <trkpt lat="44.60149" lon="0.87062">
        <ele>166</ele>
        <time>2012-06-03T08:46:21Z</time>
      </trkpt>
      <trkpt lat="44.60163" lon="0.87049">
        <ele>167</ele>
        <time>2012-06-03T08:46:26Z</time>
      </trkpt>
      <trkpt lat="44.60178" lon="0.87037">
        <ele>171</ele>
        <time>2012-06-03T08:46:31Z</time>
      </trkpt>
      <trkpt lat="44.60194" lon="0.87024">
        <ele>174</ele>
        <time>2012-06-03T08:46:36Z</time>
      </trkpt>
      <trkpt lat="44.60212" lon="0.87016">
        <ele>176</ele>
        <time>2012-06-03T08:46:41Z</time>
      </trkpt>
      <trkpt lat="44.60225" lon="0.87014">
        <ele>176</ele>
        <time>2012-06-03T08:46:46Z</time>
      </trkpt>
      <trkpt lat="44.6024" lon="0.87008">
        <ele>176</ele>
        <time>2012-06-03T08:46:51Z</time>
      </trkpt>
      <trkpt lat="44.60255" lon="0.87001">
        <ele>177</ele>
        <time>2012-06-03T08:46:56Z</time>
      </trkpt>
      <trkpt lat="44.60267" lon="0.86994">
        <ele>178</ele>
        <time>2012-06-03T08:47:01Z</time>
      </trkpt>
      <trkpt lat="44.60278" lon="0.86988">
        <ele>180</ele>
        <time>2012-06-03T08:47:06Z</time>
      </trkpt>
      <trkpt lat="44.60291" lon="0.8698">
        <ele>184</ele>
        <time>2012-06-03T08:47:11Z</time>
      </trkpt>
      <trkpt lat="44.60304" lon="0.86972">
        <ele>186</ele>
        <time>2012-06-03T08:47:16Z</time>
      </trkpt>
      <trkpt lat="44.60315" lon="0.86965">
        <ele>187</ele>
        <time>2012-06-03T08:47:21Z</time>
      </trkpt>
      <trkpt lat="44.60317" lon="0.86958">
        <ele>187</ele>
        <time>2012-06-03T08:47:26Z</time>
      </trkpt>
      <trkpt lat="44.60319" lon="0.86941">
        <ele>187</ele>
        <time>2012-06-03T08:47:31Z</time>
      </trkpt>
      <trkpt lat="44.60321" lon="0.86916">
        <ele>185</ele>
        <time>2012-06-03T08:47:36Z</time>
      </trkpt>
      <trkpt lat="44.6032" lon="0.86883">
        <ele>185</ele>
        <time>2012-06-03T08:47:41Z</time>
      </trkpt>
      <trkpt lat="44.60316" lon="0.86841">
        <ele>183</ele>
        <time>2012-06-03T08:47:46Z</time>
      </trkpt>
      <trkpt lat="44.60311" lon="0.86796">
        <ele>182</ele>
        <time>2012-06-03T08:47:51Z</time>
      </trkpt>
      <trkpt lat="44.60307" lon="0.86752">
        <ele>177</ele>
        <time>2012-06-03T08:47:56Z</time>
      </trkpt>
      <trkpt lat="44.60312" lon="0.86721">
        <ele>176</ele>
        <time>2012-06-03T08:48:01Z</time>
      </trkpt>
      <trkpt lat="44.60318" lon="0.86701">
        <ele>176</ele>
        <time>2012-06-03T08:48:06Z</time>
      </trkpt>
      <trkpt lat="44.60324" lon="0.86681">
        <ele>175</ele>
        <time>2012-06-03T08:48:11Z</time>
      </trkpt>
      <trkpt lat="44.60327" lon="0.86662">
        <ele>175</ele>
        <time>2012-06-03T08:48:16Z</time>
      </trkpt>
      <trkpt lat="44.60328" lon="0.86643">
        <ele>175</ele>
        <time>2012-06-03T08:48:21Z</time>
      </trkpt>
      <trkpt lat="44.60328" lon="0.86613">
        <ele>175</ele>
        <time>2012-06-03T08:48:26Z</time>
      </trkpt>
      <trkpt lat="44.60323" lon="0.86572">
        <ele>175</ele>
        <time>2012-06-03T08:48:31Z</time>
      </trkpt>
      <trkpt lat="44.60306" lon="0.86535">
        <ele>173</ele>
        <time>2012-06-03T08:48:36Z</time>
      </trkpt>
      <trkpt lat="44.60289" lon="0.86505">
        <ele>170</ele>
        <time>2012-06-03T08:48:41Z</time>
      </trkpt>
      <trkpt lat="44.60269" lon="0.865">
        <ele>170</ele>
        <time>2012-06-03T08:48:46Z</time>
      </trkpt>
      <trkpt lat="44.60255" lon="0.86488">
        <ele>170</ele>
        <time>2012-06-03T08:48:51Z</time>
      </trkpt>
      <trkpt lat="44.60257" lon="0.86464">
        <ele>170</ele>
        <time>2012-06-03T08:48:56Z</time>
      </trkpt>
      <trkpt lat="44.60264" lon="0.86442">
        <ele>171</ele>
        <time>2012-06-03T08:49:01Z</time>
      </trkpt>
      <trkpt lat="44.60272" lon="0.86421">
        <ele>173</ele>
        <time>2012-06-03T08:49:06Z</time>
      </trkpt>
      <trkpt lat="44.60283" lon="0.86397">
        <ele>173</ele>
        <time>2012-06-03T08:49:11Z</time>
      </trkpt>
      <trkpt lat="44.603" lon="0.86371">
        <ele>174</ele>
        <time>2012-06-03T08:49:16Z</time>
      </trkpt>
      <trkpt lat="44.6032" lon="0.86359">
        <ele>179</ele>
        <time>2012-06-03T08:49:21Z</time>
      </trkpt>
      <trkpt lat="44.60339" lon="0.86347">
        <ele>184</ele>
        <time>2012-06-03T08:49:26Z</time>
      </trkpt>
      <trkpt lat="44.60358" lon="0.8633">
        <ele>190</ele>
        <time>2012-06-03T08:49:31Z</time>
      </trkpt>
      <trkpt lat="44.60374" lon="0.86317">
        <ele>191</ele>
        <time>2012-06-03T08:49:36Z</time>
      </trkpt>
      <trkpt lat="44.60386" lon="0.86309">
        <ele>191</ele>
        <time>2012-06-03T08:49:41Z</time>
      </trkpt>
      <trkpt lat="44.60402" lon="0.86303">
        <ele>187</ele>
        <time>2012-06-03T08:49:46Z</time>
      </trkpt>
      <trkpt lat="44.60415" lon="0.86309">
        <ele>182</ele>
        <time>2012-06-03T08:49:51Z</time>
      </trkpt>
      <trkpt lat="44.60423" lon="0.86319">
        <ele>180</ele>
        <time>2012-06-03T08:49:56Z</time>
      </trkpt>
      <trkpt lat="44.60429" lon="0.86323">
        <ele>178</ele>
        <time>2012-06-03T08:50:01Z</time>
      </trkpt>
      <trkpt lat="44.60435" lon="0.86331">
        <ele>178</ele>
        <time>2012-06-03T08:50:07Z</time>
      </trkpt>
      <trkpt lat="44.60441" lon="0.86337">
        <ele>178</ele>
        <time>2012-06-03T08:50:12Z</time>
      </trkpt>
      <trkpt lat="44.60448" lon="0.86343">
        <ele>178</ele>
        <time>2012-06-03T08:50:18Z</time>
      </trkpt>
      <trkpt lat="44.60453" lon="0.86345">
        <ele>176</ele>
        <time>2012-06-03T08:50:23Z</time>
      </trkpt>
      <trkpt lat="44.60459" lon="0.86349">
        <ele>176</ele>
        <time>2012-06-03T08:50:28Z</time>
      </trkpt>
      <trkpt lat="44.60464" lon="0.86353">
        <ele>176</ele>
        <time>2012-06-03T08:50:33Z</time>
      </trkpt>
      <trkpt lat="44.60472" lon="0.86357">
        <ele>176</ele>
        <time>2012-06-03T08:50:38Z</time>
      </trkpt>
      <trkpt lat="44.60481" lon="0.86359">
        <ele>176</ele>
        <time>2012-06-03T08:50:43Z</time>
      </trkpt>
      <trkpt lat="44.60488" lon="0.86361">
        <ele>179</ele>
        <time>2012-06-03T08:50:48Z</time>
      </trkpt>
      <trkpt lat="44.60496" lon="0.86366">
        <ele>181</ele>
        <time>2012-06-03T08:50:53Z</time>
      </trkpt>
      <trkpt lat="44.60505" lon="0.86368">
        <ele>181</ele>
        <time>2012-06-03T08:50:58Z</time>
      </trkpt>
      <trkpt lat="44.60517" lon="0.86368">
        <ele>183</ele>
        <time>2012-06-03T08:51:03Z</time>
      </trkpt>
      <trkpt lat="44.60529" lon="0.86369">
        <ele>184</ele>
        <time>2012-06-03T08:51:08Z</time>
      </trkpt>
      <trkpt lat="44.60543" lon="0.8637">
        <ele>184</ele>
        <time>2012-06-03T08:51:13Z</time>
      </trkpt>
      <trkpt lat="44.60556" lon="0.86372">
        <ele>184</ele>
        <time>2012-06-03T08:51:18Z</time>
      </trkpt>
      <trkpt lat="44.60572" lon="0.86376">
        <ele>184</ele>
        <time>2012-06-03T08:51:23Z</time>
      </trkpt>
      <trkpt lat="44.60587" lon="0.86381">
        <ele>184</ele>
        <time>2012-06-03T08:51:28Z</time>
      </trkpt>
      <trkpt lat="44.60608" lon="0.86382">
        <ele>184</ele>
        <time>2012-06-03T08:51:33Z</time>
      </trkpt>
      <trkpt lat="44.60622" lon="0.86389">
        <ele>184</ele>
        <time>2012-06-03T08:51:38Z</time>
      </trkpt>
      <trkpt lat="44.60638" lon="0.86393">
        <ele>184</ele>
        <time>2012-06-03T08:51:43Z</time>
      </trkpt>
      <trkpt lat="44.60642" lon="0.86374">
        <ele>184</ele>
        <time>2012-06-03T08:51:48Z</time>
      </trkpt>
      <trkpt lat="44.60646" lon="0.86355">
        <ele>184</ele>
        <time>2012-06-03T08:51:53Z</time>
      </trkpt>
      <trkpt lat="44.60651" lon="0.86336">
        <ele>184</ele>
        <time>2012-06-03T08:51:58Z</time>
      </trkpt>
      <trkpt lat="44.60656" lon="0.86317">
        <ele>184</ele>
        <time>2012-06-03T08:52:03Z</time>
      </trkpt>
      <trkpt lat="44.60661" lon="0.86296">
        <ele>184</ele>
        <time>2012-06-03T08:52:08Z</time>
      </trkpt>
      <trkpt lat="44.60666" lon="0.86273">
        <ele>184</ele>
        <time>2012-06-03T08:52:13Z</time>
      </trkpt>
      <trkpt lat="44.60672" lon="0.86248">
        <ele>183</ele>
        <time>2012-06-03T08:52:18Z</time>
      </trkpt>
      <trkpt lat="44.60678" lon="0.86223">
        <ele>181</ele>
        <time>2012-06-03T08:52:23Z</time>
      </trkpt>
      <trkpt lat="44.60685" lon="0.86194">
        <ele>178</ele>
        <time>2012-06-03T08:52:28Z</time>
      </trkpt>
      <trkpt lat="44.60695" lon="0.86164">
        <ele>176</ele>
        <time>2012-06-03T08:52:33Z</time>
      </trkpt>
      <trkpt lat="44.60714" lon="0.86136">
        <ele>175</ele>
        <time>2012-06-03T08:52:38Z</time>
      </trkpt>
      <trkpt lat="44.60739" lon="0.86108">
        <ele>173</ele>
        <time>2012-06-03T08:52:43Z</time>
      </trkpt>
      <trkpt lat="44.60756" lon="0.86066">
        <ele>173</ele>
        <time>2012-06-03T08:52:48Z</time>
      </trkpt>
      <trkpt lat="44.60762" lon="0.86024">
        <ele>173</ele>
        <time>2012-06-03T08:52:53Z</time>
      </trkpt>
      <trkpt lat="44.60767" lon="0.85987">
        <ele>173</ele>
        <time>2012-06-03T08:52:58Z</time>
      </trkpt>
      <trkpt lat="44.6077" lon="0.85957">
        <ele>173</ele>
        <time>2012-06-03T08:53:03Z</time>
      </trkpt>
      <trkpt lat="44.60771" lon="0.85927">
        <ele>173</ele>
        <time>2012-06-03T08:53:08Z</time>
      </trkpt>
      <trkpt lat="44.60785" lon="0.85909">
        <ele>173</ele>
        <time>2012-06-03T08:53:14Z</time>
      </trkpt>
      <trkpt lat="44.60799" lon="0.85909">
        <ele>173</ele>
        <time>2012-06-03T08:53:19Z</time>
      </trkpt>
      <trkpt lat="44.60812" lon="0.85908">
        <ele>173</ele>
        <time>2012-06-03T08:53:24Z</time>
      </trkpt>
      <trkpt lat="44.60826" lon="0.85906">
        <ele>173</ele>
        <time>2012-06-03T08:53:29Z</time>
      </trkpt>
      <trkpt lat="44.6084" lon="0.85906">
        <ele>173</ele>
        <time>2012-06-03T08:53:34Z</time>
      </trkpt>
      <trkpt lat="44.60854" lon="0.85906">
        <ele>173</ele>
        <time>2012-06-03T08:53:39Z</time>
      </trkpt>
      <trkpt lat="44.60869" lon="0.8591">
        <ele>173</ele>
        <time>2012-06-03T08:53:44Z</time>
      </trkpt>
      <trkpt lat="44.60886" lon="0.85917">
        <ele>173</ele>
        <time>2012-06-03T08:53:49Z</time>
      </trkpt>
      <trkpt lat="44.60902" lon="0.85927">
        <ele>173</ele>
        <time>2012-06-03T08:53:54Z</time>
      </trkpt>
      <trkpt lat="44.60919" lon="0.85939">
        <ele>174</ele>
        <time>2012-06-03T08:53:59Z</time>
      </trkpt>
      <trkpt lat="44.60937" lon="0.85951">
        <ele>175</ele>
        <time>2012-06-03T08:54:04Z</time>
      </trkpt>
      <trkpt lat="44.60955" lon="0.85965">
        <ele>176</ele>
        <time>2012-06-03T08:54:09Z</time>
      </trkpt>
      <trkpt lat="44.60972" lon="0.8598">
        <ele>177</ele>
        <time>2012-06-03T08:54:14Z</time>
      </trkpt>
      <trkpt lat="44.60987" lon="0.86001">
        <ele>177</ele>
        <time>2012-06-03T08:54:19Z</time>
      </trkpt>
      <trkpt lat="44.61002" lon="0.86025">
        <ele>178</ele>
        <time>2012-06-03T08:54:24Z</time>
      </trkpt>
      <trkpt lat="44.61013" lon="0.86049">
        <ele>179</ele>
        <time>2012-06-03T08:54:29Z</time>
      </trkpt>
      <trkpt lat="44.61024" lon="0.86072">
        <ele>181</ele>
        <time>2012-06-03T08:54:34Z</time>
      </trkpt>
      <trkpt lat="44.61035" lon="0.86095">
        <ele>182</ele>
        <time>2012-06-03T08:54:39Z</time>
      </trkpt>
      <trkpt lat="44.61046" lon="0.86122">
        <ele>183</ele>
        <time>2012-06-03T08:54:44Z</time>
      </trkpt>
      <trkpt lat="44.61059" lon="0.86154">
        <ele>183</ele>
        <time>2012-06-03T08:54:49Z</time>
      </trkpt>
      <trkpt lat="44.61073" lon="0.8619">
        <ele>183</ele>
        <time>2012-06-03T08:54:54Z</time>
      </trkpt>
      <trkpt lat="44.61088" lon="0.86231">
        <ele>183</ele>
        <time>2012-06-03T08:54:59Z</time>
      </trkpt>
      <trkpt lat="44.61105" lon="0.86266">
        <ele>183</ele>
        <time>2012-06-03T08:55:04Z</time>
      </trkpt>
      <trkpt lat="44.61129" lon="0.86292">
        <ele>183</ele>
        <time>2012-06-03T08:55:09Z</time>
      </trkpt>
      <trkpt lat="44.61155" lon="0.86317">
        <ele>182</ele>
        <time>2012-06-03T08:55:14Z</time>
      </trkpt>
      <trkpt lat="44.61178" lon="0.86334">
        <ele>180</ele>
        <time>2012-06-03T08:55:19Z</time>
      </trkpt>
      <trkpt lat="44.61189" lon="0.86314">
        <ele>179</ele>
        <time>2012-06-03T08:55:24Z</time>
      </trkpt>
      <trkpt lat="44.61197" lon="0.86279">
        <ele>177</ele>
        <time>2012-06-03T08:55:29Z</time>
      </trkpt>
      <trkpt lat="44.61201" lon="0.86241">
        <ele>176</ele>
        <time>2012-06-03T08:55:34Z</time>
      </trkpt>
      <trkpt lat="44.612" lon="0.86203">
        <ele>176</ele>
        <time>2012-06-03T08:55:39Z</time>
      </trkpt>
      <trkpt lat="44.61201" lon="0.86163">
        <ele>176</ele>
        <time>2012-06-03T08:55:44Z</time>
      </trkpt>
      <trkpt lat="44.61213" lon="0.86129">
        <ele>176</ele>
        <time>2012-06-03T08:55:49Z</time>
      </trkpt>
      <trkpt lat="44.61223" lon="0.86096">
        <ele>175</ele>
        <time>2012-06-03T08:55:54Z</time>
      </trkpt>
      <trkpt lat="44.61241" lon="0.86063">
        <ele>175</ele>
        <time>2012-06-03T08:55:59Z</time>
      </trkpt>
      <trkpt lat="44.6127" lon="0.86026">
        <ele>175</ele>
        <time>2012-06-03T08:56:04Z</time>
      </trkpt>
      <trkpt lat="44.6129" lon="0.85978">
        <ele>172</ele>
        <time>2012-06-03T08:56:09Z</time>
      </trkpt>
      <trkpt lat="44.61298" lon="0.85941">
        <ele>167</ele>
        <time>2012-06-03T08:56:14Z</time>
      </trkpt>
      <trkpt lat="44.61308" lon="0.85903">
        <ele>167</ele>
        <time>2012-06-03T08:56:19Z</time>
      </trkpt>
      <trkpt lat="44.6132" lon="0.85867">
        <ele>166</ele>
        <time>2012-06-03T08:56:24Z</time>
      </trkpt>
      <trkpt lat="44.61331" lon="0.85836">
        <ele>164</ele>
        <time>2012-06-03T08:56:29Z</time>
      </trkpt>
      <trkpt lat="44.61348" lon="0.85806">
        <ele>164</ele>
        <time>2012-06-03T08:56:34Z</time>
      </trkpt>
      <trkpt lat="44.61366" lon="0.85775">
        <ele>164</ele>
        <time>2012-06-03T08:56:39Z</time>
      </trkpt>
      <trkpt lat="44.61383" lon="0.85755">
        <ele>164</ele>
        <time>2012-06-03T08:56:44Z</time>
      </trkpt>
      <trkpt lat="44.61393" lon="0.85745">
        <ele>164</ele>
        <time>2012-06-03T08:56:50Z</time>
      </trkpt>
      <trkpt lat="44.61397" lon="0.85752">
        <ele>164</ele>
        <time>2012-06-03T08:56:55Z</time>
      </trkpt>
      <trkpt lat="44.61403" lon="0.85765">
        <ele>164</ele>
        <time>2012-06-03T08:57:00Z</time>
      </trkpt>
      <trkpt lat="44.61426" lon="0.85791">
        <ele>163</ele>
        <time>2012-06-03T08:57:05Z</time>
      </trkpt>
      <trkpt lat="44.61455" lon="0.8582">
        <ele>162</ele>
        <time>2012-06-03T08:57:10Z</time>
      </trkpt>
      <trkpt lat="44.61477" lon="0.85836">
        <ele>160</ele>
        <time>2012-06-03T08:57:15Z</time>
      </trkpt>
      <trkpt lat="44.615" lon="0.85849">
        <ele>158</ele>
        <time>2012-06-03T08:57:20Z</time>
      </trkpt>
      <trkpt lat="44.6152" lon="0.85854">
        <ele>155</ele>
        <time>2012-06-03T08:57:25Z</time>
      </trkpt>
      <trkpt lat="44.61534" lon="0.85851">
        <ele>155</ele>
        <time>2012-06-03T08:57:30Z</time>
      </trkpt>
      <trkpt lat="44.61549" lon="0.85843">
        <ele>155</ele>
        <time>2012-06-03T08:57:35Z</time>
      </trkpt>
      <trkpt lat="44.61565" lon="0.85813">
        <ele>155</ele>
        <time>2012-06-03T08:57:40Z</time>
      </trkpt>
      <trkpt lat="44.61576" lon="0.8578">
        <ele>157</ele>
        <time>2012-06-03T08:57:45Z</time>
      </trkpt>
      <trkpt lat="44.61586" lon="0.85741">
        <ele>157</ele>
        <time>2012-06-03T08:57:50Z</time>
      </trkpt>
      <trkpt lat="44.61576" lon="0.85701">
        <ele>160</ele>
        <time>2012-06-03T08:57:55Z</time>
      </trkpt>
      <trkpt lat="44.61571" lon="0.85671">
        <ele>161</ele>
        <time>2012-06-03T08:58:00Z</time>
      </trkpt>
      <trkpt lat="44.61566" lon="0.85637">
        <ele>161</ele>
        <time>2012-06-03T08:58:05Z</time>
      </trkpt>
      <trkpt lat="44.61564" lon="0.85599">
        <ele>161</ele>
        <time>2012-06-03T08:58:10Z</time>
      </trkpt>
      <trkpt lat="44.61564" lon="0.8557">
        <ele>162</ele>
        <time>2012-06-03T08:58:15Z</time>
      </trkpt>
      <trkpt lat="44.61578" lon="0.85548">
        <ele>165</ele>
        <time>2012-06-03T08:58:20Z</time>
      </trkpt>
      <trkpt lat="44.61604" lon="0.8553">
        <ele>165</ele>
        <time>2012-06-03T08:58:25Z</time>
      </trkpt>
      <trkpt lat="44.61624" lon="0.8551">
        <ele>165</ele>
        <time>2012-06-03T08:58:30Z</time>
      </trkpt>
      <trkpt lat="44.61646" lon="0.85496">
        <ele>165</ele>
        <time>2012-06-03T08:58:35Z</time>
      </trkpt>
      <trkpt lat="44.61668" lon="0.85492">
        <ele>165</ele>
        <time>2012-06-03T08:58:40Z</time>
      </trkpt>
      <trkpt lat="44.61688" lon="0.85485">
        <ele>164</ele>
        <time>2012-06-03T08:58:45Z</time>
      </trkpt>
      <trkpt lat="44.61716" lon="0.85489">
        <ele>162</ele>
        <time>2012-06-03T08:58:50Z</time>
      </trkpt>
      <trkpt lat="44.61745" lon="0.85492">
        <ele>160</ele>
        <time>2012-06-03T08:58:55Z</time>
      </trkpt>
      <trkpt lat="44.61774" lon="0.85488">
        <ele>158</ele>
        <time>2012-06-03T08:59:00Z</time>
      </trkpt>
      <trkpt lat="44.61801" lon="0.85483">
        <ele>155</ele>
        <time>2012-06-03T08:59:05Z</time>
      </trkpt>
      <trkpt lat="44.61826" lon="0.85469">
        <ele>150</ele>
        <time>2012-06-03T08:59:10Z</time>
      </trkpt>
      <trkpt lat="44.61854" lon="0.85454">
        <ele>145</ele>
        <time>2012-06-03T08:59:15Z</time>
      </trkpt>
      <trkpt lat="44.6187" lon="0.85437">
        <ele>142</ele>
        <time>2012-06-03T08:59:20Z</time>
      </trkpt>
      <trkpt lat="44.61879" lon="0.8541">
        <ele>139</ele>
        <time>2012-06-03T08:59:25Z</time>
      </trkpt>
      <trkpt lat="44.61888" lon="0.85379">
        <ele>138</ele>
        <time>2012-06-03T08:59:30Z</time>
      </trkpt>
      <trkpt lat="44.61897" lon="0.85353">
        <ele>138</ele>
        <time>2012-06-03T08:59:35Z</time>
      </trkpt>
      <trkpt lat="44.61907" lon="0.85322">
        <ele>138</ele>
        <time>2012-06-03T08:59:40Z</time>
      </trkpt>
      <trkpt lat="44.61927" lon="0.85298">
        <ele>138</ele>
        <time>2012-06-03T08:59:45Z</time>
      </trkpt>
      <trkpt lat="44.61944" lon="0.85276">
        <ele>138</ele>
        <time>2012-06-03T08:59:50Z</time>
      </trkpt>
      <trkpt lat="44.6196" lon="0.85248">
        <ele>138</ele>
        <time>2012-06-03T08:59:55Z</time>
      </trkpt>
      <trkpt lat="44.61975" lon="0.85223">
        <ele>139</ele>
        <time>2012-06-03T09:00:00Z</time>
      </trkpt>
      <trkpt lat="44.61996" lon="0.85197">
        <ele>142</ele>
        <time>2012-06-03T09:00:05Z</time>
      </trkpt>
      <trkpt lat="44.62017" lon="0.85183">
        <ele>142</ele>
        <time>2012-06-03T09:00:10Z</time>
      </trkpt>
      <trkpt lat="44.62041" lon="0.8519">
        <ele>141</ele>
        <time>2012-06-03T09:00:15Z</time>
      </trkpt>
      <trkpt lat="44.6206" lon="0.85211">
        <ele>140</ele>
        <time>2012-06-03T09:00:20Z</time>
      </trkpt>
      <trkpt lat="44.6208" lon="0.85243">
        <ele>139</ele>
        <time>2012-06-03T09:00:25Z</time>
      </trkpt>
      <trkpt lat="44.62097" lon="0.85269">
        <ele>138</ele>
        <time>2012-06-03T09:00:30Z</time>
      </trkpt>
      <trkpt lat="44.62107" lon="0.85281">
        <ele>138</ele>
        <time>2012-06-03T09:00:35Z</time>
      </trkpt>
      <trkpt lat="44.62112" lon="0.85295">
        <ele>138</ele>
        <time>2012-06-03T09:00:40Z</time>
      </trkpt>
      <trkpt lat="44.62116" lon="0.85308">
        <ele>137</ele>
        <time>2012-06-03T09:00:45Z</time>
      </trkpt>
      <trkpt lat="44.6212" lon="0.85323">
        <ele>136</ele>
        <time>2012-06-03T09:00:50Z</time>
      </trkpt>
      <trkpt lat="44.62125" lon="0.85338">
        <ele>136</ele>
        <time>2012-06-03T09:00:55Z</time>
      </trkpt>
      <trkpt lat="44.62135" lon="0.8535">
        <ele>136</ele>
        <time>2012-06-03T09:01:00Z</time>
      </trkpt>
      <trkpt lat="44.62139" lon="0.85359">
        <ele>136</ele>
        <time>2012-06-03T09:01:05Z</time>
      </trkpt>
      <trkpt lat="44.62145" lon="0.85369">
        <ele>137</ele>
        <time>2012-06-03T09:01:10Z</time>
      </trkpt>
      <trkpt lat="44.62152" lon="0.85379">
        <ele>140</ele>
        <time>2012-06-03T09:01:15Z</time>
      </trkpt>
      <trkpt lat="44.6216" lon="0.85388">
        <ele>141</ele>
        <time>2012-06-03T09:01:20Z</time>
      </trkpt>
      <trkpt lat="44.62167" lon="0.85395">
        <ele>142</ele>
        <time>2012-06-03T09:01:25Z</time>
      </trkpt>
      <trkpt lat="44.62173" lon="0.85404">
        <ele>143</ele>
        <time>2012-06-03T09:01:30Z</time>
      </trkpt>
      <trkpt lat="44.6218" lon="0.85412">
        <ele>144</ele>
        <time>2012-06-03T09:01:35Z</time>
      </trkpt>
      <trkpt lat="44.62185" lon="0.85417">
        <ele>146</ele>
        <time>2012-06-03T09:01:40Z</time>
      </trkpt>
      <trkpt lat="44.62192" lon="0.85424">
        <ele>147</ele>
        <time>2012-06-03T09:01:45Z</time>
      </trkpt>
      <trkpt lat="44.62197" lon="0.8543">
        <ele>148</ele>
        <time>2012-06-03T09:01:50Z</time>
      </trkpt>
      <trkpt lat="44.62204" lon="0.85437">
        <ele>149</ele>
        <time>2012-06-03T09:01:55Z</time>
      </trkpt>
      <trkpt lat="44.62212" lon="0.85443">
        <ele>149</ele>
        <time>2012-06-03T09:02:00Z</time>
      </trkpt>
      <trkpt lat="44.62219" lon="0.85446">
        <ele>149</ele>
        <time>2012-06-03T09:02:05Z</time>
      </trkpt>
      <trkpt lat="44.62228" lon="0.85453">
        <ele>150</ele>
        <time>2012-06-03T09:02:11Z</time>
      </trkpt>
      <trkpt lat="44.62246" lon="0.85466">
        <ele>150</ele>
        <time>2012-06-03T09:02:16Z</time>
      </trkpt>
      <trkpt lat="44.62275" lon="0.8548">
        <ele>147</ele>
        <time>2012-06-03T09:02:21Z</time>
      </trkpt>
      <trkpt lat="44.62292" lon="0.85488">
        <ele>145</ele>
        <time>2012-06-03T09:02:26Z</time>
      </trkpt>
      <trkpt lat="44.62291" lon="0.855">
        <ele>145</ele>
        <time>2012-06-03T09:02:31Z</time>
      </trkpt>
      <trkpt lat="44.62292" lon="0.85522">
        <ele>145</ele>
        <time>2012-06-03T09:02:36Z</time>
      </trkpt>
      <trkpt lat="44.62296" lon="0.85543">
        <ele>145</ele>
        <time>2012-06-03T09:02:41Z</time>
      </trkpt>
      <trkpt lat="44.62298" lon="0.85563">
        <ele>145</ele>
        <time>2012-06-03T09:02:46Z</time>
      </trkpt>
      <trkpt lat="44.62299" lon="0.85582">
        <ele>149</ele>
        <time>2012-06-03T09:02:51Z</time>
      </trkpt>
      <trkpt lat="44.623" lon="0.85598">
        <ele>150</ele>
        <time>2012-06-03T09:02:56Z</time>
      </trkpt>
      <trkpt lat="44.62301" lon="0.85614">
        <ele>150</ele>
        <time>2012-06-03T09:03:01Z</time>
      </trkpt>
      <trkpt lat="44.62302" lon="0.85633">
        <ele>151</ele>
        <time>2012-06-03T09:03:06Z</time>
      </trkpt>
      <trkpt lat="44.62303" lon="0.8565">
        <ele>153</ele>
        <time>2012-06-03T09:03:11Z</time>
      </trkpt>
      <trkpt lat="44.62306" lon="0.85667">
        <ele>154</ele>
        <time>2012-06-03T09:03:16Z</time>
      </trkpt>
      <trkpt lat="44.62318" lon="0.85693">
        <ele>154</ele>
        <time>2012-06-03T09:03:21Z</time>
      </trkpt>
      <trkpt lat="44.62334" lon="0.85728">
        <ele>156</ele>
        <time>2012-06-03T09:03:26Z</time>
      </trkpt>
      <trkpt lat="44.62351" lon="0.85747">
        <ele>157</ele>
        <time>2012-06-03T09:03:31Z</time>
      </trkpt>
      <trkpt lat="44.62363" lon="0.85736">
        <ele>156</ele>
        <time>2012-06-03T09:03:36Z</time>
      </trkpt>
      <trkpt lat="44.62372" lon="0.85706">
        <ele>156</ele>
        <time>2012-06-03T09:03:41Z</time>
      </trkpt>
      <trkpt lat="44.62384" lon="0.85682">
        <ele>153</ele>
        <time>2012-06-03T09:03:46Z</time>
      </trkpt>
      <trkpt lat="44.624" lon="0.8566">
        <ele>153</ele>
        <time>2012-06-03T09:03:51Z</time>
      </trkpt>
      <trkpt lat="44.62423" lon="0.85649">
        <ele>153</ele>
        <time>2012-06-03T09:03:56Z</time>
      </trkpt>
      <trkpt lat="44.62439" lon="0.85638">
        <ele>153</ele>
        <time>2012-06-03T09:04:01Z</time>
      </trkpt>
      <trkpt lat="44.62447" lon="0.8563">
        <ele>153</ele>
        <time>2012-06-03T09:04:06Z</time>
      </trkpt>
      <trkpt lat="44.62456" lon="0.85628">
        <ele>153</ele>
        <time>2012-06-03T09:04:11Z</time>
      </trkpt>
      <trkpt lat="44.62464" lon="0.85622">
        <ele>153</ele>
        <time>2012-06-03T09:04:16Z</time>
      </trkpt>
      <trkpt lat="44.62466" lon="0.85618">
        <ele>153</ele>
        <time>2012-06-03T09:04:21Z</time>
      </trkpt>
      <trkpt lat="44.62467" lon="0.85612">
        <ele>153</ele>
        <time>2012-06-03T09:04:26Z</time>
      </trkpt>
      <trkpt lat="44.6247" lon="0.856">
        <ele>151</ele>
        <time>2012-06-03T09:04:31Z</time>
      </trkpt>
      <trkpt lat="44.62469" lon="0.85581">
        <ele>150</ele>
        <time>2012-06-03T09:04:36Z</time>
      </trkpt>
      <trkpt lat="44.62471" lon="0.85561">
        <ele>150</ele>
        <time>2012-06-03T09:04:41Z</time>
      </trkpt>
      <trkpt lat="44.62473" lon="0.85542">
        <ele>150</ele>
        <time>2012-06-03T09:04:46Z</time>
      </trkpt>
      <trkpt lat="44.62468" lon="0.85519">
        <ele>150</ele>
        <time>2012-06-03T09:04:51Z</time>
      </trkpt>
      <trkpt lat="44.62469" lon="0.85509">
        <ele>152</ele>
        <time>2012-06-03T09:04:56Z</time>
      </trkpt>
      <trkpt lat="44.6248" lon="0.85501">
        <ele>153</ele>
        <time>2012-06-03T09:05:01Z</time>
      </trkpt>
      <trkpt lat="44.62489" lon="0.85498">
        <ele>153</ele>
        <time>2012-06-03T09:05:06Z</time>
      </trkpt>
      <trkpt lat="44.62498" lon="0.85493">
        <ele>153</ele>
        <time>2012-06-03T09:05:11Z</time>
      </trkpt>
      <trkpt lat="44.62507" lon="0.85488">
        <ele>152</ele>
        <time>2012-06-03T09:05:16Z</time>
      </trkpt>
      <trkpt lat="44.62514" lon="0.8548">
        <ele>152</ele>
        <time>2012-06-03T09:05:21Z</time>
      </trkpt>
      <trkpt lat="44.62519" lon="0.85474">
        <ele>152</ele>
        <time>2012-06-03T09:05:26Z</time>
      </trkpt>
      <trkpt lat="44.62524" lon="0.85467">
        <ele>149</ele>
        <time>2012-06-03T09:05:32Z</time>
      </trkpt>
      <trkpt lat="44.6253" lon="0.85463">
        <ele>149</ele>
        <time>2012-06-03T09:05:37Z</time>
      </trkpt>
      <trkpt lat="44.62532" lon="0.85456">
        <ele>149</ele>
        <time>2012-06-03T09:05:43Z</time>
      </trkpt>
      <trkpt lat="44.62534" lon="0.8545">
        <ele>149</ele>
        <time>2012-06-03T09:05:49Z</time>
      </trkpt>
      <trkpt lat="44.62538" lon="0.85444">
        <ele>150</ele>
        <time>2012-06-03T09:05:55Z</time>
      </trkpt>
      <trkpt lat="44.62542" lon="0.85438">
        <ele>150</ele>
        <time>2012-06-03T09:06:00Z</time>
      </trkpt>
      <trkpt lat="44.62546" lon="0.85431">
        <ele>150</ele>
        <time>2012-06-03T09:06:05Z</time>
      </trkpt>
      <trkpt lat="44.6255" lon="0.85424">
        <ele>151</ele>
        <time>2012-06-03T09:06:11Z</time>
      </trkpt>
      <trkpt lat="44.62553" lon="0.85418">
        <ele>151</ele>
        <time>2012-06-03T09:06:16Z</time>
      </trkpt>
      <trkpt lat="44.62554" lon="0.8541">
        <ele>151</ele>
        <time>2012-06-03T09:06:21Z</time>
      </trkpt>
      <trkpt lat="44.62552" lon="0.85403">
        <ele>151</ele>
        <time>2012-06-03T09:06:26Z</time>
      </trkpt>
      <trkpt lat="44.62548" lon="0.854">
        <ele>150</ele>
        <time>2012-06-03T09:06:31Z</time>
      </trkpt>
      <trkpt lat="44.62542" lon="0.85398">
        <ele>146</ele>
        <time>2012-06-03T09:06:49Z</time>
      </trkpt>
      <trkpt lat="44.62541" lon="0.85396">
        <ele>147</ele>
        <time>2012-06-03T09:06:57Z</time>
      </trkpt>
      <trkpt lat="44.6254" lon="0.85395">
        <ele>150</ele>
        <time>2012-06-03T09:07:03Z</time>
      </trkpt>
      <trkpt lat="44.62541" lon="0.85396">
        <ele>155</ele>
        <time>2012-06-03T09:07:29Z</time>
      </trkpt>
      <trkpt lat="44.6254" lon="0.85397">
        <ele>157</ele>
        <time>2012-06-03T09:07:42Z</time>
      </trkpt>
      <trkpt lat="44.62539" lon="0.85399">
        <ele>157</ele>
        <time>2012-06-03T09:07:57Z</time>
      </trkpt>
      <trkpt lat="44.6254" lon="0.85397">
        <ele>157</ele>
        <time>2012-06-03T09:08:02Z</time>
      </trkpt>
      <trkpt lat="44.62542" lon="0.85395">
        <ele>158</ele>
        <time>2012-06-03T09:08:15Z</time>
      </trkpt>
      <trkpt lat="44.62541" lon="0.85395">
        <ele>162</ele>
        <time>2012-06-03T09:08:37Z</time>
      </trkpt>
      <trkpt lat="44.62543" lon="0.85394">
        <ele>161</ele>
        <time>2012-06-03T09:08:45Z</time>
      </trkpt>
      <trkpt lat="44.62542" lon="0.85395">
        <ele>156</ele>
        <time>2012-06-03T09:08:58Z</time>
      </trkpt>
      <trkpt lat="44.6254" lon="0.85396">
        <ele>155</ele>
        <time>2012-06-03T09:09:03Z</time>
      </trkpt>
      <trkpt lat="44.6254" lon="0.85398">
        <ele>155</ele>
        <time>2012-06-03T09:09:13Z</time>
      </trkpt>
      <trkpt lat="44.62541" lon="0.85397">
        <ele>155</ele>
        <time>2012-06-03T09:09:24Z</time>
      </trkpt>
      <trkpt lat="44.6254" lon="0.85398">
        <ele>156</ele>
        <time>2012-06-03T09:09:45Z</time>
      </trkpt>
      <trkpt lat="44.62539" lon="0.85399">
        <ele>156</ele>
        <time>2012-06-03T09:09:59Z</time>
      </trkpt>
      <trkpt lat="44.6254" lon="0.85398">
        <ele>156</ele>
        <time>2012-06-03T09:10:17Z</time>
      </trkpt>
      <trkpt lat="44.62542" lon="0.85397">
        <ele>156</ele>
        <time>2012-06-03T09:10:22Z</time>
      </trkpt>
      <trkpt lat="44.62543" lon="0.85395">
        <ele>156</ele>
        <time>2012-06-03T09:10:27Z</time>
      </trkpt>
      <trkpt lat="44.62544" lon="0.85394">
        <ele>156</ele>
        <time>2012-06-03T09:10:32Z</time>
      </trkpt>
      <trkpt lat="44.62545" lon="0.85392">
        <ele>156</ele>
        <time>2012-06-03T09:10:38Z</time>
      </trkpt>
      <trkpt lat="44.62545" lon="0.85394">
        <ele>160</ele>
        <time>2012-06-03T09:10:55Z</time>
      </trkpt>
      <trkpt lat="44.62546" lon="0.85396">
        <ele>166</ele>
        <time>2012-06-03T09:11:03Z</time>
      </trkpt>
      <trkpt lat="44.62545" lon="0.85397">
        <ele>170</ele>
        <time>2012-06-03T09:11:18Z</time>
      </trkpt>
      <trkpt lat="44.62544" lon="0.85399">
        <ele>172</ele>
        <time>2012-06-03T09:11:24Z</time>
      </trkpt>
      <trkpt lat="44.62546" lon="0.85396">
        <ele>173</ele>
        <time>2012-06-03T09:11:31Z</time>
      </trkpt>
      <trkpt lat="44.62548" lon="0.85395">
        <ele>172</ele>
        <time>2012-06-03T09:11:39Z</time>
      </trkpt>
      <trkpt lat="44.62549" lon="0.85394">
        <ele>169</ele>
        <time>2012-06-03T09:11:44Z</time>
      </trkpt>
      <trkpt lat="44.62542" lon="0.8539">
        <ele>164</ele>
        <time>2012-06-03T09:11:49Z</time>
      </trkpt>
      <trkpt lat="44.62536" lon="0.85384">
        <ele>161</ele>
        <time>2012-06-03T09:11:54Z</time>
      </trkpt>
      <trkpt lat="44.62528" lon="0.85377">
        <ele>159</ele>
        <time>2012-06-03T09:11:59Z</time>
      </trkpt>
      <trkpt lat="44.62523" lon="0.8537">
        <ele>155</ele>
        <time>2012-06-03T09:12:04Z</time>
      </trkpt>
      <trkpt lat="44.62518" lon="0.85358">
        <ele>153</ele>
        <time>2012-06-03T09:12:09Z</time>
      </trkpt>
      <trkpt lat="44.62515" lon="0.85344">
        <ele>152</ele>
        <time>2012-06-03T09:12:14Z</time>
      </trkpt>
      <trkpt lat="44.62515" lon="0.85332">
        <ele>152</ele>
        <time>2012-06-03T09:12:19Z</time>
      </trkpt>
      <trkpt lat="44.62515" lon="0.85318">
        <ele>152</ele>
        <time>2012-06-03T09:12:24Z</time>
      </trkpt>
      <trkpt lat="44.62518" lon="0.85303">
        <ele>152</ele>
        <time>2012-06-03T09:12:29Z</time>
      </trkpt>
      <trkpt lat="44.62523" lon="0.85288">
        <ele>155</ele>
        <time>2012-06-03T09:12:34Z</time>
      </trkpt>
      <trkpt lat="44.62531" lon="0.85271">
        <ele>157</ele>
        <time>2012-06-03T09:12:39Z</time>
      </trkpt>
      <trkpt lat="44.62529" lon="0.85245">
        <ele>157</ele>
        <time>2012-06-03T09:12:44Z</time>
      </trkpt>
      <trkpt lat="44.62524" lon="0.85214">
        <ele>157</ele>
        <time>2012-06-03T09:12:49Z</time>
      </trkpt>
      <trkpt lat="44.6251" lon="0.85177">
        <ele>154</ele>
        <time>2012-06-03T09:12:54Z</time>
      </trkpt>
      <trkpt lat="44.62494" lon="0.85145">
        <ele>150</ele>
        <time>2012-06-03T09:12:59Z</time>
      </trkpt>
      <trkpt lat="44.62477" lon="0.85111">
        <ele>150</ele>
        <time>2012-06-03T09:13:04Z</time>
      </trkpt>
      <trkpt lat="44.62472" lon="0.85084">
        <ele>150</ele>
        <time>2012-06-03T09:13:09Z</time>
      </trkpt>
      <trkpt lat="44.62467" lon="0.85064">
        <ele>150</ele>
        <time>2012-06-03T09:13:14Z</time>
      </trkpt>
      <trkpt lat="44.62451" lon="0.85047">
        <ele>150</ele>
        <time>2012-06-03T09:13:19Z</time>
      </trkpt>
      <trkpt lat="44.62438" lon="0.85033">
        <ele>150</ele>
        <time>2012-06-03T09:13:24Z</time>
      </trkpt>
      <trkpt lat="44.6244" lon="0.85024">
        <ele>150</ele>
        <time>2012-06-03T09:13:29Z</time>
      </trkpt>
      <trkpt lat="44.62456" lon="0.85028">
        <ele>150</ele>
        <time>2012-06-03T09:13:34Z</time>
      </trkpt>
      <trkpt lat="44.62472" lon="0.85031">
        <ele>150</ele>
        <time>2012-06-03T09:13:39Z</time>
      </trkpt>
      <trkpt lat="44.62489" lon="0.85034">
        <ele>150</ele>
        <time>2012-06-03T09:13:44Z</time>
      </trkpt>
      <trkpt lat="44.62506" lon="0.85038">
        <ele>150</ele>
        <time>2012-06-03T09:13:49Z</time>
      </trkpt>
      <trkpt lat="44.62522" lon="0.8504">
        <ele>150</ele>
        <time>2012-06-03T09:13:54Z</time>
      </trkpt>
      <trkpt lat="44.62538" lon="0.85046">
        <ele>150</ele>
        <time>2012-06-03T09:13:59Z</time>
      </trkpt>
      <trkpt lat="44.62554" lon="0.85054">
        <ele>150</ele>
        <time>2012-06-03T09:14:04Z</time>
      </trkpt>
      <trkpt lat="44.62572" lon="0.85062">
        <ele>150</ele>
        <time>2012-06-03T09:14:09Z</time>
      </trkpt>
      <trkpt lat="44.6259" lon="0.8507">
        <ele>150</ele>
        <time>2012-06-03T09:14:14Z</time>
      </trkpt>
      <trkpt lat="44.62608" lon="0.85079">
        <ele>150</ele>
        <time>2012-06-03T09:14:19Z</time>
      </trkpt>
      <trkpt lat="44.62626" lon="0.85088">
        <ele>150</ele>
        <time>2012-06-03T09:14:24Z</time>
      </trkpt>
      <trkpt lat="44.62635" lon="0.85086">
        <ele>152</ele>
        <time>2012-06-03T09:14:30Z</time>
      </trkpt>
      <trkpt lat="44.62636" lon="0.85085">
        <ele>152</ele>
        <time>2012-06-03T09:14:35Z</time>
      </trkpt>
      <trkpt lat="44.62638" lon="0.85083">
        <ele>152</ele>
        <time>2012-06-03T09:14:42Z</time>
      </trkpt>
      <trkpt lat="44.6264" lon="0.8507">
        <ele>152</ele>
        <time>2012-06-03T09:14:47Z</time>
      </trkpt>
      <trkpt lat="44.6264" lon="0.85051">
        <ele>156</ele>
        <time>2012-06-03T09:14:52Z</time>
      </trkpt>
      <trkpt lat="44.6264" lon="0.8503">
        <ele>158</ele>
        <time>2012-06-03T09:14:57Z</time>
      </trkpt>
      <trkpt lat="44.62641" lon="0.8501">
        <ele>158</ele>
        <time>2012-06-03T09:15:02Z</time>
      </trkpt>
      <trkpt lat="44.62642" lon="0.84984">
        <ele>158</ele>
        <time>2012-06-03T09:15:07Z</time>
      </trkpt>
      <trkpt lat="44.6264" lon="0.84963">
        <ele>158</ele>
        <time>2012-06-03T09:15:12Z</time>
      </trkpt>
      <trkpt lat="44.6264" lon="0.84957">
        <ele>158</ele>
        <time>2012-06-03T09:15:19Z</time>
      </trkpt>
      <trkpt lat="44.62641" lon="0.84954">
        <ele>158</ele>
        <time>2012-06-03T09:15:27Z</time>
      </trkpt>
      <trkpt lat="44.62643" lon="0.84951">
        <ele>167</ele>
        <time>2012-06-03T09:15:37Z</time>
      </trkpt>
      <trkpt lat="44.6265" lon="0.84951">
        <ele>167</ele>
        <time>2012-06-03T09:15:42Z</time>
      </trkpt>
      <trkpt lat="44.6266" lon="0.84947">
        <ele>168</ele>
        <time>2012-06-03T09:15:47Z</time>
      </trkpt>
      <trkpt lat="44.62673" lon="0.84944">
        <ele>168</ele>
        <time>2012-06-03T09:15:52Z</time>
      </trkpt>
      <trkpt lat="44.62688" lon="0.84942">
        <ele>164</ele>
        <time>2012-06-03T09:15:57Z</time>
      </trkpt>
      <trkpt lat="44.62703" lon="0.8494">
        <ele>161</ele>
        <time>2012-06-03T09:16:02Z</time>
      </trkpt>
      <trkpt lat="44.62717" lon="0.84937">
        <ele>158</ele>
        <time>2012-06-03T09:16:07Z</time>
      </trkpt>
      <trkpt lat="44.62731" lon="0.84935">
        <ele>157</ele>
        <time>2012-06-03T09:16:12Z</time>
      </trkpt>
      <trkpt lat="44.62747" lon="0.84931">
        <ele>155</ele>
        <time>2012-06-03T09:16:17Z</time>
      </trkpt>
      <trkpt lat="44.6276" lon="0.84929">
        <ele>154</ele>
        <time>2012-06-03T09:16:22Z</time>
      </trkpt>
      <trkpt lat="44.62773" lon="0.84928">
        <ele>154</ele>
        <time>2012-06-03T09:16:27Z</time>
      </trkpt>
      <trkpt lat="44.62788" lon="0.84925">
        <ele>154</ele>
        <time>2012-06-03T09:16:32Z</time>
      </trkpt>
      <trkpt lat="44.62802" lon="0.84918">
        <ele>154</ele>
        <time>2012-06-03T09:16:37Z</time>
      </trkpt>
      <trkpt lat="44.62817" lon="0.84908">
        <ele>150</ele>
        <time>2012-06-03T09:16:42Z</time>
      </trkpt>
      <trkpt lat="44.62834" lon="0.84899">
        <ele>148</ele>
        <time>2012-06-03T09:16:47Z</time>
      </trkpt>
      <trkpt lat="44.62851" lon="0.84892">
        <ele>148</ele>
        <time>2012-06-03T09:16:52Z</time>
      </trkpt>
      <trkpt lat="44.62867" lon="0.84888">
        <ele>148</ele>
        <time>2012-06-03T09:16:57Z</time>
      </trkpt>
      <trkpt lat="44.6288" lon="0.84886">
        <ele>148</ele>
        <time>2012-06-03T09:17:02Z</time>
      </trkpt>
      <trkpt lat="44.62895" lon="0.84896">
        <ele>148</ele>
        <time>2012-06-03T09:17:07Z</time>
      </trkpt>
      <trkpt lat="44.62906" lon="0.84911">
        <ele>152</ele>
        <time>2012-06-03T09:17:12Z</time>
      </trkpt>
      <trkpt lat="44.62907" lon="0.84928">
        <ele>155</ele>
        <time>2012-06-03T09:17:17Z</time>
      </trkpt>
      <trkpt lat="44.62903" lon="0.84945">
        <ele>160</ele>
        <time>2012-06-03T09:17:22Z</time>
      </trkpt>
      <trkpt lat="44.62901" lon="0.84962">
        <ele>165</ele>
        <time>2012-06-03T09:17:27Z</time>
      </trkpt>
      <trkpt lat="44.62897" lon="0.84979">
        <ele>170</ele>
        <time>2012-06-03T09:17:32Z</time>
      </trkpt>
      <trkpt lat="44.62892" lon="0.84996">
        <ele>175</ele>
        <time>2012-06-03T09:17:37Z</time>
      </trkpt>
      <trkpt lat="44.6289" lon="0.85008">
        <ele>180</ele>
        <time>2012-06-03T09:17:42Z</time>
      </trkpt>
      <trkpt lat="44.62887" lon="0.85022">
        <ele>181</ele>
        <time>2012-06-03T09:17:47Z</time>
      </trkpt>
      <trkpt lat="44.62883" lon="0.85034">
        <ele>183</ele>
        <time>2012-06-03T09:17:52Z</time>
      </trkpt>
      <trkpt lat="44.62879" lon="0.85046">
        <ele>184</ele>
        <time>2012-06-03T09:17:57Z</time>
      </trkpt>
      <trkpt lat="44.62877" lon="0.85061">
        <ele>184</ele>
        <time>2012-06-03T09:18:02Z</time>
      </trkpt>
      <trkpt lat="44.62874" lon="0.85079">
        <ele>184</ele>
        <time>2012-06-03T09:18:07Z</time>
      </trkpt>
      <trkpt lat="44.62873" lon="0.85081">
        <ele>186</ele>
        <time>2012-06-03T09:18:12Z</time>
      </trkpt>
      <trkpt lat="44.62873" lon="0.85086">
        <ele>186</ele>
        <time>2012-06-03T09:18:17Z</time>
      </trkpt>
      <trkpt lat="44.62874" lon="0.85092">
        <ele>184</ele>
        <time>2012-06-03T09:18:23Z</time>
      </trkpt>
      <trkpt lat="44.62873" lon="0.85094">
        <ele>184</ele>
        <time>2012-06-03T09:18:28Z</time>
      </trkpt>
      <trkpt lat="44.62867" lon="0.85103">
        <ele>184</ele>
        <time>2012-06-03T09:18:33Z</time>
      </trkpt>
      <trkpt lat="44.62864" lon="0.85115">
        <ele>184</ele>
        <time>2012-06-03T09:18:38Z</time>
      </trkpt>
      <trkpt lat="44.62861" lon="0.85126">
        <ele>184</ele>
        <time>2012-06-03T09:18:43Z</time>
      </trkpt>
      <trkpt lat="44.62858" lon="0.85143">
        <ele>186</ele>
        <time>2012-06-03T09:18:48Z</time>
      </trkpt>
      <trkpt lat="44.62862" lon="0.85159">
        <ele>188</ele>
        <time>2012-06-03T09:18:53Z</time>
      </trkpt>
      <trkpt lat="44.62874" lon="0.85169">
        <ele>188</ele>
        <time>2012-06-03T09:18:58Z</time>
      </trkpt>
      <trkpt lat="44.62886" lon="0.85177">
        <ele>186</ele>
        <time>2012-06-03T09:19:03Z</time>
      </trkpt>
      <trkpt lat="44.62898" lon="0.85185">
        <ele>182</ele>
        <time>2012-06-03T09:19:08Z</time>
      </trkpt>
      <trkpt lat="44.6291" lon="0.85192">
        <ele>178</ele>
        <time>2012-06-03T09:19:13Z</time>
      </trkpt>
      <trkpt lat="44.62923" lon="0.85197">
        <ele>177</ele>
        <time>2012-06-03T09:19:18Z</time>
      </trkpt>
      <trkpt lat="44.62939" lon="0.85206">
        <ele>177</ele>
        <time>2012-06-03T09:19:23Z</time>
      </trkpt>
      <trkpt lat="44.62957" lon="0.85215">
        <ele>177</ele>
        <time>2012-06-03T09:19:28Z</time>
      </trkpt>
      <trkpt lat="44.62978" lon="0.85222">
        <ele>177</ele>
        <time>2012-06-03T09:19:33Z</time>
      </trkpt>
      <trkpt lat="44.63" lon="0.85232">
        <ele>176</ele>
        <time>2012-06-03T09:19:38Z</time>
      </trkpt>
      <trkpt lat="44.6302" lon="0.8524">
        <ele>174</ele>
        <time>2012-06-03T09:19:43Z</time>
      </trkpt>
      <trkpt lat="44.6304" lon="0.85251">
        <ele>173</ele>
        <time>2012-06-03T09:19:48Z</time>
      </trkpt>
      <trkpt lat="44.63059" lon="0.85259">
        <ele>172</ele>
        <time>2012-06-03T09:19:53Z</time>
      </trkpt>
      <trkpt lat="44.63079" lon="0.85271">
        <ele>171</ele>
        <time>2012-06-03T09:19:58Z</time>
      </trkpt>
      <trkpt lat="44.63099" lon="0.85288">
        <ele>171</ele>
        <time>2012-06-03T09:20:03Z</time>
      </trkpt>
      <trkpt lat="44.63117" lon="0.85309">
        <ele>171</ele>
        <time>2012-06-03T09:20:08Z</time>
      </trkpt>
      <trkpt lat="44.63132" lon="0.85327">
        <ele>171</ele>
        <time>2012-06-03T09:20:13Z</time>
      </trkpt>
      <trkpt lat="44.63146" lon="0.85342">
        <ele>174</ele>
        <time>2012-06-03T09:20:18Z</time>
      </trkpt>
      <trkpt lat="44.6316" lon="0.85359">
        <ele>178</ele>
        <time>2012-06-03T09:20:23Z</time>
      </trkpt>
      <trkpt lat="44.63177" lon="0.85374">
        <ele>178</ele>
        <time>2012-06-03T09:20:28Z</time>
      </trkpt>
      <trkpt lat="44.63193" lon="0.85387">
        <ele>178</ele>
        <time>2012-06-03T09:20:33Z</time>
      </trkpt>
      <trkpt lat="44.63208" lon="0.85398">
        <ele>178</ele>
        <time>2012-06-03T09:20:38Z</time>
      </trkpt>
      <trkpt lat="44.6322" lon="0.85404">
        <ele>178</ele>
        <time>2012-06-03T09:20:43Z</time>
      </trkpt>
      <trkpt lat="44.63228" lon="0.8541">
        <ele>178</ele>
        <time>2012-06-03T09:20:48Z</time>
      </trkpt>
      <trkpt lat="44.63236" lon="0.85414">
        <ele>178</ele>
        <time>2012-06-03T09:20:53Z</time>
      </trkpt>
      <trkpt lat="44.63246" lon="0.8542">
        <ele>178</ele>
        <time>2012-06-03T09:20:58Z</time>
      </trkpt>
      <trkpt lat="44.63256" lon="0.85428">
        <ele>178</ele>
        <time>2012-06-03T09:21:03Z</time>
      </trkpt>
      <trkpt lat="44.63266" lon="0.85435">
        <ele>178</ele>
        <time>2012-06-03T09:21:08Z</time>
      </trkpt>
      <trkpt lat="44.63276" lon="0.85441">
        <ele>178</ele>
        <time>2012-06-03T09:21:13Z</time>
      </trkpt>
      <trkpt lat="44.63286" lon="0.85448">
        <ele>179</ele>
        <time>2012-06-03T09:21:18Z</time>
      </trkpt>
      <trkpt lat="44.63297" lon="0.85453">
        <ele>180</ele>
        <time>2012-06-03T09:21:23Z</time>
      </trkpt>
      <trkpt lat="44.63307" lon="0.85458">
        <ele>180</ele>
        <time>2012-06-03T09:21:28Z</time>
      </trkpt>
      <trkpt lat="44.63319" lon="0.85465">
        <ele>180</ele>
        <time>2012-06-03T09:21:33Z</time>
      </trkpt>
      <trkpt lat="44.63335" lon="0.85475">
        <ele>180</ele>
        <time>2012-06-03T09:21:38Z</time>
      </trkpt>
      <trkpt lat="44.63356" lon="0.85487">
        <ele>180</ele>
        <time>2012-06-03T09:21:43Z</time>
      </trkpt>
      <trkpt lat="44.63382" lon="0.855">
        <ele>180</ele>
        <time>2012-06-03T09:21:48Z</time>
      </trkpt>
      <trkpt lat="44.63412" lon="0.85513">
        <ele>180</ele>
        <time>2012-06-03T09:21:53Z</time>
      </trkpt>
      <trkpt lat="44.63442" lon="0.8553">
        <ele>179</ele>
        <time>2012-06-03T09:21:58Z</time>
      </trkpt>
      <trkpt lat="44.63463" lon="0.85529">
        <ele>177</ele>
        <time>2012-06-03T09:22:03Z</time>
      </trkpt>
      <trkpt lat="44.63477" lon="0.85538">
        <ele>177</ele>
        <time>2012-06-03T09:22:08Z</time>
      </trkpt>
      <trkpt lat="44.63485" lon="0.8554">
        <ele>177</ele>
        <time>2012-06-03T09:22:13Z</time>
      </trkpt>
      <trkpt lat="44.63494" lon="0.85544">
        <ele>177</ele>
        <time>2012-06-03T09:22:18Z</time>
      </trkpt>
      <trkpt lat="44.63503" lon="0.85548">
        <ele>177</ele>
        <time>2012-06-03T09:22:23Z</time>
      </trkpt>
      <trkpt lat="44.63515" lon="0.85557">
        <ele>177</ele>
        <time>2012-06-03T09:22:28Z</time>
      </trkpt>
      <trkpt lat="44.63524" lon="0.8557">
        <ele>177</ele>
        <time>2012-06-03T09:22:33Z</time>
      </trkpt>
      <trkpt lat="44.63538" lon="0.85584">
        <ele>177</ele>
        <time>2012-06-03T09:22:38Z</time>
      </trkpt>
      <trkpt lat="44.63555" lon="0.85599">
        <ele>177</ele>
        <time>2012-06-03T09:22:43Z</time>
      </trkpt>
      <trkpt lat="44.63578" lon="0.85616">
        <ele>177</ele>
        <time>2012-06-03T09:22:48Z</time>
      </trkpt>
      <trkpt lat="44.63595" lon="0.85627">
        <ele>177</ele>
        <time>2012-06-03T09:22:53Z</time>
      </trkpt>
      <trkpt lat="44.63613" lon="0.85638">
        <ele>177</ele>
        <time>2012-06-03T09:22:58Z</time>
      </trkpt>
      <trkpt lat="44.63629" lon="0.85651">
        <ele>176</ele>
        <time>2012-06-03T09:23:03Z</time>
      </trkpt>
      <trkpt lat="44.63651" lon="0.85659">
        <ele>172</ele>
        <time>2012-06-03T09:23:08Z</time>
      </trkpt>
      <trkpt lat="44.63675" lon="0.85666">
        <ele>168</ele>
        <time>2012-06-03T09:23:13Z</time>
      </trkpt>
      <trkpt lat="44.6369" lon="0.8567">
        <ele>166</ele>
        <time>2012-06-03T09:23:18Z</time>
      </trkpt>
      <trkpt lat="44.63697" lon="0.8568">
        <ele>165</ele>
        <time>2012-06-03T09:23:24Z</time>
      </trkpt>
      <trkpt lat="44.63702" lon="0.85688">
        <ele>164</ele>
        <time>2012-06-03T09:23:30Z</time>
      </trkpt>
      <trkpt lat="44.63702" lon="0.85691">
        <ele>163</ele>
        <time>2012-06-03T09:23:36Z</time>
      </trkpt>
      <trkpt lat="44.63705" lon="0.85693">
        <ele>163</ele>
        <time>2012-06-03T09:23:44Z</time>
      </trkpt>
      <trkpt lat="44.6371" lon="0.85693">
        <ele>165</ele>
        <time>2012-06-03T09:23:54Z</time>
      </trkpt>
      <trkpt lat="44.63715" lon="0.85698">
        <ele>169</ele>
        <time>2012-06-03T09:24:00Z</time>
      </trkpt>
      <trkpt lat="44.63718" lon="0.85701">
        <ele>171</ele>
        <time>2012-06-03T09:24:09Z</time>
      </trkpt>
      <trkpt lat="44.63724" lon="0.85699">
        <ele>171</ele>
        <time>2012-06-03T09:24:14Z</time>
      </trkpt>
      <trkpt lat="44.63734" lon="0.85701">
        <ele>171</ele>
        <time>2012-06-03T09:24:19Z</time>
      </trkpt>
      <trkpt lat="44.63736" lon="0.85706">
        <ele>171</ele>
        <time>2012-06-03T09:24:26Z</time>
      </trkpt>
      <trkpt lat="44.63741" lon="0.85706">
        <ele>175</ele>
        <time>2012-06-03T09:24:34Z</time>
      </trkpt>
      <trkpt lat="44.63744" lon="0.85712">
        <ele>175</ele>
        <time>2012-06-03T09:24:39Z</time>
      </trkpt>
      <trkpt lat="44.63749" lon="0.85719">
        <ele>175</ele>
        <time>2012-06-03T09:24:46Z</time>
      </trkpt>
      <trkpt lat="44.63754" lon="0.85727">
        <ele>175</ele>
        <time>2012-06-03T09:24:51Z</time>
      </trkpt>
      <trkpt lat="44.63755" lon="0.85734">
        <ele>171</ele>
        <time>2012-06-03T09:24:56Z</time>
      </trkpt>
      <trkpt lat="44.63763" lon="0.85749">
        <ele>168</ele>
        <time>2012-06-03T09:25:01Z</time>
      </trkpt>
      <trkpt lat="44.6377" lon="0.85767">
        <ele>167</ele>
        <time>2012-06-03T09:25:06Z</time>
      </trkpt>
      <trkpt lat="44.63776" lon="0.85778">
        <ele>167</ele>
        <time>2012-06-03T09:25:11Z</time>
      </trkpt>
      <trkpt lat="44.63789" lon="0.8579">
        <ele>166</ele>
        <time>2012-06-03T09:25:16Z</time>
      </trkpt>
      <trkpt lat="44.63798" lon="0.85803">
        <ele>165</ele>
        <time>2012-06-03T09:25:21Z</time>
      </trkpt>
      <trkpt lat="44.63808" lon="0.85818">
        <ele>164</ele>
        <time>2012-06-03T09:25:26Z</time>
      </trkpt>
      <trkpt lat="44.63818" lon="0.8583">
        <ele>164</ele>
        <time>2012-06-03T09:25:31Z</time>
      </trkpt>
      <trkpt lat="44.63828" lon="0.85839">
        <ele>164</ele>
        <time>2012-06-03T09:25:36Z</time>
      </trkpt>
      <trkpt lat="44.63834" lon="0.85852">
        <ele>164</ele>
        <time>2012-06-03T09:25:41Z</time>
      </trkpt>
      <trkpt lat="44.63845" lon="0.85866">
        <ele>164</ele>
        <time>2012-06-03T09:25:46Z</time>
      </trkpt>
      <trkpt lat="44.63854" lon="0.85879">
        <ele>164</ele>
        <time>2012-06-03T09:25:51Z</time>
      </trkpt>
      <trkpt lat="44.63864" lon="0.85888">
        <ele>164</ele>
        <time>2012-06-03T09:25:56Z</time>
      </trkpt>
      <trkpt lat="44.63874" lon="0.85895">
        <ele>165</ele>
        <time>2012-06-03T09:26:01Z</time>
      </trkpt>
      <trkpt lat="44.63885" lon="0.859">
        <ele>165</ele>
        <time>2012-06-03T09:26:06Z</time>
      </trkpt>
      <trkpt lat="44.63896" lon="0.85906">
        <ele>165</ele>
        <time>2012-06-03T09:26:11Z</time>
      </trkpt>
      <trkpt lat="44.63908" lon="0.85908">
        <ele>165</ele>
        <time>2012-06-03T09:26:16Z</time>
      </trkpt>
      <trkpt lat="44.6392" lon="0.85909">
        <ele>165</ele>
        <time>2012-06-03T09:26:21Z</time>
      </trkpt>
      <trkpt lat="44.63931" lon="0.85914">
        <ele>165</ele>
        <time>2012-06-03T09:26:26Z</time>
      </trkpt>
      <trkpt lat="44.63943" lon="0.85916">
        <ele>165</ele>
        <time>2012-06-03T09:26:31Z</time>
      </trkpt>
      <trkpt lat="44.63956" lon="0.85919">
        <ele>165</ele>
        <time>2012-06-03T09:26:36Z</time>
      </trkpt>
      <trkpt lat="44.63968" lon="0.85919">
        <ele>165</ele>
        <time>2012-06-03T09:26:41Z</time>
      </trkpt>
      <trkpt lat="44.63982" lon="0.85921">
        <ele>165</ele>
        <time>2012-06-03T09:26:46Z</time>
      </trkpt>
      <trkpt lat="44.63992" lon="0.85924">
        <ele>165</ele>
        <time>2012-06-03T09:26:51Z</time>
      </trkpt>
      <trkpt lat="44.64003" lon="0.85928">
        <ele>165</ele>
        <time>2012-06-03T09:26:56Z</time>
      </trkpt>
      <trkpt lat="44.64003" lon="0.85933">
        <ele>166</ele>
        <time>2012-06-03T09:27:01Z</time>
      </trkpt>
      <trkpt lat="44.64002" lon="0.8594">
        <ele>168</ele>
        <time>2012-06-03T09:27:06Z</time>
      </trkpt>
      <trkpt lat="44.64" lon="0.8595">
        <ele>169</ele>
        <time>2012-06-03T09:27:11Z</time>
      </trkpt>
      <trkpt lat="44.63996" lon="0.85959">
        <ele>169</ele>
        <time>2012-06-03T09:27:16Z</time>
      </trkpt>
      <trkpt lat="44.63988" lon="0.85971">
        <ele>169</ele>
        <time>2012-06-03T09:27:21Z</time>
      </trkpt>
      <trkpt lat="44.63979" lon="0.85983">
        <ele>170</ele>
        <time>2012-06-03T09:27:26Z</time>
      </trkpt>
      <trkpt lat="44.63971" lon="0.85992">
        <ele>172</ele>
        <time>2012-06-03T09:27:31Z</time>
      </trkpt>
      <trkpt lat="44.63964" lon="0.86002">
        <ele>177</ele>
        <time>2012-06-03T09:27:37Z</time>
      </trkpt>
      <trkpt lat="44.63958" lon="0.8601">
        <ele>178</ele>
        <time>2012-06-03T09:27:42Z</time>
      </trkpt>
      <trkpt lat="44.63953" lon="0.8602">
        <ele>180</ele>
        <time>2012-06-03T09:27:47Z</time>
      </trkpt>
      <trkpt lat="44.6395" lon="0.86029">
        <ele>181</ele>
        <time>2012-06-03T09:27:52Z</time>
      </trkpt>
      <trkpt lat="44.63946" lon="0.8604">
        <ele>183</ele>
        <time>2012-06-03T09:27:57Z</time>
      </trkpt>
      <trkpt lat="44.63943" lon="0.86053">
        <ele>183</ele>
        <time>2012-06-03T09:28:02Z</time>
      </trkpt>
      <trkpt lat="44.63942" lon="0.86062">
        <ele>187</ele>
        <time>2012-06-03T09:28:07Z</time>
      </trkpt>
      <trkpt lat="44.6394" lon="0.86065">
        <ele>187</ele>
        <time>2012-06-03T09:28:14Z</time>
      </trkpt>
      <trkpt lat="44.63936" lon="0.86072">
        <ele>187</ele>
        <time>2012-06-03T09:28:19Z</time>
      </trkpt>
      <trkpt lat="44.6393" lon="0.86081">
        <ele>191</ele>
        <time>2012-06-03T09:28:24Z</time>
      </trkpt>
      <trkpt lat="44.63927" lon="0.86093">
        <ele>191</ele>
        <time>2012-06-03T09:28:29Z</time>
      </trkpt>
      <trkpt lat="44.63923" lon="0.86104">
        <ele>191</ele>
        <time>2012-06-03T09:28:34Z</time>
      </trkpt>
      <trkpt lat="44.63921" lon="0.8611">
        <ele>191</ele>
        <time>2012-06-03T09:28:39Z</time>
      </trkpt>
      <trkpt lat="44.63918" lon="0.86121">
        <ele>188</ele>
        <time>2012-06-03T09:28:45Z</time>
      </trkpt>
      <trkpt lat="44.63915" lon="0.86128">
        <ele>184</ele>
        <time>2012-06-03T09:28:51Z</time>
      </trkpt>
      <trkpt lat="44.63913" lon="0.86132">
        <ele>184</ele>
        <time>2012-06-03T09:28:57Z</time>
      </trkpt>
      <trkpt lat="44.63913" lon="0.86136">
        <ele>182</ele>
        <time>2012-06-03T09:29:05Z</time>
      </trkpt>
      <trkpt lat="44.63908" lon="0.86142">
        <ele>182</ele>
        <time>2012-06-03T09:29:11Z</time>
      </trkpt>
      <trkpt lat="44.63903" lon="0.8615">
        <ele>182</ele>
        <time>2012-06-03T09:29:16Z</time>
      </trkpt>
      <trkpt lat="44.639" lon="0.86159">
        <ele>182</ele>
        <time>2012-06-03T09:29:21Z</time>
      </trkpt>
      <trkpt lat="44.63895" lon="0.86166">
        <ele>182</ele>
        <time>2012-06-03T09:29:26Z</time>
      </trkpt>
      <trkpt lat="44.63891" lon="0.86174">
        <ele>182</ele>
        <time>2012-06-03T09:29:32Z</time>
      </trkpt>
      <trkpt lat="44.63888" lon="0.86175">
        <ele>182</ele>
        <time>2012-06-03T09:29:37Z</time>
      </trkpt>
      <trkpt lat="44.63886" lon="0.86178">
        <ele>183</ele>
        <time>2012-06-03T09:29:43Z</time>
      </trkpt>
      <trkpt lat="44.63884" lon="0.86181">
        <ele>183</ele>
        <time>2012-06-03T09:29:48Z</time>
      </trkpt>
      <trkpt lat="44.63882" lon="0.86187">
        <ele>185</ele>
        <time>2012-06-03T09:29:54Z</time>
      </trkpt>
      <trkpt lat="44.6388" lon="0.8619">
        <ele>186</ele>
        <time>2012-06-03T09:29:59Z</time>
      </trkpt>
      <trkpt lat="44.63879" lon="0.86198">
        <ele>187</ele>
        <time>2012-06-03T09:30:04Z</time>
      </trkpt>
      <trkpt lat="44.63874" lon="0.86203">
        <ele>187</ele>
        <time>2012-06-03T09:30:10Z</time>
      </trkpt>
      <trkpt lat="44.6387" lon="0.86208">
        <ele>189</ele>
        <time>2012-06-03T09:30:15Z</time>
      </trkpt>
      <trkpt lat="44.6387" lon="0.86218">
        <ele>191</ele>
        <time>2012-06-03T09:30:20Z</time>
      </trkpt>
      <trkpt lat="44.63865" lon="0.86223">
        <ele>191</ele>
        <time>2012-06-03T09:30:26Z</time>
      </trkpt>
      <trkpt lat="44.63865" lon="0.86225">
        <ele>191</ele>
        <time>2012-06-03T09:30:31Z</time>
      </trkpt>
      <trkpt lat="44.63863" lon="0.8623">
        <ele>190</ele>
        <time>2012-06-03T09:30:36Z</time>
      </trkpt>
      <trkpt lat="44.63857" lon="0.86239">
        <ele>190</ele>
        <time>2012-06-03T09:30:41Z</time>
      </trkpt>
      <trkpt lat="44.63851" lon="0.86247">
        <ele>190</ele>
        <time>2012-06-03T09:30:46Z</time>
      </trkpt>
      <trkpt lat="44.63846" lon="0.86255">
        <ele>190</ele>
        <time>2012-06-03T09:30:51Z</time>
      </trkpt>
      <trkpt lat="44.63841" lon="0.86263">
        <ele>190</ele>
        <time>2012-06-03T09:30:56Z</time>
      </trkpt>
      <trkpt lat="44.63834" lon="0.86268">
        <ele>194</ele>
        <time>2012-06-03T09:31:01Z</time>
      </trkpt>
      <trkpt lat="44.63828" lon="0.86275">
        <ele>198</ele>
        <time>2012-06-03T09:31:06Z</time>
      </trkpt>
      <trkpt lat="44.63823" lon="0.86286">
        <ele>199</ele>
        <time>2012-06-03T09:31:11Z</time>
      </trkpt>
      <trkpt lat="44.63817" lon="0.86299">
        <ele>199</ele>
        <time>2012-06-03T09:31:16Z</time>
      </trkpt>
      <trkpt lat="44.63811" lon="0.8631">
        <ele>198</ele>
        <time>2012-06-03T09:31:21Z</time>
      </trkpt>
      <trkpt lat="44.63804" lon="0.86319">
        <ele>198</ele>
        <time>2012-06-03T09:31:26Z</time>
      </trkpt>
      <trkpt lat="44.63797" lon="0.86332">
        <ele>198</ele>
        <time>2012-06-03T09:31:31Z</time>
      </trkpt>
      <trkpt lat="44.6379" lon="0.86345">
        <ele>198</ele>
        <time>2012-06-03T09:31:36Z</time>
      </trkpt>
      <trkpt lat="44.63783" lon="0.8636">
        <ele>197</ele>
        <time>2012-06-03T09:31:41Z</time>
      </trkpt>
      <trkpt lat="44.63776" lon="0.86375">
        <ele>194</ele>
        <time>2012-06-03T09:31:46Z</time>
      </trkpt>
      <trkpt lat="44.63769" lon="0.86389">
        <ele>193</ele>
        <time>2012-06-03T09:31:51Z</time>
      </trkpt>
      <trkpt lat="44.63762" lon="0.86404">
        <ele>191</ele>
        <time>2012-06-03T09:31:56Z</time>
      </trkpt>
      <trkpt lat="44.63754" lon="0.86417">
        <ele>191</ele>
        <time>2012-06-03T09:32:01Z</time>
      </trkpt>
      <trkpt lat="44.63746" lon="0.86428">
        <ele>191</ele>
        <time>2012-06-03T09:32:06Z</time>
      </trkpt>
      <trkpt lat="44.63739" lon="0.86442">
        <ele>191</ele>
        <time>2012-06-03T09:32:11Z</time>
      </trkpt>
      <trkpt lat="44.63733" lon="0.86453">
        <ele>191</ele>
        <time>2012-06-03T09:32:16Z</time>
      </trkpt>
      <trkpt lat="44.63726" lon="0.86462">
        <ele>192</ele>
        <time>2012-06-03T09:32:21Z</time>
      </trkpt>
      <trkpt lat="44.63719" lon="0.86472">
        <ele>196</ele>
        <time>2012-06-03T09:32:26Z</time>
      </trkpt>
      <trkpt lat="44.63712" lon="0.86487">
        <ele>197</ele>
        <time>2012-06-03T09:32:31Z</time>
      </trkpt>
      <trkpt lat="44.63705" lon="0.86493">
        <ele>197</ele>
        <time>2012-06-03T09:32:36Z</time>
      </trkpt>
      <trkpt lat="44.63702" lon="0.86493">
        <ele>194</ele>
        <time>2012-06-03T09:32:52Z</time>
      </trkpt>
      <trkpt lat="44.63703" lon="0.86492">
        <ele>193</ele>
        <time>2012-06-03T09:33:05Z</time>
      </trkpt>
      <trkpt lat="44.63705" lon="0.8649">
        <ele>193</ele>
        <time>2012-06-03T09:33:14Z</time>
      </trkpt>
      <trkpt lat="44.63707" lon="0.86489">
        <ele>193</ele>
        <time>2012-06-03T09:33:22Z</time>
      </trkpt>
      <trkpt lat="44.63705" lon="0.86489">
        <ele>193</ele>
        <time>2012-06-03T09:33:27Z</time>
      </trkpt>
      <trkpt lat="44.63697" lon="0.86504">
        <ele>193</ele>
        <time>2012-06-03T09:33:32Z</time>
      </trkpt>
      <trkpt lat="44.6369" lon="0.86519">
        <ele>193</ele>
        <time>2012-06-03T09:33:38Z</time>
      </trkpt>
      <trkpt lat="44.63678" lon="0.86526">
        <ele>193</ele>
        <time>2012-06-03T09:33:43Z</time>
      </trkpt>
      <trkpt lat="44.63668" lon="0.86533">
        <ele>193</ele>
        <time>2012-06-03T09:33:48Z</time>
      </trkpt>
      <trkpt lat="44.63657" lon="0.86538">
        <ele>193</ele>
        <time>2012-06-03T09:33:53Z</time>
      </trkpt>
      <trkpt lat="44.63647" lon="0.86547">
        <ele>193</ele>
        <time>2012-06-03T09:33:58Z</time>
      </trkpt>
      <trkpt lat="44.63637" lon="0.86563">
        <ele>193</ele>
        <time>2012-06-03T09:34:03Z</time>
      </trkpt>
      <trkpt lat="44.63624" lon="0.8658">
        <ele>193</ele>
        <time>2012-06-03T09:34:08Z</time>
      </trkpt>
      <trkpt lat="44.63613" lon="0.86597">
        <ele>193</ele>
        <time>2012-06-03T09:34:13Z</time>
      </trkpt>
      <trkpt lat="44.63604" lon="0.86615">
        <ele>193</ele>
        <time>2012-06-03T09:34:18Z</time>
      </trkpt>
      <trkpt lat="44.63596" lon="0.86632">
        <ele>193</ele>
        <time>2012-06-03T09:34:23Z</time>
      </trkpt>
      <trkpt lat="44.63589" lon="0.86651">
        <ele>194</ele>
        <time>2012-06-03T09:34:28Z</time>
      </trkpt>
      <trkpt lat="44.63581" lon="0.86673">
        <ele>196</ele>
        <time>2012-06-03T09:34:33Z</time>
      </trkpt>
      <trkpt lat="44.63573" lon="0.86697">
        <ele>199</ele>
        <time>2012-06-03T09:34:38Z</time>
      </trkpt>
      <trkpt lat="44.63563" lon="0.86727">
        <ele>199</ele>
        <time>2012-06-03T09:34:43Z</time>
      </trkpt>
      <trkpt lat="44.63557" lon="0.86743">
        <ele>196</ele>
        <time>2012-06-03T09:34:48Z</time>
      </trkpt>
      <trkpt lat="44.63555" lon="0.86759">
        <ele>194</ele>
        <time>2012-06-03T09:34:53Z</time>
      </trkpt>
      <trkpt lat="44.6355" lon="0.86776">
        <ele>192</ele>
        <time>2012-06-03T09:34:58Z</time>
      </trkpt>
      <trkpt lat="44.63543" lon="0.86789">
        <ele>189</ele>
        <time>2012-06-03T09:35:03Z</time>
      </trkpt>
      <trkpt lat="44.63536" lon="0.86802">
        <ele>186</ele>
        <time>2012-06-03T09:35:08Z</time>
      </trkpt>
      <trkpt lat="44.63526" lon="0.86814">
        <ele>181</ele>
        <time>2012-06-03T09:35:13Z</time>
      </trkpt>
      <trkpt lat="44.63505" lon="0.86825">
        <ele>176</ele>
        <time>2012-06-03T09:35:18Z</time>
      </trkpt>
      <trkpt lat="44.63477" lon="0.86843">
        <ele>171</ele>
        <time>2012-06-03T09:35:23Z</time>
      </trkpt>
      <trkpt lat="44.63469" lon="0.86873">
        <ele>169</ele>
        <time>2012-06-03T09:35:28Z</time>
      </trkpt>
      <trkpt lat="44.63472" lon="0.86898">
        <ele>169</ele>
        <time>2012-06-03T09:35:33Z</time>
      </trkpt>
      <trkpt lat="44.6346" lon="0.86916">
        <ele>169</ele>
        <time>2012-06-03T09:35:38Z</time>
      </trkpt>
      <trkpt lat="44.63442" lon="0.8693">
        <ele>169</ele>
        <time>2012-06-03T09:35:43Z</time>
      </trkpt>
      <trkpt lat="44.63425" lon="0.8694">
        <ele>169</ele>
        <time>2012-06-03T09:35:48Z</time>
      </trkpt>
      <trkpt lat="44.63407" lon="0.86951">
        <ele>169</ele>
        <time>2012-06-03T09:35:53Z</time>
      </trkpt>
      <trkpt lat="44.63389" lon="0.86955">
        <ele>169</ele>
        <time>2012-06-03T09:35:58Z</time>
      </trkpt>
      <trkpt lat="44.63373" lon="0.86959">
        <ele>169</ele>
        <time>2012-06-03T09:36:03Z</time>
      </trkpt>
      <trkpt lat="44.6336" lon="0.86965">
        <ele>170</ele>
        <time>2012-06-03T09:36:08Z</time>
      </trkpt>
      <trkpt lat="44.63348" lon="0.86971">
        <ele>171</ele>
        <time>2012-06-03T09:36:13Z</time>
      </trkpt>
      <trkpt lat="44.6334" lon="0.86976">
        <ele>171</ele>
        <time>2012-06-03T09:36:18Z</time>
      </trkpt>
      <trkpt lat="44.63332" lon="0.86982">
        <ele>172</ele>
        <time>2012-06-03T09:36:23Z</time>
      </trkpt>
      <trkpt lat="44.63328" lon="0.86984">
        <ele>174</ele>
        <time>2012-06-03T09:36:28Z</time>
      </trkpt>
      <trkpt lat="44.63326" lon="0.86987">
        <ele>174</ele>
        <time>2012-06-03T09:36:34Z</time>
      </trkpt>
      <trkpt lat="44.63324" lon="0.86989">
        <ele>174</ele>
        <time>2012-06-03T09:36:46Z</time>
      </trkpt>
      <trkpt lat="44.63325" lon="0.8699">
        <ele>174</ele>
        <time>2012-06-03T09:36:53Z</time>
      </trkpt>
      <trkpt lat="44.63324" lon="0.86992">
        <ele>174</ele>
        <time>2012-06-03T09:37:17Z</time>
      </trkpt>
      <trkpt lat="44.63322" lon="0.86993">
        <ele>174</ele>
        <time>2012-06-03T09:37:24Z</time>
      </trkpt>
      <trkpt lat="44.6332" lon="0.86994">
        <ele>174</ele>
        <time>2012-06-03T09:37:33Z</time>
      </trkpt>
      <trkpt lat="44.6332" lon="0.86992">
        <ele>174</ele>
        <time>2012-06-03T09:37:38Z</time>
      </trkpt>
      <trkpt lat="44.63322" lon="0.8699">
        <ele>174</ele>
        <time>2012-06-03T09:37:44Z</time>
      </trkpt>
      <trkpt lat="44.63321" lon="0.86991">
        <ele>175</ele>
        <time>2012-06-03T09:37:51Z</time>
      </trkpt>
      <trkpt lat="44.63317" lon="0.86992">
        <ele>176</ele>
        <time>2012-06-03T09:37:58Z</time>
      </trkpt>
      <trkpt lat="44.63315" lon="0.86995">
        <ele>176</ele>
        <time>2012-06-03T09:38:03Z</time>
      </trkpt>
      <trkpt lat="44.63312" lon="0.86999">
        <ele>180</ele>
        <time>2012-06-03T09:38:09Z</time>
      </trkpt>
      <trkpt lat="44.6331" lon="0.87002">
        <ele>180</ele>
        <time>2012-06-03T09:38:15Z</time>
      </trkpt>
      <trkpt lat="44.63307" lon="0.87004">
        <ele>182</ele>
        <time>2012-06-03T09:38:21Z</time>
      </trkpt>
      <trkpt lat="44.63303" lon="0.87008">
        <ele>184</ele>
        <time>2012-06-03T09:38:27Z</time>
      </trkpt>
      <trkpt lat="44.63301" lon="0.87012">
        <ele>186</ele>
        <time>2012-06-03T09:38:33Z</time>
      </trkpt>
      <trkpt lat="44.63298" lon="0.87016">
        <ele>188</ele>
        <time>2012-06-03T09:38:38Z</time>
      </trkpt>
      <trkpt lat="44.63295" lon="0.8702">
        <ele>192</ele>
        <time>2012-06-03T09:38:44Z</time>
      </trkpt>
      <trkpt lat="44.63293" lon="0.87026">
        <ele>192</ele>
        <time>2012-06-03T09:38:50Z</time>
      </trkpt>
      <trkpt lat="44.63293" lon="0.8703">
        <ele>192</ele>
        <time>2012-06-03T09:38:59Z</time>
      </trkpt>
      <trkpt lat="44.63289" lon="0.87038">
        <ele>192</ele>
        <time>2012-06-03T09:39:06Z</time>
      </trkpt>
      <trkpt lat="44.63286" lon="0.87047">
        <ele>192</ele>
        <time>2012-06-03T09:39:12Z</time>
      </trkpt>
      <trkpt lat="44.63281" lon="0.87058">
        <ele>192</ele>
        <time>2012-06-03T09:39:18Z</time>
      </trkpt>
      <trkpt lat="44.63275" lon="0.87067">
        <ele>192</ele>
        <time>2012-06-03T09:39:24Z</time>
      </trkpt>
      <trkpt lat="44.63275" lon="0.87072">
        <ele>192</ele>
        <time>2012-06-03T09:39:30Z</time>
      </trkpt>
      <trkpt lat="44.63274" lon="0.87076">
        <ele>191</ele>
        <time>2012-06-03T09:39:35Z</time>
      </trkpt>
      <trkpt lat="44.63272" lon="0.87078">
        <ele>189</ele>
        <time>2012-06-03T09:39:40Z</time>
      </trkpt>
      <trkpt lat="44.63269" lon="0.87081">
        <ele>189</ele>
        <time>2012-06-03T09:39:46Z</time>
      </trkpt>
      <trkpt lat="44.63266" lon="0.87082">
        <ele>190</ele>
        <time>2012-06-03T09:39:51Z</time>
      </trkpt>
      <trkpt lat="44.63265" lon="0.87081">
        <ele>194</ele>
        <time>2012-06-03T09:39:57Z</time>
      </trkpt>
      <trkpt lat="44.63262" lon="0.87086">
        <ele>195</ele>
        <time>2012-06-03T09:40:02Z</time>
      </trkpt>
      <trkpt lat="44.63254" lon="0.87097">
        <ele>196</ele>
        <time>2012-06-03T09:40:07Z</time>
      </trkpt>
      <trkpt lat="44.63246" lon="0.87106">
        <ele>198</ele>
        <time>2012-06-03T09:40:12Z</time>
      </trkpt>
      <trkpt lat="44.63242" lon="0.87116">
        <ele>198</ele>
        <time>2012-06-03T09:40:17Z</time>
      </trkpt>
      <trkpt lat="44.63242" lon="0.87119">
        <ele>198</ele>
        <time>2012-06-03T09:40:36Z</time>
      </trkpt>
      <trkpt lat="44.6324" lon="0.87121">
        <ele>205</ele>
        <time>2012-06-03T09:40:43Z</time>
      </trkpt>
      <trkpt lat="44.6324" lon="0.87122">
        <ele>205</ele>
        <time>2012-06-03T09:41:05Z</time>
      </trkpt>
      <trkpt lat="44.63239" lon="0.87124">
        <ele>205</ele>
        <time>2012-06-03T09:41:28Z</time>
      </trkpt>
      <trkpt lat="44.63237" lon="0.87125">
        <ele>205</ele>
        <time>2012-06-03T09:41:38Z</time>
      </trkpt>
      <trkpt lat="44.63235" lon="0.87126">
        <ele>205</ele>
        <time>2012-06-03T09:41:43Z</time>
      </trkpt>
      <trkpt lat="44.63234" lon="0.87127">
        <ele>205</ele>
        <time>2012-06-03T09:41:56Z</time>
      </trkpt>
      <trkpt lat="44.63232" lon="0.87127">
        <ele>205</ele>
        <time>2012-06-03T09:42:02Z</time>
      </trkpt>
      <trkpt lat="44.63231" lon="0.87127">
        <ele>205</ele>
        <time>2012-06-03T09:42:07Z</time>
      </trkpt>
      <trkpt lat="44.63232" lon="0.87126">
        <ele>205</ele>
        <time>2012-06-03T09:42:14Z</time>
      </trkpt>
      <trkpt lat="44.6323" lon="0.87128">
        <ele>205</ele>
        <time>2012-06-03T09:42:19Z</time>
      </trkpt>
      <trkpt lat="44.6323" lon="0.87129">
        <ele>204</ele>
        <time>2012-06-03T09:42:29Z</time>
      </trkpt>
      <trkpt lat="44.63231" lon="0.87128">
        <ele>203</ele>
        <time>2012-06-03T09:42:35Z</time>
      </trkpt>
      <trkpt lat="44.63235" lon="0.87127">
        <ele>202</ele>
        <time>2012-06-03T09:42:42Z</time>
      </trkpt>
      <trkpt lat="44.63236" lon="0.87128">
        <ele>200</ele>
        <time>2012-06-03T09:42:50Z</time>
      </trkpt>
      <trkpt lat="44.63239" lon="0.8713">
        <ele>199</ele>
        <time>2012-06-03T09:42:55Z</time>
      </trkpt>
      <trkpt lat="44.63245" lon="0.87133">
        <ele>199</ele>
        <time>2012-06-03T09:43:00Z</time>
      </trkpt>
      <trkpt lat="44.6325" lon="0.87137">
        <ele>199</ele>
        <time>2012-06-03T09:43:05Z</time>
      </trkpt>
      <trkpt lat="44.63253" lon="0.87144">
        <ele>199</ele>
        <time>2012-06-03T09:43:10Z</time>
      </trkpt>
      <trkpt lat="44.63252" lon="0.87151">
        <ele>199</ele>
        <time>2012-06-03T09:43:15Z</time>
      </trkpt>
      <trkpt lat="44.63245" lon="0.87152">
        <ele>199</ele>
        <time>2012-06-03T09:43:20Z</time>
      </trkpt>
      <trkpt lat="44.63236" lon="0.87152">
        <ele>200</ele>
        <time>2012-06-03T09:43:25Z</time>
      </trkpt>
      <trkpt lat="44.63228" lon="0.87154">
        <ele>201</ele>
        <time>2012-06-03T09:43:30Z</time>
      </trkpt>
      <trkpt lat="44.63219" lon="0.87155">
        <ele>202</ele>
        <time>2012-06-03T09:43:35Z</time>
      </trkpt>
      <trkpt lat="44.63211" lon="0.87156">
        <ele>202</ele>
        <time>2012-06-03T09:43:40Z</time>
      </trkpt>
      <trkpt lat="44.63203" lon="0.87158">
        <ele>202</ele>
        <time>2012-06-03T09:43:45Z</time>
      </trkpt>
      <trkpt lat="44.63196" lon="0.87158">
        <ele>204</ele>
        <time>2012-06-03T09:43:50Z</time>
      </trkpt>
      <trkpt lat="44.63189" lon="0.87159">
        <ele>206</ele>
        <time>2012-06-03T09:43:55Z</time>
      </trkpt>
      <trkpt lat="44.63182" lon="0.87165">
        <ele>208</ele>
        <time>2012-06-03T09:44:01Z</time>
      </trkpt>
      <trkpt lat="44.63174" lon="0.87169">
        <ele>211</ele>
        <time>2012-06-03T09:44:06Z</time>
      </trkpt>
      <trkpt lat="44.63162" lon="0.87173">
        <ele>212</ele>
        <time>2012-06-03T09:44:11Z</time>
      </trkpt>
      <trkpt lat="44.6315" lon="0.8718">
        <ele>212</ele>
        <time>2012-06-03T09:44:17Z</time>
      </trkpt>
      <trkpt lat="44.63141" lon="0.87185">
        <ele>212</ele>
        <time>2012-06-03T09:44:22Z</time>
      </trkpt>
      <trkpt lat="44.63135" lon="0.8719">
        <ele>212</ele>
        <time>2012-06-03T09:44:30Z</time>
      </trkpt>
      <trkpt lat="44.63133" lon="0.87186">
        <ele>212</ele>
        <time>2012-06-03T09:44:39Z</time>
      </trkpt>
      <trkpt lat="44.63133" lon="0.87185">
        <ele>212</ele>
        <time>2012-06-03T09:44:43Z</time>
      </trkpt>
    </trkseg>
  </trk>
</gpx>